Date StartTime U_cm/s V_cm/s W_cm/s Ustd_cm/s Vstd_cm/s Wstd_cm/s Uvar_(cm/s)^2 Vvar_(cm/s)^2 Wvar_(cm/s)^2 KE_(m/s)^2 TurbulentKE_(m/s)^2 HorizWindSpeed_cm/s FrictionSpeec_cm/s DragCoef SpeedOfSound_m/s SonicTemperature_C Pressure_mb 
07/18/2014  00:00:00      -52.355      -69.184        7.748       42.972       60.398       24.510     1846.561     3647.945      600.724        0.684        0.305       86.761       25.710        0.088      346.433       24.677      861.354
07/18/2014  00:01:00      -88.052      -36.929        3.842       36.167       38.293       17.863     1308.057     1466.379      319.095        0.611        0.155       95.483       21.198        0.049      346.368       24.565      861.381
07/18/2014  00:02:00      -72.578      -26.145        0.141       37.866       29.648       18.073     1433.834      879.011      326.634        0.429        0.132       77.144       15.781        0.042      346.428       24.668      861.403
07/18/2014  00:03:00      -84.223        3.166       -3.797       29.738       30.111       17.611      884.337      906.695      310.151        0.461        0.105       84.283       15.283        0.033      346.286       24.426      861.417
07/18/2014  00:04:00      -75.143        1.956      -10.145       28.630       20.855       16.088      819.695      434.943      258.815        0.363        0.076       75.169       10.783        0.021      346.230       24.329      861.426
07/18/2014  00:05:00      -94.675       -6.602      -11.568       32.773       21.242       13.789     1074.099      451.208      190.143        0.543        0.086       94.905        9.715        0.010      346.165       24.217      861.444
07/18/2014  00:06:00      -55.448        4.998        3.197       35.235       29.298       14.871     1241.472      858.376      221.150        0.271        0.116       55.673       17.855        0.103      346.132       24.160      861.462
07/18/2014  00:07:00      -34.297       39.348       -0.278       25.097       17.791        8.794      629.879      316.508       77.333        0.187        0.051       52.197        6.537        0.016      346.152       24.193      861.472
07/18/2014  00:08:00      -13.244       76.750       -8.559       19.404       38.511       14.819      376.520     1483.117      219.609        0.411        0.104       77.885       17.370        0.050      346.162       24.211      861.489
07/18/2014  00:09:00      -31.898       95.370      -10.713       14.780       31.118       13.527      218.434      968.327      182.967        0.580        0.068      100.563       16.349        0.026      346.145       24.182      861.509
07/18/2014  00:10:00      -52.976       45.293       -3.391       32.804       26.413       14.319     1076.100      697.650      205.034        0.342        0.099       69.699       10.011        0.021      345.945       23.840      861.530
07/18/2014  00:11:00      -65.014       37.327       -9.006       21.306       32.355       15.967      453.926     1046.820      254.931        0.373        0.088       74.968       10.052        0.018      345.933       23.819      861.545
07/18/2014  00:12:00      -49.507       77.806      -10.675       27.511       34.029       17.344      756.876     1157.958      300.826        0.542        0.111       92.221       13.898        0.023      346.008       23.946      861.538
07/18/2014  00:13:00      -79.113       29.611      -11.217       17.076       14.624       10.155      291.589      213.870      103.118        0.393        0.030       84.473        6.937        0.007      346.139       24.171      861.520
07/18/2014  00:14:00      -38.531       -4.974      -11.636       12.322       16.497       10.580      151.844      272.162      111.942        0.109        0.027       38.850        8.527        0.048      346.111       24.125      861.499
07/18/2014  00:15:00        6.982      -19.594       -8.144       19.848       16.849       12.300      393.949      283.886      151.300        0.066        0.041       20.801        8.923        0.184      346.143       24.178      861.470
07/18/2014  00:16:00        6.651      -29.519      -13.323        9.318       15.198       11.725       86.822      230.985      137.486        0.077        0.023       30.259        6.821        0.051      346.139       24.171      861.443
07/18/2014  00:17:00       16.923      -36.294       -6.942       13.645       12.251       11.085      186.178      150.076      122.879        0.106        0.023       40.045        8.880        0.049      346.146       24.184      861.421
07/18/2014  00:18:00        2.026      -39.942       -7.042       17.597       10.293       10.193      309.661      105.953      103.905        0.108        0.026       39.994        9.319        0.054      346.130       24.153      861.413
07/18/2014  00:19:00       -2.347      -25.905        1.320        9.116        9.244        9.709       83.099       85.445       94.269        0.047        0.013       26.011        6.139        0.056      346.099       24.104      861.417
07/18/2014  00:20:00      -25.072        0.080        0.296        9.803       12.807       12.524       96.090      164.028      156.856        0.052        0.021       25.073       11.030        0.194      346.189       24.257      861.427
07/18/2014  00:21:00       10.283       12.051        9.923        8.949        8.010        7.026       80.089       64.167       49.368        0.027        0.010       15.842        5.569        0.124      346.048       24.015      861.451
07/18/2014  00:22:00       -5.302       41.403       -0.270        7.448       13.724        6.985       55.470      188.352       48.795        0.102        0.015       41.741        7.989        0.037      346.106       24.115      861.476
07/18/2014  00:23:00       -4.168       40.119       -2.591        7.696        5.427        3.745       59.231       29.454       14.022        0.087        0.005       40.335        2.672        0.004      346.161       24.208      861.486
07/18/2014  00:24:00        9.356       27.669       -2.950        4.346        9.507        2.447       18.886       90.387        5.989        0.049        0.006       29.208        2.544        0.008      346.322       24.489      861.484
07/18/2014  00:25:00       11.629       16.821       -4.329       16.157        7.662       11.893      261.036       58.702      141.445        0.045        0.023       20.449       12.460        0.371      346.119       24.137      861.473
07/18/2014  00:26:00      -11.833      -18.815       15.199       10.954       17.174       14.440      119.985      294.930      208.512        0.067        0.031       22.227        5.317        0.057      345.995       23.926      861.464
07/18/2014  00:27:00       -4.264       -3.023       13.291        9.819        7.366       10.522       96.409       54.253      110.713        0.023        0.013        5.227        6.936        1.761      345.856       23.686      861.470
07/18/2014  00:28:00      -26.767       -2.499       -5.953       17.112        6.986        5.907      292.804       48.804       34.891        0.057        0.019       26.884        4.613        0.029      345.934       23.820      861.490
07/18/2014  00:29:00      -57.604       -2.505       -8.611        5.136        4.381        3.557       26.379       19.195       12.653        0.173        0.003       57.658        2.319        0.002      345.906       23.770      861.504
07/18/2014  00:30:00      -72.441      -25.250       -4.676       15.209       16.247        8.359      231.314      263.956       69.866        0.324        0.028       76.716        7.555        0.010      345.834       23.647      861.502
07/18/2014  00:31:00      -82.956      -46.440        2.307       27.118       22.920       17.605      735.369      525.332      309.948        0.531        0.079       95.071       14.214        0.022      345.700       23.418      861.492
07/18/2014  00:32:00      -30.165      -25.340        2.950       35.560       25.484       16.288     1264.520      649.459      265.312        0.187        0.109       39.396       17.219        0.191      345.618       23.278      861.490
07/18/2014  00:33:00      -42.996      -31.063        2.312       24.514       21.991       13.513      600.939      483.617      182.600        0.204        0.063       53.043        9.036        0.029      345.802       23.592      861.493
07/18/2014  00:34:00      -30.998      -43.253       -0.775       20.174       22.030       12.389      406.989      485.311      153.497        0.194        0.052       53.213       10.982        0.043      345.950       23.849      861.512
07/18/2014  00:35:00      -49.114      -32.479       -5.025       11.928        8.132        8.229      142.284       66.130       67.722        0.188        0.014       58.881        6.556        0.012      346.014       23.955      861.532
07/18/2014  00:36:00      -73.248      -24.093       -5.925       21.754       16.774        8.761      473.219      281.353       76.747        0.341        0.042       77.109        6.888        0.008      345.838       23.654      861.552
07/18/2014  00:37:00     -104.305      -55.840       -2.993       24.854       25.198       14.561      617.728      634.928      212.019        0.774        0.073      118.312       13.775        0.014      345.709       23.434      861.564
07/18/2014  00:38:00     -125.190      -36.840       -3.205       31.867       33.704       20.285     1015.475     1135.963      411.481        0.980        0.128      130.498       18.056        0.019      345.529       23.123      861.557
07/18/2014  00:39:00     -110.088      -24.562       -6.141       31.386       33.048       20.047      985.069     1092.161      401.864        0.762        0.124      112.794       17.331        0.024      345.356       22.828      861.554
07/18/2014  00:40:00      -76.575        2.327       -2.939       38.959       43.857       16.855     1517.835     1923.424      284.090        0.480        0.186       76.610       16.699        0.048      345.259       22.663      861.559
07/18/2014  00:41:00      -69.990       -3.896       -5.649       46.298       24.490       18.021     2143.518      599.744      324.767        0.401        0.153       70.099       22.158        0.100      345.193       22.548      861.555
07/18/2014  00:42:00     -101.178      -22.963       -7.863       36.226       32.755       19.836     1312.304     1072.862      393.468        0.680        0.139      103.751       15.214        0.022      345.170       22.509      861.549
07/18/2014  00:43:00      -47.287      -32.651        2.883       44.802       35.741       23.319     2007.209     1277.399      543.794        0.357        0.191       57.464       26.790        0.217      345.257       22.659      861.551
07/18/2014  00:44:00      -87.273      -15.290       -1.587       32.769       14.647       14.321     1073.793      214.532      205.079        0.467        0.075       88.602       15.166        0.029      345.260       22.663      861.558
07/18/2014  00:45:00      -98.441      -12.358       -5.765       12.754       12.765       12.193      162.661      162.936      148.663        0.518        0.024       99.214        9.701        0.010      345.246       22.639      861.562
07/18/2014  00:46:00     -108.420       -2.215      -14.433       10.627        9.207       10.917      112.924       84.765      119.181        0.614        0.016      108.443        6.676        0.004      345.280       22.697      861.565
07/18/2014  00:47:00     -100.474       -2.201      -13.628       13.611       15.452        8.192      185.261      238.752       67.117        0.539        0.025      100.498        8.127        0.007      345.327       22.776      861.567
07/18/2014  00:48:00     -102.678       -1.678      -12.804       11.032       16.920        8.956      121.708      286.279       80.212        0.560        0.024      102.691        6.516        0.004      345.367       22.848      861.573
07/18/2014  00:49:00     -101.857      -27.744      -11.800       14.171       10.513       11.597      200.822      110.522      134.494        0.586        0.022      105.568        9.453        0.008      345.509       23.090      861.585
07/18/2014  00:50:00      -90.174      -50.699       -2.285       31.467       16.386       14.780      990.169      268.512      218.461        0.609        0.074      103.449       12.088        0.014      345.483       23.046      861.578
07/18/2014  00:51:00     -121.847      -58.152      -14.739       18.014       19.657       14.926      324.521      386.387      222.771        0.969        0.047      135.012       10.024        0.006      345.313       22.754      861.565
07/18/2014  00:52:00      -86.747      -29.445       -7.573       25.167       20.871       12.329      633.384      435.588      151.992        0.483        0.061       91.608        8.096        0.008      345.286       22.707      861.553
07/18/2014  00:53:00      -61.359      -21.164       -0.345       25.789       21.945       15.181      665.094      481.569      230.452        0.279        0.069       64.906       16.389        0.064      345.268       22.676      861.543
07/18/2014  00:54:00      -35.974      -15.203        5.795       18.669       18.439       14.112      348.542      339.993      199.152        0.122        0.044       39.055        6.098        0.024      345.246       22.640      861.526
07/18/2014  00:55:00      -12.008      -19.873       -5.512       14.461       17.631       10.313      209.122      310.835      106.351        0.060        0.031       23.219        9.339        0.162      345.309       22.747      861.508
07/18/2014  00:56:00       -8.434      -27.740       -4.646       17.093       26.994       16.166      292.163      728.670      261.347        0.107        0.064       28.994       16.681        0.331      345.420       22.937      861.507
07/18/2014  00:57:00      -14.105      -35.058       14.460       26.703       30.671       18.094      713.033      940.711      327.386        0.181        0.099       37.789       19.788        0.274      345.257       22.658      861.487
07/18/2014  00:58:00      -37.412      -58.135        2.841       21.521       13.870       12.765      463.132      192.380      162.951        0.280        0.041       69.133        4.550        0.004      345.453       22.994      861.465
07/18/2014  00:59:00      -47.870      -54.995       -4.032       41.575       23.960       17.095     1728.443      574.071      292.251        0.396        0.130       72.911       17.161        0.055      345.658       23.346      861.456
07/18/2014  01:00:00      -38.788      -49.430        3.705       54.312       39.631       22.477     2949.777     1570.596      505.223        0.449        0.251       62.832       27.195        0.187      345.631       23.299      861.439
07/18/2014  01:01:00      -83.405      -76.299        0.491       37.518       25.059       16.478     1407.600      627.944      271.511        0.754        0.115      113.040        9.064        0.006      345.559       23.176      861.428
07/18/2014  01:02:00     -128.013      -54.839       -6.758       40.717       25.794       20.899     1657.889      665.345      436.768        1.110        0.138      139.265       13.817        0.010      345.478       23.036      861.420
07/18/2014  01:03:00      -77.384      -51.688        8.733       60.352       32.314       21.740     3642.389     1044.203      472.648        0.695        0.258       93.059       22.960        0.061      345.501       23.076      861.425
07/18/2014  01:04:00      -81.171      -60.528       -4.356       41.439       31.985       20.963     1717.185     1023.045      439.453        0.672        0.159      101.254       19.569        0.037      345.669       23.365      861.416
07/18/2014  01:05:00      -92.108      -89.528       -2.801       48.232       39.531       21.236     2326.341     1562.672      450.985        1.042        0.217      128.449       20.558        0.026      345.671       23.368      861.402
07/18/2014  01:06:00      -88.998      -35.581       -2.080       41.165       29.067       18.171     1694.565      844.899      330.196        0.603        0.143       95.847       18.900        0.039      345.611       23.265      861.388
07/18/2014  01:07:00      -91.050       -8.008        2.271       38.043       30.571       20.991     1447.242      934.585      440.637        0.559        0.141       91.402       21.703        0.056      345.446       22.982      861.387
07/18/2014  01:08:00     -117.211       -7.312       -2.846       44.535       36.426       25.609     1983.380     1326.880      655.802        0.888        0.198      117.439       23.196        0.039      345.282       22.702      861.377
07/18/2014  01:09:00     -115.436      -36.662        1.838       47.093       35.333       21.722     2217.706     1248.408      471.825        0.930        0.197      121.118       23.369        0.037      345.509       23.090      861.355
07/18/2014  01:10:00      -90.115      -55.023       14.314       49.793       42.877       23.650     2479.386     1838.426      559.336        0.811        0.244      105.586       17.333        0.027      345.568       23.191      861.349
07/18/2014  01:11:00     -118.791      -48.736        8.147       48.559       38.274       25.384     2357.964     1464.907      644.330        1.051        0.223      128.400       24.926        0.038      345.480       23.039      861.343
07/18/2014  01:12:00      -87.756      -33.471       -3.415       42.829       32.986       17.672     1834.325     1088.046      312.314        0.603        0.162       93.923       16.926        0.032      345.623       23.285      861.314
07/18/2014  01:13:00      -67.617      -30.275        1.071       30.419       26.182       20.290      925.320      685.476      411.665        0.376        0.101       74.085       20.625        0.078      345.626       23.292      861.294
07/18/2014  01:14:00      -40.387      -54.285        5.742       49.674       40.734       22.634     2467.530     1659.272      512.316        0.462        0.232       67.660       23.357        0.119      345.578       23.209      861.283
07/18/2014  01:15:00       13.589      -78.412       33.154       29.473       48.622       24.690      868.662     2364.133      609.592        0.564        0.192       79.581       16.007        0.040      345.773       23.544      861.275
07/18/2014  01:16:00      -13.098      -54.864       -5.243       69.290       55.780       23.477     4801.111     3111.461      551.192        0.583        0.423       56.406       28.752        0.260      345.743       23.492      861.283
07/18/2014  01:17:00      -77.976     -126.989      -13.570       44.741       56.547       25.175     2001.770     3197.610      633.801        1.411        0.292      149.018       16.974        0.013      345.867       23.704      861.285
07/18/2014  01:18:00       -8.551      -21.215       -2.526       22.416       18.949       15.718      502.492      359.047      247.044        0.082        0.055       22.874       13.213        0.334      345.698       23.415      861.304
07/18/2014  01:19:00      -12.996        8.598       17.492       27.090       18.292       20.009      733.887      334.613      400.340        0.101        0.073       15.583       19.099        1.502      345.621       23.281      861.312
07/18/2014  01:20:00        1.619      -68.103        5.108       31.711       39.642       18.137     1005.591     1571.492      328.958        0.379        0.145       68.122       11.254        0.027      345.649       23.330      861.314
07/18/2014  01:21:00      -38.683     -108.395        3.043       25.635       42.640       17.059      657.143     1818.168      291.001        0.801        0.138      115.091       14.459        0.016      345.791       23.574      861.338
07/18/2014  01:22:00      -46.921      -76.318       -5.177       34.109       52.861       22.352     1163.396     2794.302      499.628        0.625        0.223       89.588       18.736        0.044      345.779       23.553      861.350
07/18/2014  01:23:00      -25.154     -124.835       -0.063       35.291       50.060       24.778     1245.452     2506.010      613.957        1.029        0.218      127.343       21.098        0.027      345.811       23.609      861.347
07/18/2014  01:24:00      -78.767      -73.663       -5.955       56.811       32.213       29.647     3227.434     1037.697      878.965        0.840        0.257      107.845       27.688        0.066      345.747       23.498      861.346
07/18/2014  01:25:00      -67.303     -112.068       -0.910       38.647       54.729       25.655     1493.600     2995.251      658.176        1.112        0.257      130.724       31.994        0.060      345.786       23.564      861.342
07/18/2014  01:26:00      -80.953     -118.381       -2.198       47.952       60.465       23.991     2299.431     3655.993      575.552        1.355        0.327      143.413       20.877        0.021      345.802       23.593      861.342
07/18/2014  01:27:00     -129.010     -123.444       -0.282       61.769       55.712       34.015     3815.350     3103.809     1157.031        1.998        0.404      178.556       24.949        0.020      345.716       23.445      861.328
07/18/2014  01:28:00     -166.598      -95.158       -5.803       50.797       59.065       31.225     2580.361     3488.697      975.014        2.194        0.352      191.859       25.616        0.018      345.773       23.542      861.316
07/18/2014  01:29:00     -133.075      -49.729        5.008       74.557       65.652       41.644     5558.722     4310.218     1734.254        1.590        0.580      142.063       48.146        0.115      345.720       23.451      861.300
07/18/2014  01:30:00     -111.418      -78.250        5.412       74.618       58.435       30.381     5567.779     3414.642      922.984        1.423        0.495      136.151       30.142        0.049      345.667       23.361      861.294
07/18/2014  01:31:00     -124.204      -76.984       -1.498       64.802       54.325       35.836     4199.364     2951.209     1284.212        1.489        0.422      146.127       35.324        0.058      345.667       23.361      861.276
07/18/2014  01:32:00     -154.218     -147.738       -2.641       84.935       70.449       42.412     7214.012     4963.007     1798.802        2.979        0.699      213.564       41.360        0.038      345.792       23.572      861.264
07/18/2014  01:33:00     -157.146      -90.148        2.320       58.056       71.595       32.857     3370.467     5125.829     1079.557        2.120        0.479      181.167       33.193        0.034      345.675       23.373      861.259
07/18/2014  01:34:00     -190.299      -38.504        5.802       72.751       58.532       41.366     5292.642     3426.042     1711.110        2.408        0.521      194.155       37.259        0.037      345.626       23.288      861.288
07/18/2014  01:35:00     -179.021      -67.173       -8.493       72.606       63.063       38.442     5271.666     3976.893     1477.791        2.368        0.536      191.208       37.968        0.039      345.461       23.004      861.289
07/18/2014  01:36:00     -178.274      -44.944       -2.784       52.210       58.349       33.180     2725.898     3404.622     1100.881        2.052        0.362      183.852       23.755        0.017      345.341       22.799      861.286
07/18/2014  01:37:00     -183.829       -9.481      -16.094       81.389       48.405       33.901     6624.188     2343.080     1149.300        2.213        0.506      184.073       35.709        0.038      345.141       22.457      861.272
07/18/2014  01:38:00     -183.238      -21.433      -13.826       80.269       40.248       32.393     6443.077     1619.883     1049.308        2.167        0.456      184.487       31.902        0.030      345.039       22.284      861.280
07/18/2014  01:39:00     -125.864      -19.292       -5.728       31.502       30.374       19.749      992.384      922.581      390.010        0.928        0.115      127.334       17.729        0.019      345.050       22.304      861.269
07/18/2014  01:40:00     -129.009      -37.093        1.122       38.160       38.690       20.865     1456.150     1496.938      435.344        1.070        0.169      134.236       15.954        0.014      345.062       22.326      861.272
07/18/2014  01:41:00     -133.294       -6.462       -4.938       45.759       31.862       19.702     2093.881     1015.206      388.188        1.066        0.175      133.451       18.353        0.019      345.069       22.337      861.276
07/18/2014  01:42:00     -103.266      -16.412        6.086       57.493       28.056       22.327     3305.411      787.113      498.490        0.778        0.230      104.562       25.355        0.059      344.988       22.198      861.288
07/18/2014  01:43:00      -96.052      -27.901        5.071       36.764       25.975       13.886     1351.584      674.723      192.816        0.612        0.111      100.023       16.097        0.026      345.064       22.327      861.289
07/18/2014  01:44:00      -67.427      -30.082       -2.660       28.648       22.402       13.001      820.712      501.871      169.017        0.347        0.075       73.833        5.694        0.006      345.081       22.359      861.290
07/18/2014  01:45:00      -64.407      -11.690       -3.328       28.015       25.870       13.839      784.867      669.262      191.507        0.297        0.082       65.460        5.212        0.006      345.069       22.336      861.294
07/18/2014  01:46:00      -26.466      -23.355      -11.444       20.297       13.127        7.499      411.979      172.325       56.236        0.101        0.032       35.298        8.159        0.053      345.078       22.352      861.285
07/18/2014  01:47:00      -39.312      -10.559       -3.235        7.592        6.436        4.986       57.632       41.417       24.864        0.090        0.006       40.705        1.894        0.002      345.176       22.521      861.301
07/18/2014  01:48:00      -54.570       -6.742       -6.886       11.001        6.254        5.694      121.020       39.114       32.423        0.163        0.010       54.985        5.120        0.009      345.206       22.570      861.313
07/18/2014  01:49:00      -72.959      -22.817       -7.803       12.295       13.095        8.604      151.161      171.485       74.031        0.315        0.020       76.444        5.659        0.005      345.173       22.512      861.319
07/18/2014  01:50:00      -62.105        2.923       -7.509        9.805       11.505        5.888       96.137      132.369       34.667        0.209        0.013       62.174        5.455        0.008      345.087       22.365      861.328
07/18/2014  01:51:00      -66.228       -5.019       -8.779       16.216        7.599        7.606      262.959       57.752       57.855        0.243        0.019       66.418        3.198        0.002      345.051       22.305      861.335
07/18/2014  01:52:00      -69.720      -11.188       -0.434       28.108       18.499        9.706      790.045      342.223       94.207        0.311        0.061       70.612       10.563        0.022      345.007       22.231      861.347
07/18/2014  01:53:00      -41.952       12.034        2.754       20.661       19.858       12.401      426.857      394.353      153.779        0.144        0.049       43.644       12.486        0.082      344.943       22.121      861.358
07/18/2014  01:54:00      -58.251       10.658       -8.792       10.901       11.320        9.070      118.828      128.146       82.262        0.196        0.016       59.218        4.818        0.007      344.933       22.104      861.361
07/18/2014  01:55:00      -63.308       -6.398       -4.972       16.760       13.995        8.321      280.894      195.852       69.234        0.231        0.027       63.630        4.048        0.004      345.041       22.288      861.347
07/18/2014  01:56:00      -60.907       -8.085       -8.140       17.569       15.884        8.514      308.684      252.302       72.483        0.224        0.032       61.441        4.123        0.005      345.039       22.286      861.344
07/18/2014  01:57:00      -56.655      -17.093       -6.235       17.791       17.120       13.719      316.517      293.107      188.213        0.217        0.040       59.177       11.965        0.041      345.013       22.240      861.330
07/18/2014  01:58:00      -62.726      -19.535       -2.777       19.384       12.497        9.195      375.738      156.165       84.551        0.247        0.031       65.698        7.530        0.013      344.943       22.121      861.331
07/18/2014  01:59:00      -30.648      -34.661       -5.168       17.844       10.254        6.494      318.416      105.138       42.176        0.132        0.023       46.267        7.516        0.026      345.052       22.310      861.321
07/18/2014  02:00:00      -43.689      -20.170       -7.355       12.415       21.957        7.766      154.121      482.100       60.315        0.153        0.035       48.120        4.755        0.010      345.116       22.420      861.315
07/18/2014  02:01:00       10.549        5.961       -3.576       38.120       19.044       13.357     1453.107      362.691      178.407        0.108        0.100       12.117        8.110        0.448      345.233       22.618      861.308
07/18/2014  02:02:00       55.387       48.263        1.662       26.156       38.154       27.369      684.116     1455.763      749.055        0.414        0.144       73.464       22.652        0.095      344.924       22.090      861.318
07/18/2014  02:03:00       48.599        7.153        0.618       27.851       26.069       13.034      775.668      679.603      169.875        0.202        0.081       49.123       13.273        0.073      345.000       22.218      861.321
07/18/2014  02:04:00      -15.306        1.450        2.601       13.115       11.052       13.176      172.001      122.137      173.620        0.036        0.023       15.375       11.490        0.558      344.995       22.209      861.334
07/18/2014  02:05:00      -46.479      -32.478       -8.659       13.050       19.457       12.576      170.293      378.587      158.164        0.200        0.035       56.702       12.541        0.049      345.083       22.361      861.337
07/18/2014  02:06:00      -46.648      -23.396       -0.299       12.217       11.037        8.658      149.267      121.821       74.960        0.153        0.017       52.186        5.753        0.012      344.839       21.943      861.331
07/18/2014  02:07:00      -31.077      -24.977       -5.486       12.226       11.436        7.282      149.476      130.792       53.033        0.098        0.017       39.870        2.723        0.005      344.953       22.136      861.332
07/18/2014  02:08:00      -19.974      -57.185        0.678       33.185       39.509       11.263     1101.223     1560.961      126.853        0.323        0.139       60.573       10.264        0.029      345.185       22.534      861.332
07/18/2014  02:09:00      -46.191      -87.151       -2.665       17.821       16.661       14.409      317.584      277.574      207.618        0.527        0.040       98.635        9.840        0.010      345.291       22.716      861.336
07/18/2014  02:10:00      -34.805      -67.474        3.648       24.379       20.280       11.291      594.330      411.278      127.484        0.346        0.057       75.922       12.161        0.026      345.288       22.709      861.337
07/18/2014  02:11:00      -38.464      -81.384       -9.322       28.076       36.655       17.429      788.290     1343.564      303.786        0.531        0.122       90.016       17.021        0.036      345.297       22.728      861.349
07/18/2014  02:12:00      -54.042     -116.549       -6.408       24.433       21.641       16.145      596.966      468.330      260.673        0.894        0.066      128.468       11.928        0.009      345.350       22.818      861.351
07/18/2014  02:13:00      -63.235     -112.207       -0.603       41.016       36.577       20.739     1682.314     1337.865      430.106        1.002        0.173      128.798       23.417        0.033      345.272       22.683      861.359
07/18/2014  02:14:00      -99.570     -123.694        1.151       47.609       47.517       27.860     2266.608     2257.825      776.167        1.526        0.265      158.790       20.954        0.017      345.220       22.593      861.358
07/18/2014  02:15:00      -75.513      -77.250        5.361       48.695       41.924       26.403     2371.225     1757.656      697.138        0.826        0.241      108.027       21.869        0.041      345.189       22.540      861.365
07/18/2014  02:16:00     -106.375      -79.836       -2.112       29.701       27.379       20.904      882.174      749.604      436.970        0.988        0.103      133.001       17.766        0.018      345.177       22.522      861.366
07/18/2014  02:17:00      -98.495      -66.289       -4.641       25.845       15.564       12.420      667.990      242.251      154.251        0.759        0.053      118.725        7.589        0.004      345.174       22.517      861.370
07/18/2014  02:18:00      -57.677      -50.748        1.461       26.528       20.998       12.559      703.710      440.926      157.716        0.360        0.065       76.825       10.341        0.018      345.160       22.493      861.387
07/18/2014  02:19:00      -50.614      -33.750        6.946       35.863       31.882       16.945     1286.159     1016.482      287.119        0.317        0.129       60.834       19.827        0.106      345.161       22.494      861.389
07/18/2014  02:20:00      -59.295      -18.367        1.995       31.130       16.394       13.337      969.107      268.765      177.877        0.264        0.071       62.075        9.442        0.023      345.007       22.232      861.385
07/18/2014  02:21:00      -77.158       12.958       -4.142       28.972       12.024        9.975      839.388      144.582       99.491        0.361        0.054       78.239       11.205        0.021      344.838       21.942      861.385
07/18/2014  02:22:00      -77.393      -11.860      -12.818       20.068       16.364       10.335      402.738      267.784      106.820        0.354        0.039       78.297        8.463        0.012      344.841       21.946      861.370
07/18/2014  02:23:00      -73.584      -34.496       -6.784       12.785        8.376       10.533      163.448       70.165      110.934        0.350        0.017       81.269        6.855        0.007      345.032       22.273      861.348
07/18/2014  02:24:00       -3.163      -50.192       -5.659       17.179       14.422       11.286      295.117      207.984      127.365        0.160        0.032       50.292        3.463        0.005      345.090       22.372      861.318
07/18/2014  02:25:00        7.855      -36.841        9.092       20.004       25.877       21.128      400.171      669.628      446.392        0.151        0.076       37.669       11.446        0.092      345.034       22.276      861.285
07/18/2014  02:26:00      -43.280      -53.534        2.655       39.388       28.316       25.319     1551.422      801.821      641.036        0.387        0.150       68.841       21.278        0.096      344.940       22.117      861.260
07/18/2014  02:27:00      -21.980      -32.868        6.962       35.803       27.443       21.210     1281.870      753.129      449.881        0.205        0.124       39.540       20.764        0.276      344.978       22.180      861.252
07/18/2014  02:28:00      -50.841      -64.977        9.366       38.067       41.060       23.097     1449.060     1685.958      533.467        0.528        0.183       82.503       23.111        0.078      344.956       22.143      861.252
07/18/2014  02:29:00      -59.317      -54.299        4.230       39.733       26.255       19.114     1578.734      689.349      365.333        0.456        0.132       80.417       14.955        0.035      344.936       22.109      861.262
07/18/2014  02:30:00      -81.943      -50.857        0.466       21.142       17.609       15.341      446.978      310.059      235.346        0.515        0.050       96.443       13.896        0.021      344.937       22.109      861.275
07/18/2014  02:31:00      -70.689      -42.268        1.000       19.870       13.808       14.203      394.833      190.656      201.722        0.379        0.039       82.362       11.764        0.020      344.899       22.045      861.278
07/18/2014  02:32:00      -58.577      -31.307       -2.189       34.544       17.891        9.725     1193.309      320.087       94.575        0.301        0.080       66.419       12.845        0.037      344.937       22.111      861.293
07/18/2014  02:33:00      -65.892      -33.248       -9.859       29.214       14.004       11.616      853.479      196.111      134.943        0.336        0.059       73.805        7.589        0.011      345.029       22.269      861.306
07/18/2014  02:34:00      -19.023      -22.078        1.599       18.318       11.571       11.589      335.549      133.877      134.299        0.073        0.030       29.143        7.597        0.068      345.004       22.226      861.317
07/18/2014  02:35:00      -19.866      -19.352        3.006       22.685       10.972       11.436      514.588      120.388      130.771        0.077        0.038       27.734        6.809        0.060      345.016       22.245      861.328
07/18/2014  02:36:00       -5.237      -21.684        3.703       14.074       15.116       11.657      198.073      228.499      135.885        0.054        0.028       22.307        8.931        0.160      344.964       22.158      861.335
07/18/2014  02:37:00      -20.311      -35.375        0.499       13.866       20.761       10.960      192.277      431.025      120.112        0.120        0.037       40.792        8.310        0.042      344.976       22.177      861.337
07/18/2014  02:38:00       -6.055      -18.633        3.229        9.935       11.060        8.836       98.712      122.328       78.073        0.035        0.015       19.592        6.254        0.102      344.876       22.007      861.334
07/18/2014  02:39:00      -17.548       -6.138        8.284       16.393       21.310       12.939      268.724      454.104      167.411        0.065        0.045       18.591       10.882        0.343      344.779       21.838      861.338
07/18/2014  02:40:00      -49.729      -31.268        1.125       35.627       21.734       13.698     1269.280      472.345      187.623        0.269        0.096       58.742       12.910        0.048      344.696       21.698      861.333
07/18/2014  02:41:00      -78.601      -36.934       -2.716       23.930       27.167       15.138      572.660      738.046      229.163        0.454        0.077       86.846        8.958        0.011      344.599       21.533      861.340
07/18/2014  02:42:00      -55.333      -37.002        2.549       27.827       23.807       17.360      774.321      566.767      301.358        0.304        0.082       66.565       17.661        0.070      344.633       21.591      861.345
07/18/2014  02:43:00      -43.890      -36.581        1.136       20.327       18.277       13.868      413.186      334.053      192.333        0.210        0.047       57.135       12.933        0.051      344.694       21.695      861.348
07/18/2014  02:44:00      -58.246      -26.675       -2.621       22.948       17.501       12.749      526.591      306.288      162.527        0.255        0.050       64.064       11.834        0.034      344.722       21.741      861.347
07/18/2014  02:45:00      -78.210      -50.533       -6.812       19.695       20.388       15.571      387.910      415.651      242.451        0.488        0.052       93.115       11.547        0.015      344.835       21.938      861.339
07/18/2014  02:46:00      -40.464      -44.916        6.247       35.234       21.154       16.017     1241.412      447.505      256.543        0.282        0.097       60.455       16.771        0.077      344.802       21.879      861.334
07/18/2014  02:47:00      -59.607      -37.115        0.095       32.541       24.612       14.535     1058.887      605.732      211.264        0.340        0.094       70.217       14.592        0.043      344.818       21.908      861.331
07/18/2014  02:48:00      -56.788      -74.486       -1.196       25.973       32.327       17.495      674.615     1045.032      306.080        0.540        0.101       93.664       14.135        0.023      344.861       21.981      861.322
07/18/2014  02:49:00      -50.477      -38.670       -4.450       22.501       18.245        9.888      506.273      332.891       97.774        0.250        0.047       63.587        8.194        0.017      344.748       21.786      861.324
07/18/2014  02:50:00      -16.787      -16.387        8.571       29.222       21.197       13.713      853.910      449.315      188.057        0.106        0.075       23.459       11.271        0.231      344.723       21.745      861.338
07/18/2014  02:51:00      -26.979      -20.177       -3.141       21.671       18.854       13.427      469.628      355.490      180.287        0.107        0.050       33.690        9.265        0.076      344.702       21.707      861.351
07/18/2014  02:52:00      -30.968       26.741        0.273       15.677       30.735       14.158      245.782      944.669      200.438        0.153        0.070       40.916       12.013        0.086      344.563       21.469      861.353
07/18/2014  02:53:00      -54.984       66.545       -7.018       13.040       18.334        7.971      170.052      336.151       63.531        0.404        0.028       86.322        4.156        0.002      344.590       21.518      861.348
07/18/2014  02:54:00      -54.881       59.904      -14.298       14.518       11.994        8.756      210.767      143.850       76.672        0.362        0.022       81.243        7.801        0.009      344.528       21.411      861.343
07/18/2014  02:55:00      -68.264       30.497       -4.669       17.944       21.774       11.691      321.999      474.100      136.678        0.327        0.047       74.766       11.829        0.025      344.554       21.455      861.340
07/18/2014  02:56:00      -68.385      -32.173      -12.590       11.228       20.705       10.382      126.069      428.690      107.791        0.327        0.033       75.575        9.173        0.015      344.391       21.177      861.343
07/18/2014  02:57:00      -92.199      -50.768       -9.337       27.307       19.083       14.543      745.674      364.166      211.501        0.624        0.066      105.252       10.979        0.011      344.287       20.999      861.342
07/18/2014  02:58:00      -89.696      -37.194       -6.763       28.377       30.775       22.031      805.242      947.114      485.357        0.586        0.112       97.101       20.573        0.045      344.212       20.871      861.341
07/18/2014  02:59:00      -48.782      -27.962        2.156       29.769       24.761       22.871      886.194      613.131      523.070        0.259        0.101       56.228       19.800        0.124      344.114       20.704      861.341
07/18/2014  03:00:00      -87.361      -10.879       -5.307       33.913       21.661       14.297     1150.087      469.202      204.393        0.480        0.091       88.036       11.876        0.018      344.042       20.580      861.349
07/18/2014  03:01:00      -53.746      -18.403       -1.242       24.373       23.733       16.957      594.057      563.236      287.526        0.234        0.072       56.810       14.657        0.067      344.087       20.658      861.354
07/18/2014  03:02:00      -53.447      -44.395       -5.918       33.945       20.908       17.318     1152.259      437.139      299.923        0.338        0.094       69.481       18.155        0.068      344.157       20.777      861.361
07/18/2014  03:03:00      -58.461      -17.308       -1.998       17.734       18.147        8.850      314.481      329.330       78.325        0.222        0.036       60.970        2.865        0.002      344.208       20.863      861.367
07/18/2014  03:04:00      -22.213       -2.893       -0.574       13.532       11.639        8.330      183.123      135.457       69.383        0.044        0.019       22.401        8.348        0.139      344.219       20.883      861.362
07/18/2014  03:05:00      -63.666        7.538       -1.390       21.162       12.760        7.294      447.811      162.828       53.206        0.239        0.033       64.111        7.011        0.012      344.412       21.213      861.364
07/18/2014  03:06:00      -48.930      -33.308        0.363       21.557       12.648       14.494      464.691      159.982      210.083        0.217        0.042       59.191        9.355        0.025      344.392       21.178      861.378
07/18/2014  03:07:00      -43.525      -36.232       -4.793       17.826       19.960       14.121      317.771      398.412      199.400        0.207        0.046       56.632        9.247        0.027      344.388       21.170      861.392
07/18/2014  03:08:00      -84.591      -32.402       -5.254       12.815       15.719        9.559      164.234      247.097       91.370        0.437        0.025       90.584        6.856        0.006      344.388       21.171      861.396
07/18/2014  03:09:00      -50.216       -0.671       -2.800       18.866       10.839       11.501      355.913      117.490      132.282        0.157        0.030       50.221       10.013        0.040      344.350       21.107      861.394
07/18/2014  03:10:00      -55.883        2.228      -18.460       18.347       12.085        7.818      336.601      146.044       61.116        0.201        0.027       55.927        8.940        0.026      344.631       21.586      861.390
07/18/2014  03:11:00      -59.358       24.248       -9.472       28.666       19.596        8.963      821.752      383.987       80.327        0.274        0.064       64.120        8.498        0.018      344.857       21.974      861.392
07/18/2014  03:12:00      -64.887       11.137       -5.012        5.330        6.397        5.797       28.406       40.925       33.609        0.223        0.005       65.836        3.971        0.004      344.556       21.457      861.400
07/18/2014  03:13:00      -47.104        3.252       -1.517       11.786        5.772        3.477      138.906       33.314       12.091        0.121        0.009       47.216        4.198        0.008      344.816       21.904      861.404
07/18/2014  03:14:00      -22.447        5.927        0.604        8.101        5.933        7.198       65.633       35.203       51.814        0.035        0.008       23.216        5.423        0.055      344.828       21.924      861.404
07/18/2014  03:15:00      -11.301       -4.713       -2.682        7.207        7.239        7.410       51.938       52.399       54.905        0.016        0.008       12.245        4.054        0.110      344.686       21.681      861.412
07/18/2014  03:16:00      -30.100      -10.987       -8.023       15.173        7.212        7.092      230.232       52.017       50.293        0.071        0.017       32.043        4.687        0.021      344.384       21.165      861.431
07/18/2014  03:17:00      -61.526      -12.497      -13.530       13.091        9.852        6.905      171.379       97.063       47.673        0.222        0.016       62.782        3.979        0.004      344.290       21.002      861.441
07/18/2014  03:18:00      -67.047      -15.175       -7.478       16.252       11.223        9.521      264.140      125.965       90.658        0.263        0.024       68.743        8.601        0.016      344.067       20.623      861.457
07/18/2014  03:19:00      -41.749       -8.289       -6.823       12.148       11.723        6.348      147.568      137.434       40.291        0.109        0.016       42.564        4.451        0.011      344.069       20.627      861.466
07/18/2014  03:20:00      -10.566       -6.623       -2.154       15.440        6.655        4.956      238.404       44.291       24.561        0.023        0.015       12.470        4.492        0.130      344.162       20.784      861.486
07/18/2014  03:21:00        6.268        8.040       -0.229       12.459        6.053        5.628      155.221       36.645       31.670        0.016        0.011       10.194        6.428        0.398      344.423       21.230      861.515
07/18/2014  03:22:00       26.468        2.642       -7.224       14.194       14.100       10.436      201.473      198.812      108.917        0.063        0.025       26.600        5.354        0.041      344.441       21.262      861.535
07/18/2014  03:23:00       19.342        1.239        0.614        7.277       16.319       11.768       52.952      266.320      138.483        0.042        0.023       19.382        8.430        0.189      344.376       21.153      861.551
07/18/2014  03:24:00       19.788        4.606       -4.670       10.569        8.562        8.601      111.713       73.301       73.978        0.035        0.013       20.317        4.081        0.040      344.347       21.104      861.573
07/18/2014  03:25:00      -16.141       -4.447       -2.502       10.424        5.975        7.559      108.655       35.700       57.135        0.024        0.010       16.743        6.741        0.162      344.370       21.143      861.583
07/18/2014  03:26:00      -34.629       -7.869       -5.157       13.013        8.072        8.062      169.349       65.159       65.003        0.079        0.015       35.512        7.064        0.040      344.404       21.199      861.590
07/18/2014  03:27:00      -28.514       -9.194       -5.191       18.324       10.915       12.052      335.760      119.137      145.254        0.076        0.030       29.960        9.734        0.106      344.422       21.230      861.598
07/18/2014  03:28:00      -72.279      -11.383      -12.450       10.680        9.795        7.005      114.060       95.946       49.066        0.288        0.013       73.170        4.916        0.005      344.063       20.615      861.608
07/18/2014  03:29:00      -51.231      -30.647       -4.259       22.680       10.170       10.974      514.389      103.425      120.434        0.216        0.037       59.698        8.685        0.021      344.002       20.511      861.606
07/18/2014  03:30:00      -48.735      -32.278       -6.452       15.000       18.313       11.188      224.997      335.349      125.163        0.207        0.034       58.455        6.472        0.012      343.902       20.342      861.601
07/18/2014  03:31:00      -75.574      -26.987      -11.911       15.719       11.621       11.518      247.092      135.036      132.666        0.355        0.026       80.248       11.438        0.020      343.892       20.326      861.604
07/18/2014  03:32:00     -101.998      -23.225      -20.090       18.116       13.348        7.132      328.192      178.159       50.863        0.595        0.028      104.608        3.879        0.001      343.862       20.272      861.616
07/18/2014  03:33:00      -76.076      -23.344      -12.406       10.816       10.103        7.610      116.979      102.076       57.909        0.338        0.014       79.577        4.276        0.003      343.897       20.332      861.625
07/18/2014  03:34:00      -70.998       -4.600      -13.547        7.071        6.652        6.499       49.992       44.255       42.237        0.269        0.007       71.146        1.600        0.001      343.967       20.450      861.620
07/18/2014  03:35:00      -18.402       32.982       -9.150       25.696       30.737       11.433      660.305      944.784      130.723        0.162        0.087       37.768       15.074        0.159      344.672       21.658      861.613
07/18/2014  03:36:00      -15.447       16.739       -5.117       18.088       30.840       10.273      327.190      951.078      105.537        0.096        0.069       22.777       13.709        0.362      344.647       21.616      861.622
07/18/2014  03:37:00      -56.105      -24.380       -8.863       13.460       17.298        7.385      181.178      299.217       54.545        0.218        0.027       61.173        1.865        0.001      344.421       21.228      861.628
07/18/2014  03:38:00      -91.614      -57.294      -10.357       19.398       15.696       11.376      376.271      246.364      129.414        0.627        0.038      108.054        5.424        0.003      344.136       20.740      861.633
07/18/2014  03:39:00      -68.388      -52.938       -4.032       17.826       17.428       13.476      317.767      303.740      181.597        0.415        0.040       86.483       10.247        0.014      344.214       20.875      861.637
07/18/2014  03:40:00      -43.785       -6.716       -6.270        7.335       13.602        6.481       53.800      185.007       41.998        0.114        0.014       44.297        6.015        0.018      344.370       21.141      861.635
07/18/2014  03:41:00      -64.988        0.106       -9.458       12.796       10.044        7.188      163.743      100.881       51.667        0.231        0.016       64.988        7.799        0.014      344.368       21.137      861.637
07/18/2014  03:42:00     -100.022      -37.772      -14.716       27.357       19.225       13.419      748.422      369.587      180.076        0.647        0.065      106.916        9.710        0.008      344.217       20.879      861.651
07/18/2014  03:43:00     -107.601      -75.157      -10.899       58.170       27.167       17.974     3383.739      738.054      323.055        1.089        0.222      131.250        7.842        0.004      344.011       20.527      861.661
07/18/2014  03:44:00     -146.546      -26.780       -9.057       36.672       35.370       24.280     1344.868     1251.049      589.523        1.273        0.159      148.973       21.467        0.021      343.942       20.411      861.666
07/18/2014  03:45:00      -89.451      -11.040       -4.061       26.150       22.725       18.878      683.827      516.443      356.394        0.485        0.078       90.129       16.550        0.034      343.900       20.338      861.674
07/18/2014  03:46:00      -74.969      -13.378       -0.394       24.850       25.544       16.768      617.528      652.504      281.154        0.368        0.078       76.154       15.390        0.041      343.913       20.359      861.685
07/18/2014  03:47:00      -56.614       -2.478       -0.678       24.388       20.872       15.531      594.774      435.650      241.204        0.224        0.064       56.668       14.182        0.063      343.968       20.455      861.690
07/18/2014  03:48:00      -45.561      -27.123        0.132       24.390       21.344       14.156      594.887      455.555      200.396        0.203        0.063       53.023       14.679        0.077      344.117       20.708      861.695
07/18/2014  03:49:00      -62.972      -53.822       -2.976       36.547       29.440       13.934     1335.665      866.699      194.165        0.463        0.120       82.839       11.483        0.019      344.132       20.734      861.706
07/18/2014  03:50:00      -27.196      -46.033        6.862       43.491       19.920       17.794     1891.456      396.826      316.624        0.275        0.130       53.467       22.722        0.181      344.102       20.680      861.709
07/18/2014  03:51:00      -33.193      -89.305       -7.065       27.133       21.072       13.042      736.225      444.034      170.097        0.524        0.068       95.274        7.983        0.007      344.230       20.901      861.701
07/18/2014  03:52:00      -18.607      -73.238       -9.077       14.800       22.359       11.122      219.054      499.932      123.701        0.332        0.042       75.565        7.135        0.009      344.372       21.144      861.702
07/18/2014  03:53:00      -19.056      -37.289       -4.323       19.045       10.639        8.937      362.714      113.185       79.875        0.116        0.028       41.876        4.903        0.014      344.424       21.230      861.695
07/18/2014  03:54:00      -85.763      -42.105       -1.517       50.592       31.831       21.305     2559.558     1013.228      453.909        0.658        0.201       95.541       17.450        0.033      344.375       21.150      861.711
07/18/2014  03:55:00     -107.596     -112.564      -11.606       42.037       35.291       22.886     1767.098     1245.437      523.748        1.396        0.177      155.716       22.180        0.020      344.173       20.802      861.727
07/18/2014  03:56:00      -81.197      -69.366       -6.833       31.371       30.019       13.741      984.116      901.117      188.822        0.676        0.104      106.792       14.207        0.018      344.366       21.134      861.735
07/18/2014  03:57:00     -144.433      -49.253       -7.088       42.958       29.233       22.196     1845.418      854.556      492.654        1.326        0.160      152.600       21.997        0.021      344.093       20.669      861.731
07/18/2014  03:58:00      -72.109      -42.414        0.589       36.680       25.792       17.729     1345.405      665.214      314.316        0.466        0.116       83.658       18.958        0.051      344.130       20.730      861.725
07/18/2014  03:59:00      -21.858      -30.348       -0.753       26.483       18.905       12.614      701.361      357.402      159.123        0.131        0.061       37.400        8.833        0.056      344.319       21.055      861.711
07/18/2014  04:00:00      -72.965      -40.385       -5.122       36.990       12.974       10.559     1368.262      168.326      111.485        0.431        0.082       83.395        5.512        0.004      344.169       20.799      861.696
07/18/2014  04:01:00     -154.275      -46.811       -3.309       22.376       24.131       14.540      500.683      582.302      211.409        1.365        0.065      161.220        6.809        0.002      344.019       20.541      861.682
07/18/2014  04:02:00     -118.099      -56.630        0.953       56.160       30.751       16.313     3153.969      945.630      266.107        1.076        0.218      130.974       17.269        0.017      344.090       20.662      861.675
07/18/2014  04:03:00      -64.747      -73.318        3.718       35.220       32.038       21.254     1240.437     1026.456      451.712        0.615        0.136       97.814       11.953        0.015      344.141       20.750      861.683
07/18/2014  04:04:00     -140.292      -63.416       -3.113       40.534       36.539       23.389     1643.034     1335.082      547.061        1.362        0.176      153.959       18.709        0.015      344.133       20.736      861.694
07/18/2014  04:05:00      -94.240      -23.143       -0.596       44.771       29.898       19.572     2004.419      893.885      383.066        0.635        0.164       97.040       17.032        0.031      344.042       20.580      861.703
07/18/2014  04:06:00      -77.431      -32.357        0.124       29.235       23.230       14.995      854.662      539.615      224.856        0.433        0.081       83.920       15.166        0.033      344.157       20.776      861.697
07/18/2014  04:07:00      -20.830      -31.507        7.106       37.009       27.978       15.630     1369.677      782.773      244.301        0.194        0.120       37.770       17.276        0.209      344.240       20.918      861.685
07/18/2014  04:08:00      -56.306      -65.420        5.763       41.366       30.826       27.066     1711.112      950.272      732.595        0.544        0.170       86.314       24.859        0.083      344.205       20.860      861.687
07/18/2014  04:09:00     -110.110      -67.963        1.567       52.518       39.895       27.580     2758.114     1591.644      760.674        1.093        0.256      129.396       22.563        0.030      344.131       20.732      861.702
07/18/2014  04:10:00      -90.277      -45.944        2.170       31.637       26.769       20.941     1000.884      716.562      438.536        0.621        0.108      101.296       18.599        0.034      344.088       20.658      861.716
07/18/2014  04:11:00      -67.648      -29.592       -1.541       19.660       22.248       11.551      386.524      494.975      133.417        0.323        0.051       73.837        5.930        0.006      344.105       20.688      861.711
07/18/2014  04:12:00      -82.972      -20.588       -7.230       24.939       25.262       14.112      621.977      638.151      199.140        0.441        0.073       85.488       13.162        0.024      344.028       20.555      861.706
07/18/2014  04:13:00      -79.227      -52.320       -4.001       27.573       20.264       15.895      760.267      410.644      252.659        0.523        0.071       94.943       13.219        0.019      344.098       20.675      861.691
07/18/2014  04:14:00      -93.511      -34.253      -10.550       19.955       21.091       12.610      398.192      444.834      159.005        0.552        0.050       99.587        7.686        0.006      344.073       20.634      861.675
07/18/2014  04:15:00      -98.837      -41.417       -8.206       33.183       17.804       12.926     1101.115      316.977      167.087        0.657        0.079      107.164        9.977        0.009      343.985       20.482      861.670
07/18/2014  04:16:00      -42.683      -25.485        0.495       28.204       10.941        9.974      795.456      119.712       99.479        0.174        0.051       49.712       10.473        0.044      343.971       20.460      861.658
07/18/2014  04:17:00      -66.731      -28.564       -5.731       14.004       10.984        8.078      196.112      120.651       65.256        0.284        0.019       72.587        4.431        0.004      344.036       20.571      861.651
07/18/2014  04:18:00     -114.408      -55.893       -4.024       18.977        9.697        8.708      360.113       94.027       75.826        0.838        0.026      127.331        7.135        0.003      343.987       20.487      861.651
07/18/2014  04:19:00      -71.175      -21.473       -3.282       15.792       20.162        6.169      249.380      406.493       38.060        0.312        0.035       74.344        6.628        0.008      344.015       20.534      861.673
07/18/2014  04:20:00      -64.664       19.984       -6.171       15.368       10.603        9.041      236.166      112.423       81.733        0.252        0.022       67.682        5.736        0.007      343.946       20.417      861.685
07/18/2014  04:21:00      -84.072        5.819      -10.785       17.034       23.042       12.077      290.162      530.914      145.851        0.409        0.048       84.273        9.035        0.011      344.006       20.519      861.702
07/18/2014  04:22:00      -26.181      -15.113       -7.607       30.957       13.225       12.899      958.310      174.898      166.378        0.114        0.065       30.230       19.375        0.411      343.831       20.223      861.712
07/18/2014  04:23:00       -6.587      -30.322      -13.150        9.681        7.941        8.123       93.731       63.058       65.978        0.068        0.011       31.029        1.615        0.003      344.079       20.646      861.706
07/18/2014  04:24:00      -38.013      -22.277       -6.486       16.957       10.154        5.241      287.552      103.112       27.470        0.120        0.021       44.060        3.322        0.006      344.177       20.808      861.716
07/18/2014  04:25:00      -98.266      -14.434       -8.764       30.084       22.636       17.880      905.021      512.391      319.698        0.584        0.087       99.321       11.038        0.012      343.883       20.310      861.732
07/18/2014  04:26:00      -66.527      -31.552       -0.475       30.803       22.606       12.545      948.797      511.015      157.384        0.352        0.081       73.630       14.051        0.036      343.861       20.271      861.733
07/18/2014  04:27:00      -20.872      -14.241        3.725       20.072       14.249       13.315      402.895      203.037      177.286        0.072        0.039       25.267       11.373        0.203      343.782       20.136      861.750
07/18/2014  04:28:00      -73.136       -3.221       -3.889       34.386       23.693       17.037     1182.415      561.365      290.254        0.370        0.102       73.207       15.770        0.046      343.711       20.014      861.773
07/18/2014  04:29:00      -48.471       -7.821       -1.817       30.161       16.199        9.344      909.714      262.415       87.318        0.184        0.063       49.098       11.476        0.055      343.651       19.912      861.782
07/18/2014  04:30:00      -15.506       -4.560        2.984       12.012       13.312        9.275      144.297      177.208       86.023        0.034        0.020       16.162        6.746        0.174      343.738       20.060      861.798
07/18/2014  04:31:00      -29.882      -20.288        0.663       18.835       16.960       12.265      354.755      287.650      150.434        0.105        0.040       36.118       13.329        0.136      343.770       20.117      861.819
07/18/2014  04:32:00      -44.539       -7.769       -1.859       24.242       14.335       13.716      587.660      205.496      188.117        0.151        0.049       45.212       12.465        0.076      343.637       19.888      861.820
07/18/2014  04:33:00      -48.396      -12.075       -5.183       29.656       25.046       19.203      879.453      627.309      368.770        0.219        0.094       49.880       15.652        0.098      343.653       19.915      861.818
07/18/2014  04:34:00     -111.206      -46.277      -13.081       15.273       20.633       12.723      233.278      425.729      161.877        0.775        0.041      120.450       11.071        0.008      343.626       19.871      861.810
07/18/2014  04:35:00     -114.198      -24.436       -7.401       31.580       21.368       16.651      997.311      456.572      277.264        0.771        0.087      116.783       13.128        0.013      343.643       19.897      861.812
07/18/2014  04:36:00     -104.095       -1.181       -6.047       34.048       26.544       19.714     1159.238      704.602      388.656        0.656        0.113      104.101       17.626        0.029      343.615       19.851      861.826
07/18/2014  04:37:00     -131.635       21.759      -14.268       37.970       27.142       21.960     1441.750      736.691      482.261        1.033        0.133      133.422       14.452        0.012      343.699       19.994      861.841
07/18/2014  04:38:00     -163.264       26.928      -19.259       31.598       31.285       24.049      998.429      978.774      578.356        1.515        0.128      165.470       16.328        0.010      343.772       20.118      861.848
07/18/2014  04:39:00     -153.172       42.729       -3.017       43.012       25.901       16.935     1850.026      670.848      286.781        1.405        0.140      159.020       11.926        0.006      343.867       20.282      861.855
07/18/2014  04:40:00     -128.605       42.673       -5.462       39.422       24.659       19.854     1554.061      608.070      394.187        1.047        0.128      135.500       15.388        0.013      343.923       20.376      861.848
07/18/2014  04:41:00     -112.497       26.796       -7.778       26.257       20.016       13.281      689.449      400.629      176.391        0.735        0.063      115.644        6.819        0.003      343.956       20.433      861.833
07/18/2014  04:42:00      -58.887       -1.166       -2.627       33.204       32.421       21.540     1102.530     1051.112      463.987        0.305        0.131       58.899       17.344        0.087      343.867       20.282      861.833
07/18/2014  04:43:00       -3.522        0.206        9.340       24.415       15.557       13.344      596.098      242.007      178.061        0.056        0.051        3.528       12.298       12.152      343.878       20.299      861.838
07/18/2014  04:44:00       -1.580        5.226        6.545       16.583       14.327       14.642      274.985      205.277      214.385        0.038        0.035        5.460        5.598        1.051      343.870       20.286      861.848
07/18/2014  04:45:00      -15.472       -7.950        0.383       10.135        9.360        9.674      102.726       87.619       93.586        0.029        0.014       17.395        6.151        0.125      343.841       20.235      861.858
07/18/2014  04:46:00      -80.105      -45.692       -1.383       27.395       16.582       13.185      750.469      274.972      173.856        0.485        0.060       92.220        7.464        0.007      343.715       20.021      861.866
07/18/2014  04:47:00      -50.923      -41.663        1.120       24.920       19.798       14.503      621.000      391.959      210.351        0.278        0.061       65.795        9.786        0.022      343.715       20.021      861.877
07/18/2014  04:48:00      -61.633      -58.488        1.251       25.233       21.900       17.057      636.717      479.628      290.931        0.431        0.070       84.967       15.460        0.033      343.863       20.274      861.878
07/18/2014  04:49:00      -33.826      -25.522        8.893       41.458       22.545       16.974     1718.791      508.257      288.120        0.219        0.126       42.374       21.434        0.256      343.845       20.243      861.871
07/18/2014  04:50:00      -30.599      -39.050        7.080       31.109       27.420       18.280      967.768      751.877      334.173        0.228        0.103       49.610       15.088        0.092      343.836       20.227      861.871
07/18/2014  04:51:00      -39.197      -42.938       -0.543       32.815       28.163       18.214     1076.812      793.139      331.737        0.279        0.110       58.138       13.463        0.054      343.824       20.208      861.874
07/18/2014  04:52:00      -38.997      -43.959       -3.906       26.582       24.615       15.908      706.605      605.903      253.077        0.252        0.078       58.764       11.764        0.040      343.808       20.181      861.875
07/18/2014  04:53:00      -67.625      -46.034       -6.083       16.436       20.766       12.545      270.147      431.208      157.380        0.379        0.043       81.806        7.811        0.009      343.858       20.268      861.869
07/18/2014  04:54:00      -73.834      -22.991       -6.933       13.606       14.309       10.081      185.123      204.738      101.625        0.326        0.025       77.331        6.513        0.007      343.903       20.342      861.874
07/18/2014  04:55:00     -100.306      -25.242       -9.926       17.457       20.533       13.086      304.734      421.623      171.240        0.585        0.045      103.433        9.503        0.008      343.867       20.280      861.888
07/18/2014  04:56:00     -106.245      -22.562       -5.914       17.764       13.282       10.569      315.567      176.407      111.711        0.622        0.030      108.614       10.568        0.009      343.798       20.163      861.903
07/18/2014  04:57:00      -76.666      -26.891       -2.095       18.806       16.825        9.845      353.672      283.066       96.927        0.367        0.037       81.245        8.718        0.012      343.739       20.064      861.904
07/18/2014  04:58:00     -110.440      -34.558       -2.589       21.704       19.098       12.210      471.046      364.722      149.096        0.719        0.049      115.720        6.548        0.003      343.723       20.033      861.905
07/18/2014  04:59:00      -59.556      -40.154        2.311       27.081       16.051       13.167      733.366      257.619      173.357        0.316        0.058       71.828       10.579        0.022      343.684       19.967      861.903
07/18/2014  05:00:00      -41.734      -47.986        3.900       26.267       15.500       16.015      689.937      240.237      256.465        0.262        0.059       63.596       13.808        0.047      343.793       20.155      861.914
07/18/2014  05:01:00      -50.315      -55.717       -8.818       19.541       15.797       12.720      381.834      249.533      161.793        0.325        0.040       75.073        7.612        0.010      343.882       20.307      861.924
07/18/2014  05:02:00      -44.572      -47.352       -7.730       17.096       21.792       15.323      292.262      474.877      234.799        0.265        0.050       65.029       10.104        0.024      343.905       20.347      861.938
07/18/2014  05:03:00      -84.749      -80.428       -4.236       57.340       38.371       24.055     3287.840     1472.357      578.627        0.950        0.267      116.838       33.042        0.080      343.885       20.311      861.942
07/18/2014  05:04:00      -99.931      -96.946       -4.277       30.131       32.760       19.065      907.872     1073.197      363.479        1.087        0.117      139.229       19.599        0.020      343.794       20.156      861.938
07/18/2014  05:05:00      -57.755      -72.788       -3.568       34.725       34.241       20.420     1205.809     1172.413      416.983        0.572        0.140       92.918       18.602        0.040      343.761       20.100      861.935
07/18/2014  05:06:00      -53.517      -75.921       -4.686       29.877       36.599       20.117      892.622     1339.496      404.713        0.564        0.132       92.888       22.781        0.060      343.837       20.229      861.929
07/18/2014  05:07:00      -70.271      -56.955       -0.618       39.913       32.108       22.959     1593.042     1030.941      527.099        0.567        0.158       90.453       20.329        0.051      343.820       20.202      861.937
07/18/2014  05:08:00      -83.584      -78.696       -1.467       29.158       23.120       18.910      850.211      534.527      357.582        0.746        0.087      114.801       16.777        0.021      343.822       20.206      861.939
07/18/2014  05:09:00      -69.555      -54.788       -2.476       39.863       26.255       15.483     1589.026      689.345      239.731        0.518        0.126       88.542       11.107        0.016      343.841       20.237      861.941
07/18/2014  05:10:00      -37.095      -26.654        6.557       40.943       24.871       21.237     1676.369      618.556      451.006        0.244        0.137       45.678       17.824        0.152      343.759       20.098      861.943
07/18/2014  05:11:00      -56.628      -60.353       -2.797       42.613       35.214       17.174     1815.874     1240.025      294.958        0.510        0.168       82.760       21.777        0.069      343.819       20.201      861.942
07/18/2014  05:12:00      -83.980      -54.549       -0.105       33.717       32.106       21.325     1136.821     1030.764      454.760        0.632        0.131      100.141       20.930        0.044      343.831       20.221      861.952
07/18/2014  05:13:00      -54.199      -32.599        0.575       41.377       24.775       19.788     1712.036      613.825      391.553        0.336        0.136       63.247       10.954        0.030      343.816       20.193      861.984
07/18/2014  05:14:00      -48.076      -23.004        2.909       40.926       19.608       20.630     1674.929      384.456      425.578        0.267        0.124       53.296       20.999        0.155      343.772       20.117      862.005
07/18/2014  05:15:00      -45.465      -24.681        8.899       26.008       20.725       15.225      676.392      429.506      231.790        0.205        0.067       51.732       13.594        0.069      343.750       20.082      862.018
07/18/2014  05:16:00      -56.761      -15.721       -7.552       34.435       17.414       13.807     1185.739      303.250      190.637        0.260        0.084       58.897        9.616        0.027      343.830       20.215      862.036
07/18/2014  05:17:00      -17.669      -18.265        5.052       21.716       14.368       11.486      471.572      206.452      131.931        0.074        0.040       25.413        5.476        0.046      343.759       20.098      862.034
07/18/2014  05:18:00      -40.895      -37.953       -0.394       24.016       16.299       13.570      576.771      265.669      184.146        0.207        0.051       55.792       15.198        0.074      343.802       20.170      862.046
07/18/2014  05:19:00      -39.815      -41.250        2.971       34.542       35.809       17.979     1193.175     1282.256      323.234        0.305        0.140       57.331       24.898        0.189      343.787       20.145      862.063
07/18/2014  05:20:00      -40.523      -40.091       -1.078       15.964       17.065       10.066      254.861      291.218      101.328        0.195        0.032       57.004        7.323        0.017      343.842       20.239      862.071
07/18/2014  05:21:00        1.389      -47.707       -4.435       10.624       15.322       11.889      112.865      234.757      141.355        0.139        0.024       47.727        8.673        0.033      343.874       20.293      862.076
07/18/2014  05:22:00       -6.345      -70.989       -9.519       28.454       21.231       15.325      809.615      450.750      234.842        0.333        0.075       71.272        9.180        0.017      343.881       20.306      862.086
07/18/2014  05:23:00      -61.376      -50.325       -8.115       20.794       12.723        7.846      432.399      161.866       61.557        0.351        0.033       79.370        5.594        0.005      343.860       20.268      862.096
07/18/2014  05:24:00      -55.848      -45.952        4.040       25.410       26.004       18.455      645.660      676.204      340.594        0.345        0.083       72.322       14.439        0.040      343.825       20.209      862.100
07/18/2014  05:25:00      -17.529      -19.724       13.200       26.495       25.128       16.140      701.971      631.439      260.489        0.123        0.080       26.388       10.786        0.167      343.789       20.148      862.099
07/18/2014  05:26:00      -51.879      -45.329        5.355       39.586       24.188       21.478     1567.076      585.056      461.311        0.369        0.131       68.892       23.501        0.116      343.747       20.077      862.089
07/18/2014  05:27:00      -65.217      -57.699        4.245       40.962       33.535       24.054     1677.850     1124.591      578.605        0.549        0.169       87.077       23.224        0.071      343.642       19.898      862.081
07/18/2014  05:28:00      -76.290      -64.466        3.097       32.139       39.747       21.209     1032.908     1579.863      449.825        0.652        0.153       99.880       12.233        0.015      343.673       19.949      862.072
07/18/2014  05:29:00      -21.232      -29.013        6.257       19.389       22.943       20.177      375.922      526.399      407.120        0.132        0.065       35.952       10.592        0.087      343.662       19.931      862.076
07/18/2014  05:30:00       -1.561      -89.889       10.718       18.000       20.306       14.617      324.009      412.338      213.661        0.457        0.048       89.902       11.348        0.016      343.814       20.190      862.090
07/18/2014  05:31:00       21.755       -1.854       18.949       14.629       23.935       11.988      214.015      572.878      143.710        0.088        0.047       21.834       10.953        0.252      343.770       20.115      862.112
07/18/2014  05:32:00       12.075       21.060       14.636       16.875       16.296       10.374      284.755      265.570      107.626        0.073        0.033       24.276        6.397        0.069      343.642       19.898      862.149
07/18/2014  05:33:00       14.726       69.275       -9.192       12.682       13.741        8.106      160.845      188.822       65.708        0.276        0.021       70.823        3.033        0.002      343.628       19.874      862.172
07/18/2014  05:34:00        0.705       58.263       -5.904        8.322       15.224        8.487       69.259      231.776       72.021        0.190        0.019       58.268        6.166        0.011      343.586       19.802      862.183
07/18/2014  05:35:00        2.155       41.198       -1.542        7.903       10.066        5.757       62.459      101.332       33.143        0.095        0.010       41.254        5.114        0.015      343.605       19.834      862.192
07/18/2014  05:36:00      -25.084       19.436       -2.416       16.884        9.988        4.318      285.084       99.752       18.642        0.071        0.020       31.733        5.214        0.027      343.626       19.868      862.207
07/18/2014  05:37:00      -41.727       -7.149       -6.527       10.082       15.308        6.960      101.644      234.327       48.440        0.111        0.019       42.335        4.312        0.010      343.496       19.646      862.211
07/18/2014  05:38:00      -79.495      -37.010       -3.471       29.217       18.085       11.544      853.650      327.062      133.267        0.451        0.066       87.688        5.143        0.003      343.507       19.667      862.211
07/18/2014  05:39:00      -49.237      -43.390       -3.941       34.104       16.847       13.224     1163.061      283.825      174.864        0.297        0.081       65.627       15.140        0.053      343.516       19.684      862.204
07/18/2014  05:40:00      -61.639      -22.147       -0.081       24.275       20.012       13.328      589.275      400.481      177.643        0.273        0.058       65.497        9.964        0.023      343.486       19.632      862.200
07/18/2014  05:41:00      -31.701        0.503        4.645       21.052       14.773       11.243      443.169      218.249      126.401        0.091        0.039       31.705       12.589        0.158      343.452       19.574      862.193
07/18/2014  05:42:00      -49.505        2.717       -1.197       15.767       13.374       11.735      248.586      178.860      137.716        0.151        0.028       49.579       10.576        0.046      343.433       19.541      862.198
07/18/2014  05:43:00      -63.070        5.277       -1.142       13.750       16.149        7.029      189.050      260.780       49.408        0.225        0.025       63.290        6.383        0.010      343.550       19.743      862.208
07/18/2014  05:44:00      -55.338       11.737        0.145       18.191        9.633        6.997      330.929       92.800       48.957        0.184        0.024       56.569        8.533        0.023      343.534       19.712      862.212
07/18/2014  05:45:00      -40.805       12.868       -0.786       16.081       11.570        6.775      258.593      133.856       45.896        0.113        0.022       42.786        4.647        0.012      343.503       19.659      862.210
07/18/2014  05:46:00      -40.971       27.937       -5.379        7.474       17.806        6.794       55.857      317.037       46.164        0.145        0.021       49.589        5.164        0.011      343.490       19.637      862.210
07/18/2014  05:47:00      -36.965       26.817       -2.820       10.438       12.070        7.301      108.962      145.695       53.301        0.120        0.015       45.668        5.767        0.016      343.528       19.702      862.205
07/18/2014  05:48:00      -39.851        6.569       -2.775       15.284        8.603        6.244      233.609       74.003       38.982        0.099        0.017       40.389        1.160        0.001      343.510       19.673      862.206
07/18/2014  05:49:00      -45.739       -5.738       -1.518       10.347       10.554        7.104      107.069      111.385       50.471        0.120        0.013       46.098        6.812        0.022      343.517       19.684      862.207
07/18/2014  05:50:00      -56.591      -15.697       -3.843       10.057       13.695        6.681      101.151      187.555       44.640        0.190        0.017       58.727        4.460        0.006      343.503       19.660      862.217
07/18/2014  05:51:00      -58.055      -40.966        1.129       13.259       15.662        9.394      175.794      245.301       88.244        0.278        0.025       71.054        6.488        0.008      343.425       19.528      862.241
07/18/2014  05:52:00      -52.922        2.384       -4.347       20.866       24.111       10.468      435.382      581.356      109.589        0.198        0.056       52.976        8.100        0.023      343.350       19.401      862.256
07/18/2014  05:53:00      -43.608        3.428        0.396       17.915       14.414        3.638      320.950      207.759       13.238        0.123        0.027       43.743        4.247        0.009      343.478       19.617      862.264
07/18/2014  05:54:00       -6.741      -16.720       -8.463        9.454        9.419        4.446       89.387       88.716       19.766        0.030        0.010       18.028        1.807        0.010      343.511       19.674      862.277
07/18/2014  05:55:00      -29.851      -12.118       -2.709       17.710       10.175        6.733      313.647      103.540       45.336        0.075        0.023       32.217        5.337        0.027      343.591       19.811      862.289
07/18/2014  05:56:00      -15.650      -11.397        6.360       17.783       12.789        9.158      316.227      163.552       83.875        0.049        0.028       19.360        5.060        0.068      343.565       19.767      862.304
07/18/2014  05:57:00      -39.486       -3.497       -1.818       20.530       16.929       12.773      421.496      286.575      163.148        0.122        0.044       39.641       13.876        0.123      343.599       19.823      862.318
07/18/2014  05:58:00      -39.547       53.087       -8.337       15.496       19.281       11.042      240.124      371.738      121.931        0.259        0.037       66.198       13.528        0.042      343.546       19.731      862.319
07/18/2014  05:59:00      -37.041       44.993      -10.334        6.378       10.679        5.550       40.680      114.041       30.799        0.184        0.009       58.279        5.026        0.007      343.589       19.807      862.325
07/18/2014  06:00:00      -23.958       26.203       -3.685        9.725       12.385        6.003       94.581      153.390       36.041        0.078        0.014       35.505        5.087        0.021      343.721       20.031      862.320
07/18/2014  06:01:00      -16.223       -5.652        0.999        6.101       10.319        5.601       37.223      106.487       31.376        0.024        0.009       17.179        5.092        0.088      343.624       19.868      862.322
07/18/2014  06:02:00      -38.516       -6.755       -2.129       12.736        6.646        5.616      162.207       44.165       31.537        0.089        0.012       39.104        5.899        0.023      343.411       19.503      862.338
07/18/2014  06:03:00      -54.961       -7.476       -5.095       10.352        8.224        7.526      107.162       67.640       56.638        0.167        0.012       55.467        5.334        0.009      343.347       19.395      862.356
07/18/2014  06:04:00      -59.004       -7.211       -1.933       12.740       13.083        7.077      162.295      171.164       50.077        0.196        0.019       59.443        4.704        0.006      343.409       19.500      862.364
07/18/2014  06:05:00      -53.873      -41.231       -2.378       15.403       16.382       10.587      237.262      268.385      112.081        0.261        0.031       67.841        6.529        0.009      343.500       19.656      862.365
07/18/2014  06:06:00      -54.201      -44.367        0.345       36.154       17.291       13.949     1307.094      298.966      194.583        0.335        0.090       70.044       10.386        0.022      343.578       19.787      862.359
07/18/2014  06:07:00      -67.442      -62.036        0.469       25.092       25.118       14.432      629.612      630.916      208.282        0.493        0.073       91.635       11.021        0.014      343.587       19.803      862.350
07/18/2014  06:08:00      -68.280      -74.976        1.150       25.850       35.211       14.204      668.216     1239.786      201.760        0.620        0.105      101.408       11.592        0.013      343.637       19.889      862.345
07/18/2014  06:09:00      -85.511      -59.980        5.347       31.111       28.656       19.597      967.865      821.139      384.035        0.656        0.109      104.450       15.823        0.023      343.630       19.876      862.352
07/18/2014  06:10:00      -25.027      -29.377        5.853       46.111       28.868       19.493     2126.235      833.339      379.988        0.243        0.167       38.592       17.817        0.213      343.591       19.809      862.364
07/18/2014  06:11:00      -38.099      -37.469      -12.120       29.050       37.498       22.702      843.910     1406.089      515.358        0.288        0.138       53.436       24.362        0.208      343.644       19.901      862.380
07/18/2014  06:12:00        5.206      -15.448       17.753       12.912       27.808       10.277      166.728      773.299      105.626        0.081        0.052       16.301       12.460        0.584      343.683       19.967      862.387
07/18/2014  06:13:00       21.928       38.381       10.866       20.792       20.886       15.442      432.294      436.232      238.459        0.159        0.055       44.203       10.142        0.053      343.673       19.949      862.396
07/18/2014  06:14:00      -20.409       20.509       -0.070       21.169       22.746       18.829      448.120      517.368      354.550        0.108        0.066       28.933       11.811        0.167      343.658       19.925      862.394
07/18/2014  06:15:00      -56.058      -40.008       -4.959       18.967       16.874       10.460      359.748      284.748      109.420        0.276        0.038       68.870        3.562        0.003      343.718       20.026      862.385
07/18/2014  06:16:00      -32.205      -35.258        6.905       44.780       22.290       18.072     2005.283      496.848      326.585        0.258        0.141       47.752       13.329        0.078      343.724       20.035      862.381
07/18/2014  06:17:00      -17.754      -51.064        2.939       22.983       37.563       18.661      528.235     1410.944      348.227        0.261        0.114       54.062       18.074        0.112      343.711       20.013      862.384
07/18/2014  06:18:00      -56.675      -51.971       -2.467       24.904       31.277       16.263      620.221      978.269      264.494        0.389        0.093       76.897       13.584        0.031      343.654       19.917      862.386
07/18/2014  06:19:00      -34.896      -62.532        2.361       29.956       30.766       14.250      897.368      946.538      203.072        0.359        0.102       71.610       15.338        0.046      343.675       19.954      862.394
07/18/2014  06:20:00      -45.933      -56.854       -4.371       21.926       34.541       18.578      480.740     1193.064      345.136        0.369        0.101       73.091       12.395        0.029      343.629       19.873      862.401
07/18/2014  06:21:00      -55.582      -73.740       -0.145       27.080       48.718       18.335      733.342     2373.423      336.157        0.598        0.172       92.341       17.018        0.034      343.636       19.887      862.413
07/18/2014  06:22:00      -49.038      -88.416        1.015       26.374       33.253       16.272      695.590     1105.756      264.782        0.614        0.103      101.105       10.162        0.010      343.623       19.865      862.414
07/18/2014  06:23:00      -66.268      -82.462       -7.436       28.349       36.918       20.649      803.665     1362.921      426.396        0.692        0.130      105.790       14.221        0.018      343.603       19.830      862.412
07/18/2014  06:24:00      -63.920      -83.774       -1.212       41.157       20.094       20.382     1693.872      403.762      415.412        0.681        0.126      105.375       19.998        0.036      343.606       19.834      862.413
07/18/2014  06:25:00      -59.700      -79.702        3.034       39.010       40.079       24.476     1521.760     1606.330      599.057        0.683        0.186       99.582       19.376        0.038      343.617       19.855      862.407
07/18/2014  06:26:00      -60.921      -62.340        6.432       45.047       49.165       29.206     2029.276     2417.166      852.964        0.647        0.265       87.165       30.634        0.124      343.629       19.875      862.405
07/18/2014  06:27:00      -85.074      -72.905       -0.349       34.265       36.937       22.712     1174.067     1364.377      515.834        0.780        0.153      112.039       19.545        0.030      343.533       19.711      862.401
07/18/2014  06:28:00      -74.197      -57.930       -7.155       32.152       35.181       20.372     1033.765     1237.706      415.032        0.580        0.134       94.134       14.374        0.023      343.492       19.642      862.389
07/18/2014  06:29:00      -54.685      -20.458       -0.189       32.762       24.317       15.111     1073.362      591.293      228.337        0.265        0.095       58.387       16.384        0.079      343.471       19.606      862.383
07/18/2014  06:30:00      -23.266      -27.597        6.936       24.851       20.311       15.187      617.576      412.550      230.655        0.131        0.063       36.095       14.433        0.160      343.481       19.623      862.384
07/18/2014  06:31:00      -42.212      -19.517        1.219       27.081       17.849       20.323      733.373      318.574      413.032        0.181        0.073       46.506       16.637        0.128      343.485       19.631      862.380
07/18/2014  06:32:00      -88.106      -19.256       -7.424       28.908       21.635       14.144      835.684      468.088      200.043        0.485        0.075       90.185       12.085        0.018      343.379       19.450      862.380
07/18/2014  06:33:00      -77.186        1.654        4.907       53.874       29.925       22.389     2902.440      895.482      501.271        0.514        0.215       77.204       24.223        0.098      343.318       19.345      862.378
07/18/2014  06:34:00     -167.278      -20.478       -9.802       39.791       35.297       24.573     1583.288     1245.875      603.809        1.596        0.172      168.527       22.639        0.018      343.218       19.175      862.380
07/18/2014  06:35:00     -119.984      -48.959       -2.652       29.651       31.464       21.356      879.201      990.001      456.064        0.956        0.116      129.588        9.376        0.005      343.250       19.230      862.386
07/18/2014  06:36:00      -66.696      -38.317       -5.562       40.808       24.970       17.835     1665.316      623.501      318.077        0.428        0.130       76.919       15.377        0.040      343.304       19.321      862.385
07/18/2014  06:37:00      -81.323        2.235        4.950       36.536       22.879       15.429     1334.889      523.458      238.049        0.437        0.105       81.353       16.279        0.040      343.286       19.291      862.376
07/18/2014  06:38:00      -96.179        1.847       -4.373       26.552       18.025       17.996      705.029      324.896      323.861        0.531        0.068       96.196       14.854        0.024      343.284       19.289      862.382
07/18/2014  06:39:00      -92.127        3.966       -4.746       34.405       17.913       17.458     1183.696      320.876      304.774        0.517        0.090       92.213       18.193        0.039      343.267       19.260      862.394
07/18/2014  06:40:00      -88.399      -15.082       -5.085       33.517       19.685       15.953     1123.395      387.486      254.503        0.492        0.088       89.676       11.308        0.016      343.225       19.187      862.403
07/18/2014  06:41:00      -64.411       -8.634        2.595       34.888       22.317       17.154     1217.140      498.055      294.274        0.312        0.100       64.988       19.395        0.089      343.308       19.327      862.405
07/18/2014  06:42:00      -30.606       -5.879       -0.330       15.062       13.269       12.028      226.858      176.078      144.683        0.076        0.027       31.165        9.930        0.102      343.324       19.355      862.401
07/18/2014  06:43:00      -71.228       -2.509       -5.966       24.234       16.930       12.886      587.263      286.615      166.043        0.308        0.052       71.272       13.017        0.033      343.348       19.397      862.395
07/18/2014  06:44:00      -57.500       -9.632        0.344       17.776       19.986       12.502      315.974      399.450      156.309        0.214        0.044       58.301        4.581        0.006      343.330       19.367      862.402
07/18/2014  06:45:00      -48.678      -17.482       -5.167       12.044       13.124        9.989      145.060      172.231       99.772        0.156        0.021       51.722        7.803        0.023      343.436       19.548      862.400
07/18/2014  06:46:00      -55.551      -33.330        0.092       22.923       19.138       11.250      525.455      366.245      126.561        0.261        0.051       64.783        8.504        0.017      343.498       19.653      862.400
07/18/2014  06:47:00      -68.048      -40.466       -4.386       12.837        9.749        8.457      164.790       95.048       71.529        0.331        0.017       79.171        5.936        0.006      343.510       19.673      862.410
07/18/2014  06:48:00      -51.095      -34.808       -2.097       21.548       17.327       14.694      464.309      300.222      215.908        0.240        0.049       61.824       11.876        0.037      343.591       19.809      862.420
07/18/2014  06:49:00      -34.596      -35.485        6.725       42.021       22.442       22.625     1765.784      503.627      511.883        0.264        0.139       49.558       28.560        0.332      343.705       20.006      862.418
07/18/2014  06:50:00      -75.327      -80.196       -1.190       36.499       27.433       17.423     1332.144      752.585      303.562        0.725        0.119      110.026       17.546        0.025      343.610       19.843      862.422
07/18/2014  06:51:00      -73.984      -67.180        2.074       33.450       26.817       22.916     1118.888      719.150      525.130        0.618        0.118       99.934       18.125        0.033      343.628       19.874      862.439
07/18/2014  06:52:00      -33.885      -40.186       -0.132       27.550       28.021       14.992      758.998      785.188      224.772        0.227        0.088       52.565       10.257        0.038      343.681       19.962      862.448
07/18/2014  06:53:00      -81.181      -40.103        1.375       37.565       33.020       19.110     1411.099     1090.345      365.209        0.553        0.143       90.546       19.598        0.047      343.664       19.935      862.464
07/18/2014  06:54:00      -62.400      -15.125        4.546       27.159       16.897       16.246      737.603      285.506      263.947        0.271        0.064       64.207        6.517        0.010      343.672       19.946      862.490
07/18/2014  06:55:00      -29.507      -19.362       15.592       33.270       22.660       14.757     1106.870      513.479      217.778        0.166        0.092       35.293       18.650        0.279      343.879       20.301      862.493
07/18/2014  06:56:00      -47.830      -38.014        0.907       26.493       30.901       16.116      701.891      954.875      259.714        0.282        0.096       61.096       13.165        0.046      343.745       20.073      862.506
07/18/2014  06:57:00      -75.895      -44.329       -5.108       25.237       14.988       11.442      636.922      224.651      130.921        0.437        0.050       87.892       11.716        0.018      343.733       20.053      862.516
07/18/2014  06:58:00      -86.385      -44.920       -0.402       35.927       27.996       14.173     1290.763      783.765      200.880        0.588        0.114       97.366        7.910        0.007      343.816       20.195      862.506
07/18/2014  06:59:00      -93.321      -23.164       -6.925       19.841       29.145       14.703      393.670      849.405      216.169        0.538        0.073       96.153       10.347        0.012      343.825       20.208      862.508
07/18/2014  07:00:00      -53.249      -39.131        1.978       29.206       33.842       16.776      853.009     1145.297      281.437        0.332        0.114       66.081       15.429        0.055      343.844       20.241      862.508
07/18/2014  07:01:00      -91.782      -66.206        1.400       37.278       35.861       22.782     1389.673     1285.996      519.033        0.800        0.160      113.169       23.860        0.044      343.951       20.423      862.501
07/18/2014  07:02:00      -79.668      -22.748        3.815       35.240       23.536       18.720     1241.847      553.933      350.457        0.451        0.107       82.852       14.779        0.032      343.994       20.496      862.510
07/18/2014  07:03:00      -32.101      -49.093        2.650       25.314       20.509       13.688      640.783      420.631      187.369        0.235        0.062       58.657       12.118        0.043      344.055       20.604      862.503
07/18/2014  07:04:00      -29.758      -38.935       -0.429       28.254       23.159       12.734      798.280      536.354      162.165        0.195        0.075       49.004       10.980        0.050      344.135       20.741      862.506
07/18/2014  07:05:00      -76.266      -45.286      -14.656       16.750       29.309       13.141      280.550      859.026      172.698        0.470        0.066       88.698       10.988        0.015      344.160       20.780      862.512
07/18/2014  07:06:00      -79.958      -30.421       -2.578       35.099       27.122       18.762     1231.944      735.619      352.015        0.482        0.116       85.550       20.162        0.056      344.164       20.787      862.519
07/18/2014  07:07:00     -101.878      -56.251       -9.423       18.728       25.368       13.706      350.732      643.551      187.851        0.741        0.059      116.376        9.515        0.007      344.258       20.949      862.535
07/18/2014  07:08:00      -55.002      -33.570       -4.278       23.340       22.126       10.873      544.741      489.568      118.222        0.266        0.058       64.438       12.314        0.037      344.331       21.074      862.540
07/18/2014  07:09:00      -12.645      -16.153       12.278       17.115       20.784       19.546      292.914      431.962      382.034        0.084        0.055       20.514       18.905        0.849      344.665       21.646      862.556
07/18/2014  07:10:00      -42.665       -7.309       -3.837       11.556       14.444       10.042      133.541      208.643      100.846        0.117        0.022       43.286        2.447        0.003      344.432       21.246      862.563
07/18/2014  07:11:00      -29.347      -11.509       -3.593       12.433       11.413        7.219      154.577      130.264       52.113        0.067        0.017       31.523        5.774        0.034      344.440       21.258      862.573
07/18/2014  07:12:00      -19.207       -6.339        7.287       15.414        7.475       11.281      237.584       55.873      127.253        0.044        0.021       20.226        8.189        0.164      344.776       21.834      862.580
07/18/2014  07:13:00      -19.893      -22.510        5.999       10.530       34.994       11.326      110.871     1224.562      128.277        0.120        0.073       30.041        9.807        0.107      344.674       21.661      862.586
07/18/2014  07:14:00      -55.564     -122.417       -1.831       24.641       26.268       12.823      607.162      690.009      164.432        0.977        0.073      134.437       11.077        0.007      344.441       21.259      862.577
07/18/2014  07:15:00      -46.878     -131.134       -5.598       22.559       16.758       13.948      508.896      280.835      194.550        1.020        0.049      139.261        7.559        0.003      344.475       21.322      862.573
07/18/2014  07:16:00      -45.255      -66.493        8.242       37.731       33.015       24.827     1423.597     1089.958      616.357        0.483        0.156       80.433       26.167        0.106      344.542       21.433      862.572
07/18/2014  07:17:00      -42.153     -104.060       -3.233       13.905       15.051       11.382      193.345      226.547      129.547        0.658        0.027      112.273        3.760        0.001      344.511       21.381      862.567
07/18/2014  07:18:00      -78.132      -97.810       -1.249       29.231       26.403       20.988      854.459      697.114      440.492        0.883        0.100      125.185       18.379        0.022      344.580       21.501      862.565
07/18/2014  07:19:00      -83.276      -46.733        0.254       32.332       23.697       23.671     1045.384      561.557      560.316        0.564        0.108       95.493       18.980        0.040      344.609       21.550      862.555
07/18/2014  07:20:00      -65.700      -62.640       -3.861       21.303       20.706       15.539      453.818      428.752      241.456        0.469        0.056       90.776        9.073        0.010      344.590       21.518      862.560
07/18/2014  07:21:00      -40.802      -33.175       -3.055       23.069       28.788       15.990      532.174      828.734      255.692        0.220        0.081       52.587       16.742        0.101      344.680       21.670      862.556
07/18/2014  07:22:00      -45.376      -26.820       -9.630       24.174       20.090       10.759      584.369      403.621      115.766        0.199        0.055       52.709       12.437        0.056      344.695       21.698      862.555
07/18/2014  07:23:00      -61.869      -17.681        0.674       16.926       13.819       12.701      286.488      190.961      161.306        0.239        0.032       64.346       10.967        0.029      344.700       21.707      862.541
07/18/2014  07:24:00      -38.693      -22.906        3.329       14.148       19.285       11.767      200.152      371.899      138.467        0.137        0.036       44.965        9.779        0.047      344.782       21.845      862.554
07/18/2014  07:25:00      -28.595      -24.519        3.990       32.135       30.121       14.480     1032.682      907.261      209.660        0.179        0.107       37.668       14.624        0.151      344.766       21.818      862.554
07/18/2014  07:26:00      -50.820      -81.812       -3.376       30.407       30.691       17.713      924.557      941.958      313.753        0.573        0.109       96.311       14.682        0.023      344.707       21.716      862.568
07/18/2014  07:27:00      -60.269      -83.505       -5.393       40.083       38.262       17.537     1606.609     1463.947      307.542        0.701        0.169      102.983       18.718        0.033      344.726       21.749      862.575
07/18/2014  07:28:00      -58.401     -141.184        0.501       28.989       45.036       22.691      840.353     2028.204      514.877        1.336        0.169      152.786       21.014        0.019      344.731       21.759      862.601
07/18/2014  07:29:00      -81.699      -85.918       -3.897       35.139       47.636       24.016     1234.744     2269.179      576.776        0.908        0.204      118.560       19.341        0.027      344.709       21.719      862.608
07/18/2014  07:30:00      -89.739     -105.786        0.650       35.743       51.337       22.738     1277.569     2635.535      517.007        1.184        0.222      138.722       25.467        0.034      344.733       21.759      862.618
07/18/2014  07:31:00      -69.013      -68.246        9.621       41.624       37.935       24.853     1732.539     1439.085      617.656        0.665        0.189       97.058       15.637        0.026      344.779       21.837      862.615
07/18/2014  07:32:00      -63.865     -150.190        4.560       31.384       27.462       24.044      984.971      754.136      578.123        1.449        0.116      163.204       23.013        0.020      344.747       21.786      862.615
07/18/2014  07:33:00      -45.879     -100.065        7.301       33.537       41.859       21.722     1124.743     1752.180      471.831        0.776        0.167      110.081       16.897        0.024      344.843       21.949      862.611
07/18/2014  07:34:00      -57.530     -105.801       -5.498       30.886       29.882       20.003      953.971      892.908      400.131        0.839        0.112      120.431       13.499        0.013      344.848       21.959      862.618
07/18/2014  07:35:00      -59.994     -110.423        3.138       38.712       54.361       21.275     1498.593     2955.114      452.615        1.035        0.245      125.668       16.393        0.017      344.892       22.032      862.626
07/18/2014  07:36:00      -41.963     -101.621       -8.847       29.756       28.293       18.277      885.426      800.514      334.063        0.709        0.101      109.944       14.516        0.017      344.839       21.943      862.637
07/18/2014  07:37:00      -14.797      -54.357        4.920       13.583       24.879       14.265      184.509      618.985      203.480        0.210        0.050       56.335        7.550        0.018      344.864       21.984      862.651
07/18/2014  07:38:00      -21.749       -0.556        5.906       24.155       23.511       14.364      583.487      552.744      206.323        0.093        0.067       21.756       12.997        0.357      345.219       22.592      862.671
07/18/2014  07:39:00      -71.246      -15.930      -14.185       37.495       31.904       12.752     1405.902     1017.834      162.617        0.406        0.129       73.006       10.104        0.019      344.937       22.109      862.689
07/18/2014  07:40:00      -94.885      -53.367       -1.439       38.145       30.009       23.830     1455.073      900.520      567.849        0.739        0.146      108.863       19.146        0.031      344.962       22.155      862.700
07/18/2014  07:41:00      -40.348      -55.980        4.575       34.811       28.980       17.996     1211.818      839.843      323.874        0.358        0.119       69.005       19.053        0.076      344.995       22.210      862.709
07/18/2014  07:42:00      -14.215      -15.436        6.277       18.607       18.724        9.319      346.215      350.597       86.850        0.063        0.039       20.984        6.155        0.086      345.151       22.477      862.710
07/18/2014  07:43:00      -15.873      -43.147       -4.559       26.736       11.853        9.106      714.808      140.497       82.913        0.154        0.047       45.974        5.001        0.012      345.001       22.220      862.710
07/18/2014  07:44:00      -49.344       -3.054       -6.488       16.912       14.001       10.397      286.028      196.028      108.097        0.154        0.030       49.439        4.116        0.007      345.017       22.247      862.718
07/18/2014  07:45:00      -54.800      -21.273       -7.919       17.361       13.608       10.938      301.407      185.177      119.643        0.206        0.030       58.785        5.173        0.008      345.062       22.325      862.721
07/18/2014  07:46:00      -60.247       -2.608       -6.917       10.172        9.164        8.778      103.472       83.973       77.047        0.197        0.013       60.303        5.981        0.010      345.013       22.236      862.718
07/18/2014  07:47:00      -46.284      -20.647       -8.438       16.695       12.460       12.433      278.710      155.256      154.590        0.161        0.029       50.680       10.468        0.043      345.062       22.327      862.714
07/18/2014  07:48:00       -5.464      -21.089        9.981       10.850       10.773       10.290      117.718      116.054      105.875        0.046        0.017       21.785        8.590        0.155      345.230       22.613      862.702
07/18/2014  07:49:00      -23.782       -7.786       -4.669        9.932        8.926       12.370       98.637       79.665      153.008        0.049        0.017       25.024        7.639        0.093      345.235       22.620      862.697
07/18/2014  07:50:00      -15.753       -6.628      -16.444       12.265       12.602       10.060      150.430      158.817      101.196        0.049        0.021       17.090       10.036        0.345      345.276       22.689      862.692
07/18/2014  07:51:00      -16.867       -1.043        3.845       10.695       11.564       11.172      114.380      133.722      124.819        0.034        0.019       16.899        4.869        0.083      345.400       22.902      862.709
07/18/2014  07:52:00      -25.192        9.576        2.507       10.262       12.588       11.845      105.301      158.451      140.292        0.057        0.020       26.951        7.534        0.078      345.361       22.837      862.711
07/18/2014  07:53:00      -25.803      -12.344        3.070       20.833       13.648       15.162      433.998      186.257      229.881        0.084        0.043       28.604        9.809        0.118      345.429       22.953      862.726
07/18/2014  07:54:00      -46.913       13.044       -1.478       14.685       14.616       10.507      215.658      213.621      110.391        0.146        0.027       48.692       10.035        0.042      345.211       22.579      862.730
07/18/2014  07:55:00      -40.343        7.268       -0.974       12.648        8.139        9.018      159.959       66.240       81.317        0.099        0.015       40.993        5.397        0.017      345.209       22.576      862.751
07/18/2014  07:56:00      -27.384       20.003        2.528       17.042       14.472       16.116      290.428      209.448      259.711        0.096        0.038       33.912       12.789        0.142      345.626       23.291      862.768
07/18/2014  07:57:00      -24.941       25.907       15.869       25.122       20.724       28.465      631.140      429.475      810.276        0.171        0.094       35.961       15.591        0.188      345.721       23.456      862.789
07/18/2014  07:58:00        6.001       43.295       58.452       26.805       29.036       19.505      718.494      843.095      380.443        0.363        0.097       43.709       17.496        0.160      345.870       23.711      862.810
07/18/2014  07:59:00       14.216       28.721       37.976       31.007       25.908       25.281      961.415      671.236      639.116        0.237        0.114       32.046       22.882        0.510      345.898       23.757      862.823
07/18/2014  08:00:00        0.869        3.538       32.413       16.314       21.712       16.259      266.135      471.394      264.358        0.103        0.050        3.643       13.093       12.914      346.186       24.253      862.844
07/18/2014  08:01:00       -3.412       17.914       10.207       15.796       16.183       18.697      249.513      261.893      349.589        0.065        0.043       18.236       12.374        0.460      345.927       23.807      862.849
07/18/2014  08:02:00      -12.299       13.543       36.243       20.869       16.499       12.596      435.499      272.225      158.660        0.126        0.043       18.294        7.680        0.176      346.139       24.173      862.845
07/18/2014  08:03:00      -36.911       10.531        9.819       20.611       17.695       10.470      424.799      313.126      109.619        0.121        0.042       38.384       11.343        0.087      345.632       23.302      862.838
07/18/2014  08:04:00      -21.914      -13.006        4.980       17.740       16.324       11.972      314.718      266.482      143.324        0.070        0.036       25.483        7.665        0.090      345.530       23.126      862.822
07/18/2014  08:05:00      -27.081       -8.252       -2.927       11.758       10.581        9.231      138.257      111.956       85.216        0.057        0.017       28.311        2.412        0.007      345.405       22.912      862.814
07/18/2014  08:06:00      -39.327      -11.089      -11.794       20.852       18.291       14.886      434.790      334.578      221.592        0.140        0.050       40.861       12.401        0.092      345.443       22.976      862.808
07/18/2014  08:07:00      -21.353      -13.584        6.670       33.968       18.962       17.675     1153.851      359.541      312.415        0.126        0.091       25.308       14.037        0.308      345.734       23.477      862.805
07/18/2014  08:08:00      -27.123      -15.098        4.138       26.703       15.667       14.815      713.062      245.453      219.471        0.108        0.059       31.043       12.586        0.164      345.832       23.645      862.803
07/18/2014  08:09:00      -23.011       20.076       14.566       21.489       21.207       23.671      461.767      449.732      560.296        0.131        0.074       30.538       12.242        0.161      346.170       24.225      862.793
07/18/2014  08:10:00      -14.452       29.890       13.996       27.497       23.829       24.854      756.098      567.808      617.740        0.162        0.097       33.201       13.821        0.173      345.839       23.657      862.782
07/18/2014  08:11:00      -24.537       -7.793        2.562       16.248       15.189       16.935      264.001      230.696      286.798        0.073        0.039       25.745        9.888        0.148      345.778       23.550      862.773
07/18/2014  08:12:00      -32.163      -10.440       10.064       20.128       21.817       20.594      405.127      475.962      424.118        0.127        0.065       33.815       17.435        0.266      345.996       23.926      862.769
07/18/2014  08:13:00      -29.983        1.314        2.353       26.326       15.289       18.377      693.040      233.768      337.732        0.109        0.063       30.012       18.563        0.383      345.930       23.812      862.768
07/18/2014  08:14:00      -36.663      -12.579        5.153       15.951       15.446       17.542      254.424      238.585      307.736        0.116        0.040       38.761       11.870        0.094      345.837       23.653      862.763
07/18/2014  08:15:00      -23.603      -11.843        4.422       20.225       12.957       16.363      409.031      167.894      267.754        0.078        0.042       26.408       15.263        0.334      346.110       24.123      862.771
07/18/2014  08:16:00       -6.220       -1.800       17.763       17.741       18.823       19.533      314.726      354.318      381.551        0.070        0.053        6.475       11.268        3.028      346.597       24.960      862.770
07/18/2014  08:17:00      -42.988      -55.657        4.052       37.334       41.530       21.251     1393.796     1724.720      451.616        0.427        0.179       70.325       18.529        0.069      345.731       23.472      862.772
07/18/2014  08:18:00      -70.155       -8.544       -5.812       18.276       26.453       13.412      334.015      699.771      179.892        0.312        0.061       70.674       12.043        0.029      345.630       23.297      862.775
07/18/2014  08:19:00      -52.120      -76.409       -2.032       21.668       25.145       11.373      469.516      632.293      129.337        0.489        0.062       92.492       10.207        0.012      345.582       23.217      862.772
07/18/2014  08:20:00      -29.368      -86.117      -25.382       29.825       30.013       24.670      889.522      900.767      608.601        0.566        0.120       90.986       13.865        0.023      345.651       23.334      862.761
07/18/2014  08:21:00        2.207        1.892       30.209       24.777       22.633       24.568      613.888      512.238      603.587        0.133        0.086        2.907       14.993       26.601      346.799       25.308      862.757
07/18/2014  08:22:00      -22.138        6.572       25.010       20.205       22.132       24.845      408.241      489.807      617.284        0.134        0.076       23.093       19.502        0.713      346.528       24.841      862.761
07/18/2014  08:23:00      -15.991       15.613       57.847       14.810       22.493       19.495      219.342      505.920      380.051        0.248        0.055       22.349       17.530        0.615      346.669       25.083      862.758
07/18/2014  08:24:00      -23.118       14.678       24.204       13.106       14.892       15.567      171.777      221.773      242.343        0.099        0.032       27.384        7.769        0.080      346.520       24.828      862.750
07/18/2014  08:25:00      -11.012       -0.191       29.098       24.593       17.863       20.000      604.826      319.069      399.989        0.115        0.066       11.013       20.524        3.473      346.793       25.296      862.740
07/18/2014  08:26:00      -23.893      -14.479       12.792       26.095       18.861       13.644      680.927      355.719      186.171        0.108        0.061       27.938       11.553        0.171      346.400       24.620      862.729
07/18/2014  08:27:00      -21.221      -25.488       22.370       32.938       45.473       28.681     1084.879     2067.775      822.573        0.279        0.199       33.165       28.276        0.727      346.644       25.041      862.719
07/18/2014  08:28:00      -71.463      -91.302      -11.837       21.636       27.932       16.413      468.099      780.177      269.381        0.755        0.076      115.944       11.202        0.009      345.788       23.567      862.719
07/18/2014  08:29:00      -51.799      -66.120       -9.416       36.677       28.308       21.740     1345.238      801.367      472.614        0.488        0.131       83.994       21.341        0.065      345.933       23.818      862.708
07/18/2014  08:30:00      -24.000      -11.148        2.051       27.384       20.761       14.822      749.902      431.032      219.701        0.105        0.070       26.463        6.070        0.053      346.228       24.326      862.710
07/18/2014  08:31:00      -40.857      -33.952        1.263       29.224       30.298       17.249      854.054      917.953      297.541        0.245        0.103       53.123        9.433        0.032      345.931       23.815      862.714
07/18/2014  08:32:00      -24.977      -64.121        2.135       15.839       26.377        9.366      250.875      695.724       87.715        0.289        0.052       68.814       10.493        0.023      345.888       23.743      862.709
07/18/2014  08:33:00      -35.908      -52.752       -3.294       12.825       25.685        8.601      164.485      659.703       73.976        0.249        0.045       63.813        8.414        0.017      345.915       23.786      862.699
07/18/2014  08:34:00      -28.669      -43.924        2.754       15.277       15.165       14.127      233.375      229.965      199.578        0.171        0.033       52.452        6.947        0.018      346.020       23.969      862.692
07/18/2014  08:35:00      -34.359      -69.024        3.652       26.588       25.869       20.735      706.912      669.195      429.944        0.388        0.090       77.103       20.213        0.069      346.137       24.167      862.679
07/18/2014  08:36:00      -64.229      -82.848        5.972       33.069       43.981       22.919     1093.582     1934.289      525.260        0.729        0.178      104.829       21.096        0.040      346.070       24.052      862.679
07/18/2014  08:37:00      -49.636      -42.818        7.634       51.812       39.571       27.113     2684.447     1565.891      735.130        0.467        0.249       65.552       31.996        0.238      346.432       24.675      862.668
07/18/2014  08:38:00      -57.875      -60.646        7.316       36.721       38.597       22.912     1348.448     1489.722      524.968        0.522        0.168       83.830       23.250        0.077      346.196       24.270      862.673
07/18/2014  08:39:00      -40.559      -28.376        2.309       41.377       41.017       19.101     1712.083     1682.432      364.858        0.311        0.188       49.499       23.715        0.230      346.282       24.418      862.674
07/18/2014  08:40:00      -66.977      -31.229       -6.002       30.799       28.761       21.896      948.566      827.175      479.441        0.388        0.113       73.900       16.492        0.050      346.206       24.287      862.670
07/18/2014  08:41:00      -24.150       11.206       14.351       30.701       19.976       22.187      942.580      399.032      492.281        0.137        0.092       26.624       21.410        0.647      347.197       25.994      862.671
07/18/2014  08:42:00      -26.069       -4.086        3.603       25.025       24.837       22.787      626.233      616.877      519.252        0.124        0.088       26.387       16.023        0.369      346.638       25.029      862.670
07/18/2014  08:43:00      -10.266       13.933       12.516       20.371       29.777       42.105      414.976      886.647     1772.830        0.176        0.154       17.307       25.890        2.238      346.968       25.599      862.670
07/18/2014  08:44:00       40.854       56.194       66.531       40.781       25.519       29.667     1663.073      651.216      880.142        0.622        0.160       69.475       24.797        0.127      346.468       24.738      862.673
07/18/2014  08:45:00       50.685       56.320       38.794       31.716       34.125       26.871     1005.885     1164.510      722.047        0.507        0.145       75.769       21.639        0.082      346.552       24.882      862.680
07/18/2014  08:46:00       29.857        8.219       37.853       33.032       55.176       26.665     1091.102     3044.404      711.002        0.362        0.242       30.967       18.024        0.339      346.934       25.539      862.680
07/18/2014  08:47:00       35.905      -17.290       19.880       31.006       42.379       25.774      961.388     1796.021      664.284        0.270        0.171       39.851       25.161        0.399      346.801       25.311      862.682
07/18/2014  08:48:00       27.547       -5.911       23.407       31.648       24.883       26.828     1001.578      619.188      719.742        0.184        0.117       28.174       15.049        0.285      347.159       25.926      862.683
07/18/2014  08:49:00       -7.649      -34.387       37.199       29.440       43.008       24.885      866.698     1849.676      619.285        0.298        0.167       35.228       19.667        0.312      347.239       26.064      862.676
07/18/2014  08:50:00       -4.021      -19.164       20.259       40.008       41.077       33.492     1600.628     1687.317     1121.742        0.260        0.220       19.581       17.563        0.805      347.076       25.785      862.673
07/18/2014  08:51:00       12.976       31.947       51.208       37.620       37.878       29.194     1415.257     1434.766      852.273        0.376        0.185       34.482       25.789        0.559      347.305       26.178      862.667
07/18/2014  08:52:00        4.851       17.863       44.764       25.110       31.420       19.053      630.529      987.200      363.007        0.216        0.099       18.510       12.151        0.431      347.495       26.505      862.660
07/18/2014  08:53:00       18.808      -11.776       49.052       42.894       38.289       39.356     1839.891     1466.025     1548.876        0.388        0.243       22.190       19.878        0.802      347.476       26.474      862.653
07/18/2014  08:54:00       10.115       14.046       56.678       38.525       60.844       44.462     1484.140     3702.053     1976.876        0.534        0.358       17.309       44.671        6.660      347.257       26.096      862.644
07/18/2014  08:55:00      101.335      -91.905      -12.837       46.918       65.101       50.301     2201.254     4238.096     2530.231        1.392        0.448      136.804       48.662        0.127      346.941       25.551      862.646
07/18/2014  08:56:00       14.995      108.658      114.757       43.978       68.118       46.698     1934.063     4640.125     2180.734        1.698        0.438      109.688       53.002        0.233      346.923       25.520      862.644
07/18/2014  08:57:00       -0.993       57.398       82.954       26.119       52.413       33.242      682.183     2747.120     1105.043        0.735        0.227       57.407       34.988        0.371      347.220       26.031      862.639
07/18/2014  08:58:00        6.633     -110.234      -17.269       55.589       38.463       26.456     3090.129     1479.371      699.903        0.888        0.263      110.433       30.899        0.078      346.597       24.959      862.658
07/18/2014  08:59:00      -80.835      -28.546       -5.590       39.036       23.568       15.996     1523.837      555.471      255.887        0.486        0.117       85.728       16.953        0.039      346.449       24.705      862.661
07/18/2014  09:00:00      -46.256       13.807        1.840       24.513       14.073       16.267      600.890      198.052      264.602        0.170        0.053       48.273       13.498        0.078      346.644       25.041      862.672
07/18/2014  09:01:00      -25.047       23.171       18.736       26.527       20.584       20.747      703.689      423.685      430.430        0.154        0.078       34.121        9.666        0.080      347.388       26.320      862.673
07/18/2014  09:02:00       10.223      -22.022       22.893       27.742       59.086       33.755      769.646     3491.117     1139.375        0.326        0.270       24.279       22.072        0.826      347.602       26.691      862.689
07/18/2014  09:03:00       38.671      -61.700       -5.125       42.829       42.111       34.963     1834.344     1773.367     1222.421        0.508        0.242       72.817       24.506        0.113      347.151       25.913      862.698
07/18/2014  09:04:00       21.089       15.673       41.669       32.028       36.715       23.212     1025.803     1347.998      538.818        0.267        0.146       26.275       22.927        0.761      347.552       26.604      862.702
07/18/2014  09:05:00       25.404       21.935       42.466       33.832       28.873       25.295     1144.585      833.638      639.835        0.277        0.131       33.563       15.852        0.223      347.398       26.340      862.698
07/18/2014  09:06:00       15.297       -1.124       40.135       30.707       37.289       23.719      942.930     1390.458      562.590        0.237        0.145       15.338       19.099        1.550      347.741       26.931      862.698
07/18/2014  09:07:00        2.612        9.449       30.771       23.696       21.219       27.834      561.489      450.253      774.715        0.141        0.089        9.804        9.307        0.901      347.953       27.297      862.688
07/18/2014  09:08:00        0.437       37.284       51.294       30.722       29.935       23.488      943.856      896.096      551.695        0.321        0.120       37.287       15.922        0.182      347.508       26.527      862.672
07/18/2014  09:09:00        7.138      -13.421       38.853       19.927       37.872       20.017      397.074     1434.289      400.681        0.199        0.112       15.201       13.894        0.835      347.589       26.667      862.661
07/18/2014  09:10:00       -2.872      -52.394      -12.638       25.918       32.990       15.679      671.753     1088.320      245.827        0.246        0.100       52.472       18.772        0.128      346.851       25.395      862.657
07/18/2014  09:11:00      -36.572      -28.351        7.420       28.459       20.862       17.880      809.912      435.228      319.681        0.188        0.078       46.274       12.315        0.071      346.976       25.611      862.650
07/18/2014  09:12:00      -40.251      -12.256        4.121       18.581       22.532       17.193      345.255      507.706      295.593        0.147        0.057       42.075       16.132        0.147      347.151       25.914      862.641
07/18/2014  09:13:00      -18.115       -9.346       11.481       13.739       27.654       25.063      188.754      764.743      628.132        0.106        0.079       20.384       19.931        0.956      347.831       27.088      862.639
07/18/2014  09:14:00      -42.305      -51.695       -2.283       21.296       28.062       20.304      453.513      787.471      412.272        0.306        0.083       66.799       10.287        0.024      346.811       25.327      862.649
07/18/2014  09:15:00      -90.677      -58.642        1.504       38.736       46.719       25.922     1500.443     2182.634      671.939        0.801        0.218      107.987       20.758        0.037      346.824       25.351      862.648
07/18/2014  09:16:00      -90.115      -45.617        1.040       25.273       29.345       20.099      638.736      861.113      403.978        0.605        0.095      101.003       16.408        0.026      346.970       25.601      862.647
07/18/2014  09:17:00      -84.731      -75.118       -3.931       45.439       38.709       23.788     2064.671     1498.412      565.882        0.848        0.206      113.234       25.167        0.049      347.069       25.772      862.644
07/18/2014  09:18:00      -90.650      -60.273        5.811       65.083       57.536       35.115     4235.777     3310.397     1233.047        1.033        0.439      108.859       36.339        0.111      347.192       25.984      862.652
07/18/2014  09:19:00      -52.303      -26.447        4.528       53.227       38.669       25.612     2833.090     1495.308      655.956        0.422        0.249       58.609       20.377        0.121      347.328       26.218      862.645
07/18/2014  09:20:00        7.744      -35.457       11.655       30.462       33.126       25.164      927.951     1097.311      633.206        0.206        0.133       36.293       17.351        0.229      347.518       26.547      862.647
07/18/2014  09:21:00      -19.435      -38.230       24.006       40.012       46.507       25.499     1600.926     2162.859      650.223        0.341        0.221       42.887       30.871        0.518      347.675       26.818      862.642
07/18/2014  09:22:00      -15.022      -79.893        5.122       36.215       37.812       34.758     1311.493     1429.726     1208.130        0.529        0.197       81.293       16.085        0.039      347.331       26.222      862.635
07/18/2014  09:23:00       28.223      -42.155        4.789       38.699       47.808       34.181     1497.621     2285.599     1168.307        0.377        0.248       50.730       24.390        0.231      347.531       26.568      862.623
07/18/2014  09:24:00       37.651     -107.621       -0.254       69.900       60.224       38.562     4886.034     3626.941     1487.028        1.150        0.500      114.017       20.993        0.034      347.427       26.387      862.619
07/18/2014  09:25:00       97.577     -132.634      -17.915       58.203       55.219       38.341     3387.625     3049.144     1470.000        1.767        0.395      164.660       39.183        0.057      347.268       26.114      862.617
07/18/2014  09:26:00       13.016       41.310       67.576       36.898       44.110       27.822     1361.452     1945.705      774.058        0.526        0.204       43.312       20.527        0.225      347.890       27.189      862.629
07/18/2014  09:27:00       14.651       -8.248       32.271       33.774       50.358       31.260     1140.702     2535.880      977.173        0.299        0.233       16.813       25.965        2.385      347.970       27.326      862.625
07/18/2014  09:28:00       33.555      -48.205       25.913       40.696       76.796       38.750     1656.157     5897.568     1501.559        0.659        0.453       58.733       37.347        0.404      347.615       26.712      862.635
07/18/2014  09:29:00       28.125      -44.914       -4.740       20.048       60.527       19.728      401.908     3663.505      389.205        0.364        0.223       52.993       11.819        0.050      347.069       25.771      862.636
07/18/2014  09:30:00        7.632       10.543        7.412       14.384       26.304       22.258      206.914      691.880      495.430        0.081        0.070       13.015       13.915        1.143      347.704       26.867      862.627
07/18/2014  09:31:00       19.668       10.065        8.468       21.795       40.451       22.071      475.004     1636.304      487.114        0.158        0.130       22.094       12.151        0.302      347.641       26.757      862.619
07/18/2014  09:32:00       12.132      -14.871       48.743       25.866       55.119       38.379      669.057     3038.120     1472.959        0.396        0.259       19.192       36.291        3.576      348.146       27.631      862.604
07/18/2014  09:33:00       33.441       14.507       42.758       34.040       49.643       36.139     1158.733     2464.458     1306.005        0.404        0.246       36.452       10.666        0.086      347.906       27.215      862.607
07/18/2014  09:34:00       66.615     -109.556      -26.533       65.629       55.982       46.903     4307.147     3134.011     2199.885        1.339        0.482      128.219       39.354        0.094      347.502       26.517      862.597
07/18/2014  09:35:00       18.118      -44.289       19.725       43.212       44.022       34.038     1867.281     1937.899     1158.607        0.382        0.248       47.852       26.747        0.312      347.774       26.986      862.590
07/18/2014  09:36:00       -8.511      -66.920       18.609       38.551       70.183       48.804     1486.191     4925.666     2381.847        0.684        0.440       67.459       49.615        0.541      347.890       27.189      862.584
07/18/2014  09:37:00      -13.908       19.855       50.840       18.721       24.217       16.757      350.477      586.455      280.781        0.219        0.061       24.241       13.668        0.318      348.607       28.428      862.584
07/18/2014  09:38:00       43.285       26.538       46.046       41.394       34.320       34.619     1713.504     1177.878     1198.503        0.439        0.204       50.773       23.313        0.211      347.900       27.206      862.575
07/18/2014  09:39:00        6.962        5.222       36.536       35.358       53.661       32.101     1250.167     2879.477     1030.480        0.328        0.258        8.703       31.316       12.949      348.232       27.779      862.569
07/18/2014  09:40:00       54.347     -110.613       21.411       70.638       96.748       55.415     4989.751     9360.180     3070.798        1.653        0.871      123.243       66.348        0.290      347.724       26.899      862.560
07/18/2014  09:41:00        9.455       10.689       29.299       36.267       37.495       33.138     1315.323     1405.854     1098.095        0.244        0.191       14.270       29.567        4.293      347.942       27.277      862.567
07/18/2014  09:42:00       39.159        3.363       39.190       37.301       37.189       29.472     1391.392     1383.042      868.581        0.336        0.182       39.303       27.173        0.478      347.802       27.037      862.559
07/18/2014  09:43:00       19.702       26.196       19.008       24.514       24.590       23.769      600.917      604.662      564.944        0.160        0.089       32.778       12.785        0.152      347.622       26.725      862.554
07/18/2014  09:44:00       15.281       43.265       21.870       23.893       21.366       24.508      570.871      456.502      600.643        0.211        0.081       45.884       13.827        0.091      347.771       26.982      862.534
07/18/2014  09:45:00       -7.204        3.359       18.022       24.228       36.587       21.019      587.000     1338.582      441.803        0.138        0.118        7.949       15.787        3.944      348.015       27.403      862.517
07/18/2014  09:46:00      -19.525      -16.750        5.092       28.972       29.125       25.583      839.383      848.284      654.501        0.151        0.117       25.725        6.838        0.071      347.656       26.784      862.513
07/18/2014  09:47:00        7.710       22.625       18.842       23.787       19.965       27.582      565.817      398.617      760.769        0.133        0.086       23.903       16.053        0.451      348.322       27.934      862.504
07/18/2014  09:48:00       -0.291       23.849       19.970       16.650       26.609       18.269      277.236      708.037      333.751        0.114        0.066       23.851       15.749        0.436      348.306       27.908      862.487
07/18/2014  09:49:00       12.911        5.459       32.646       18.176       11.821       14.090      330.359      139.743      198.520        0.097        0.033       14.018        8.704        0.386      348.795       28.752      862.475
07/18/2014  09:50:00       25.455       23.775       20.628       28.305       29.816       19.913      801.163      889.004      396.526        0.186        0.104       34.831        7.742        0.049      348.652       28.504      862.479
07/18/2014  09:51:00       27.489       58.748       53.396       44.833       34.957       31.579     2009.998     1221.963      997.238        0.564        0.211       64.861       28.186        0.189      348.371       28.021      862.463
07/18/2014  09:52:00        7.570       28.744       24.572       27.410       31.963       29.729      751.297     1021.645      883.785        0.207        0.133       29.724       12.885        0.188      348.529       28.291      862.454
07/18/2014  09:53:00        5.416       -9.329       37.820       24.893       38.910       24.663      619.648     1513.998      608.246        0.214        0.137       10.787       19.338        3.214      348.823       28.802      862.443
07/18/2014  09:54:00      102.866       96.572       54.938       54.677       43.847       41.768     2989.601     1922.533     1744.577        1.479        0.333      141.095       23.673        0.028      347.807       27.044      862.437
07/18/2014  09:55:00       13.108       -2.075       43.292       39.860       83.317       49.271     1588.824     6941.675     2427.606        0.650        0.548       13.271       55.047       17.205      348.033       27.434      862.427
07/18/2014  09:56:00       37.387      -80.284        4.838       35.793       50.550       37.700     1281.173     2555.307     1421.327        0.656        0.263       88.562       32.035        0.131      348.235       27.785      862.423
07/18/2014  09:57:00       -4.716       -0.728       32.681       16.481       36.358       20.135      271.609     1321.872      405.406        0.154        0.100        4.771       19.505       16.711      348.630       28.468      862.411
07/18/2014  09:58:00       -6.418       12.137       41.211       15.494       23.688       23.635      240.065      561.133      558.627        0.162        0.068       13.730       15.266        1.236      349.172       29.406      862.407
07/18/2014  09:59:00       35.130       30.583       44.222       44.813       30.280       28.857     2008.210      916.908      832.713        0.394        0.188       46.577       18.993        0.166      348.693       28.578      862.405
07/18/2014  10:00:00       26.755       48.335       30.669       34.140       23.091       28.744     1165.564      533.210      826.202        0.326        0.126       55.246       25.272        0.209      348.371       28.019      862.409
07/18/2014  10:01:00        9.949        6.222       36.714       20.430       26.206       21.642      417.381      686.762      468.391        0.153        0.079       11.734       12.260        1.092      348.935       28.995      862.411
07/18/2014  10:02:00        8.649       -6.002       25.929       40.224       53.236       36.955     1617.997     2834.094     1365.689        0.330        0.291       10.528       36.899       12.285      348.478       28.204      862.411
07/18/2014  10:03:00       -0.161      -18.389       37.558       29.739       50.483       24.163      884.432     2548.498      583.849        0.288        0.201       18.390       25.012        1.850      348.726       28.634      862.400
07/18/2014  10:04:00       26.702       -3.601       31.336       28.181       44.818       32.663      794.173     2008.685     1066.846        0.279        0.193       26.944       26.432        0.962      348.577       28.374      862.394
07/18/2014  10:05:00       12.996        0.720       26.310       28.751       24.555       25.784      826.595      602.936      664.838        0.148        0.105       13.016       16.389        1.585      348.558       28.342      862.394
07/18/2014  10:06:00       12.241       17.126       20.751       33.059       20.964       26.144     1092.893      439.499      683.533        0.154        0.111       21.051       16.767        0.634      348.558       28.343      862.394
07/18/2014  10:07:00      -30.983       13.257        9.517       15.223       20.353       24.592      231.735      414.231      604.777        0.124        0.063       33.700       13.489        0.160      348.389       28.050      862.395
07/18/2014  10:08:00      -23.134      -10.303       13.024       22.760       30.524       17.543      517.996      931.686      307.751        0.128        0.088       25.324       11.011        0.189      348.509       28.257      862.393
07/18/2014  10:09:00      -12.583      -22.859       -8.623       45.025       43.948       24.419     2027.270     1931.446      596.284        0.265        0.228       26.094       13.281        0.259      348.197       27.718      862.391
07/18/2014  10:10:00      -30.052      -28.583       -4.950       33.137       22.847       20.474     1098.060      522.000      419.183        0.189        0.102       41.474        9.582        0.053      348.054       27.469      862.390
07/18/2014  10:11:00      -72.332      -36.470        1.682       37.493       22.467       18.509     1405.721      504.784      342.587        0.441        0.113       81.006       13.958        0.030      347.889       27.185      862.400
07/18/2014  10:12:00      -17.578      -21.975       16.879       27.880       34.896       23.607      777.318     1217.707      557.293        0.181        0.128       28.140        9.413        0.112      348.497       28.238      862.391
07/18/2014  10:13:00      -19.744       -8.376       48.210       42.689       73.659       35.588     1822.349     5425.672     1266.515        0.565        0.426       21.447       38.404        3.207      348.497       28.237      862.395
07/18/2014  10:14:00        8.414       36.997       53.609       36.644       46.367       27.956     1342.790     2149.943      781.534        0.429        0.214       37.942       31.546        0.691      348.459       28.172      862.383
07/18/2014  10:15:00      -10.154      -17.377       13.730       30.512       41.543       37.702      930.992     1725.786     1421.437        0.234        0.204       20.127       33.490        2.769      348.887       28.914      862.381
07/18/2014  10:16:00       34.928        0.909       36.471       56.730       65.400       36.524     3218.241     4277.204     1333.989        0.569        0.441       34.940       37.605        1.158      348.857       28.860      862.360
07/18/2014  10:17:00       41.730      -21.930       40.057       54.312       66.604       47.697     2949.835     4436.134     2275.023        0.674        0.483       47.141       44.068        0.874      348.740       28.658      862.372
07/18/2014  10:18:00       27.373       21.039       57.279       37.416       62.394       32.874     1399.989     3892.963     1080.706        0.542        0.319       34.524       25.466        0.544      348.657       28.514      862.374
07/18/2014  10:19:00       84.371       70.144       29.092       22.895       23.821       33.119      524.190      567.420     1096.883        0.754        0.109      109.721       12.869        0.014      347.899       27.202      862.374
07/18/2014  10:20:00       20.402      120.841       -9.260       49.967       47.258       41.011     2496.703     2233.319     1681.893        1.076        0.321      122.552       33.761        0.076      348.163       27.659      862.346
07/18/2014  10:21:00       59.166       34.061       17.281       50.137       46.002       34.160     2513.765     2116.206     1166.889        0.538        0.290       68.270       19.703        0.083      348.470       28.189      862.342
07/18/2014  10:22:00       85.407      -20.240       38.606       73.957       69.934       68.950     5469.707     4890.799     4754.146        1.215        0.756       87.773       60.412        0.474      348.717       28.617      862.321
07/18/2014  10:23:00      117.451      -97.076      -11.666       57.298       72.818       42.239     3283.099     5302.492     1784.117        1.686        0.518      152.376       35.196        0.053      348.387       28.045      862.321
07/18/2014  10:24:00       38.661      -63.637       19.186       34.322       46.933       30.013     1178.022     2202.667      900.764        0.510        0.214       74.461       23.496        0.100      348.533       28.299      862.324
07/18/2014  10:25:00       16.766      -95.966      -13.629       19.147       45.535       28.041      366.617     2073.435      786.273        0.645        0.161       97.419       19.188        0.039      348.208       27.737      862.312
07/18/2014  10:26:00       16.245      -63.793       13.119       36.225       37.775       25.708     1312.280     1426.951      660.886        0.395        0.170       65.829       13.335        0.041      348.508       28.254      862.297
07/18/2014  10:27:00       69.189       45.732       42.075       63.000       48.088       41.896     3968.953     2312.433     1755.268        0.834        0.402       82.937       34.324        0.171      348.621       28.451      862.295
07/18/2014  10:28:00       84.004       86.651       56.636       63.681       45.968       44.102     4055.321     2113.045     1945.029        1.294        0.406      120.686       34.480        0.082      348.513       28.264      862.290
07/18/2014  10:29:00       55.492       35.206       61.051       70.242       41.448       38.528     4933.919     1717.949     1484.375        0.809        0.407       65.718       35.896        0.298      348.775       28.719      862.300
07/18/2014  10:30:00      -24.549       54.392        4.000       39.938       37.198       32.629     1595.045     1383.716     1064.630        0.381        0.202       59.676       24.181        0.164      348.678       28.551      862.294
07/18/2014  10:31:00        9.454      -14.705       40.752       38.173       50.239       26.036     1457.174     2523.930      677.869        0.331        0.233       17.482       15.827        0.820      349.002       29.111      862.285
07/18/2014  10:32:00       38.154        4.653       45.490       69.990       64.200       47.785     4898.626     4121.618     2283.440        0.742        0.565       38.437       49.049        1.628      348.852       28.851      862.279
07/18/2014  10:33:00       85.441       73.945       66.108       80.369      103.467       65.855     6459.203    10705.461     4336.862        1.932        1.075      112.995       66.799        0.349      348.579       28.377      862.265
07/18/2014  10:34:00       26.206      -47.187       12.959       43.360       69.148       41.232     1880.119     4781.432     1700.114        0.572        0.418       53.976       36.415        0.455      348.771       28.712      862.270
07/18/2014  10:35:00       21.100      -26.864       23.934       32.390       63.424       39.634     1049.109     4022.561     1570.836        0.419        0.332       34.160       31.972        0.876      349.059       29.208      862.255
07/18/2014  10:36:00        4.992       22.380       52.827       35.476       36.351       38.758     1258.532     1321.366     1502.195        0.370        0.204       22.930       28.055        1.497      349.276       29.586      862.250
07/18/2014  10:37:00      113.088       59.394       16.922       54.469       41.304       48.445     2966.863     1706.059     2346.872        1.181        0.351      127.736       22.214        0.030      348.540       28.310      862.234
07/18/2014  10:38:00       92.209       78.769       60.195       61.712       52.327       53.208     3808.374     2738.125     2831.059        1.385        0.469      121.273       42.633        0.124      348.577       28.375      862.225
07/18/2014  10:39:00       12.463       -9.489       52.883       68.029       65.096       38.240     4627.962     4237.499     1462.268        0.668        0.516       15.664       38.046        5.899      349.019       29.139      862.217
07/18/2014  10:40:00       -2.728      -31.635       19.402       37.112       48.722       33.511     1377.327     2373.873     1123.001        0.313        0.244       31.753       18.427        0.337      349.140       29.350      862.207
07/18/2014  10:41:00       26.620      -41.608       13.752       40.742       61.453       36.587     1659.949     3776.502     1338.586        0.470        0.339       49.395       31.811        0.415      349.037       29.170      862.194
07/18/2014  10:42:00       15.184      -52.903       39.674       30.273       65.248       40.608      916.450     4257.322     1648.999        0.571        0.341       55.039       46.131        0.702      348.857       28.860      862.165
07/18/2014  10:43:00       25.910       63.391       87.977       42.612       57.107       29.977     1815.788     3261.191      898.626        0.920        0.299       68.482       31.734        0.215      349.036       29.169      862.160
07/18/2014  10:44:00       31.859       11.612       66.568       43.523       58.597       30.472     1894.289     3433.625      928.553        0.592        0.313       33.909       30.592        0.814      348.746       28.667      862.149
07/18/2014  10:45:00       52.109     -108.696       33.142       39.064       36.314       33.941     1526.022     1318.713     1152.018        0.981        0.200      120.541       21.386        0.031      348.090       27.530      862.148
07/18/2014  10:46:00       23.398       -5.488       48.556       31.795       39.978       19.582     1010.908     1598.242      383.459        0.296        0.150       24.033        9.850        0.168      348.958       29.034      862.147
07/18/2014  10:47:00       19.520      -33.711       24.436       27.393       37.851       26.461      750.361     1432.682      700.167        0.250        0.144       38.955       16.676        0.183      348.639       28.483      862.138
07/18/2014  10:48:00       28.692       27.896       40.712       39.381       38.870       27.176     1550.834     1510.890      738.540        0.353        0.190       40.017       16.154        0.163      349.168       29.397      862.142
07/18/2014  10:49:00       12.443      -66.028       12.744       31.617       36.972       29.071      999.619     1366.935      845.150        0.394        0.161       67.190       21.814        0.105      348.939       29.001      862.139
07/18/2014  10:50:00       57.170      -18.737       35.231       58.901       55.706       37.696     3469.321     3103.135     1421.022        0.643        0.400       60.162       30.200        0.252      348.936       28.997      862.143
07/18/2014  10:51:00        8.887      -45.507        0.471       38.762       35.478       35.521     1502.520     1258.681     1261.718        0.309        0.201       46.367       26.491        0.326      348.801       28.762      862.145
07/18/2014  10:52:00       15.599      -51.096       30.325       29.988       58.308       33.463      899.288     3399.815     1119.757        0.460        0.271       53.424       33.263        0.388      349.176       29.412      862.133
07/18/2014  10:53:00       -0.065       26.451       15.871       29.091       29.248       25.971      846.275      855.422      674.481        0.166        0.119       26.451       10.034        0.144      349.248       29.538      862.123
07/18/2014  10:54:00       29.119       34.942       32.777       29.639       25.290       25.351      878.448      639.592      642.682        0.265        0.108       45.485       14.127        0.096      349.450       29.887      862.113
07/18/2014  10:55:00       60.179       48.693       25.668       37.103       34.608       41.172     1376.623     1197.746     1695.106        0.546        0.213       77.411       24.272        0.098      349.175       29.411      862.108
07/18/2014  10:56:00       71.191      158.492      -17.345       46.230       52.279       41.950     2137.205     2733.066     1759.765        1.856        0.332      173.746       32.625        0.035      348.717       28.617      862.106
07/18/2014  10:57:00        7.294       87.590      -13.362       41.973       54.165       32.157     1761.704     2933.883     1034.047        0.682        0.286       87.893       26.871        0.093      348.940       29.005      862.098
07/18/2014  10:58:00      -23.396       66.668        2.638       26.422       50.264       27.397      698.123     2526.513      750.611        0.449        0.199       70.654       15.547        0.048      349.156       29.378      862.089
07/18/2014  10:59:00       -9.001       13.240       18.550       25.528       24.279       20.390      651.682      589.476      415.765        0.113        0.083       16.010       13.599        0.721      349.695       30.312      862.089
07/18/2014  11:00:00       18.387        6.444       25.708       25.059       25.409       16.224      627.935      645.610      263.209        0.129        0.077       19.484       10.897        0.313      349.749       30.407      862.086
07/18/2014  11:01:00       52.270       22.968       27.043       59.684       32.873       27.531     3562.221     1080.611      757.971        0.469        0.270       57.093       10.335        0.033      349.868       30.614      862.083
07/18/2014  11:02:00      104.278       99.847       40.752       83.756       67.718       53.662     7015.005     4585.746     2879.637        1.849        0.724      144.373       29.467        0.042      349.290       29.609      862.072
07/18/2014  11:03:00      161.958      107.120        3.859       38.223       27.678       27.709     1460.965      766.068      767.764        2.036        0.150      194.177       17.407        0.008      348.751       28.674      862.064
07/18/2014  11:04:00       64.358       79.458       36.389       38.236       47.905       43.993     1461.997     2294.930     1935.394        0.873        0.285      102.253       11.834        0.013      349.095       29.272      862.067
07/18/2014  11:05:00       66.201       47.406        3.368       39.213       24.151       21.842     1537.689      583.258      477.069        0.462        0.130       81.424       15.748        0.037      349.135       29.342      862.063
07/18/2014  11:06:00       -1.137       47.911       14.355       29.728       31.821       25.521      883.739     1012.556      651.321        0.252        0.127       47.924       20.125        0.176      349.913       30.693      862.061
07/18/2014  11:07:00       20.696       44.874       34.638       32.063       35.030       34.459     1028.027     1227.068     1187.443        0.354        0.172       49.417        7.802        0.025      350.030       30.894      862.049
07/18/2014  11:08:00        8.689       28.233        5.185       38.822       39.189       25.632     1507.153     1535.745      657.012        0.230        0.185       29.540       13.982        0.224      350.094       31.006      862.056
07/18/2014  11:09:00       33.691       49.273       12.681       47.657       32.810       23.571     2271.219     1076.489      555.572        0.381        0.195       59.690       21.246        0.127      349.960       30.774      862.046
07/18/2014  11:10:00       68.773       48.247       34.275       53.943       40.683       33.724     2909.893     1655.101     1137.275        0.697        0.285       84.008       15.787        0.035      349.712       30.341      862.047
07/18/2014  11:11:00       93.187       68.757        5.034       50.551       46.664       33.669     2555.417     2177.536     1133.586        0.965        0.293      115.808       18.267        0.025      349.107       29.292      862.045
07/18/2014  11:12:00       46.540       38.772       -2.581       40.679       34.545       27.951     1654.804     1193.382      781.260        0.365        0.181       60.575       17.078        0.079      349.462       29.909      862.036
07/18/2014  11:13:00       20.378       30.467        6.281       32.908       51.646       33.081     1082.937     2667.272     1094.370        0.311        0.242       36.653       30.494        0.692      349.477       29.934      862.030
07/18/2014  11:14:00      -63.288       19.921        7.518       39.238       17.865       22.981     1539.638      319.168      528.121        0.342        0.119       66.350       26.626        0.161      349.361       29.734      862.021
07/18/2014  11:15:00       76.348       43.978       18.848       64.981       60.412       44.306     4222.538     3649.625     1962.996        0.897        0.492       88.109       37.499        0.181      349.805       30.504      862.005
07/18/2014  11:16:00       80.802       66.004       23.048       62.890       46.357       36.905     3955.138     2148.976     1361.969        0.944        0.373      104.333       22.729        0.047      349.417       29.831      861.999
07/18/2014  11:17:00       51.269       78.614       12.897       46.242       46.044       44.166     2138.326     2120.076     1950.605        0.759        0.310       93.855       35.577        0.144      349.483       29.944      861.993
07/18/2014  11:18:00       91.572       73.300       16.083       33.441       29.086       27.740     1118.282      845.976      769.518        0.837        0.137      117.296       16.037        0.019      349.218       29.484      861.989
07/18/2014  11:19:00       67.616       45.522       33.662       39.051       32.992       31.648     1524.965     1088.485     1001.614        0.570        0.181       81.512        5.228        0.004      349.573       30.099      861.983
07/18/2014  11:20:00       95.388       77.710       52.372       71.692       51.323       56.324     5139.705     2634.032     3172.366        1.441        0.547      123.035       44.926        0.133      349.674       30.275      861.968
07/18/2014  11:21:00       90.152       72.454       60.203       59.470       64.328       56.908     3536.699     4138.107     3238.510        1.396        0.546      115.659       50.211        0.188      349.319       29.659      861.963
07/18/2014  11:22:00      106.653       48.063       84.704       69.196       64.231       56.350     4788.091     4125.559     3175.333        1.647        0.604      116.982       37.956        0.105      349.639       30.214      861.941
07/18/2014  11:23:00       45.413      -36.592        9.331       44.235      100.396       43.681     1956.767    10079.271     1908.015        0.871        0.697       58.321       49.216        0.712      349.489       29.954      861.951
07/18/2014  11:24:00       48.386     -135.762       -8.992       51.748       64.247       45.555     2677.896     4127.701     2075.249        1.487        0.444      144.127       36.631        0.065      349.650       30.235      861.935
07/18/2014  11:25:00       85.273     -117.672      -22.271       39.804       39.992       26.036     1584.364     1599.397      677.864        1.274        0.193      145.321       26.837        0.034      349.294       29.617      861.922
07/18/2014  11:26:00       11.331       22.203       34.177       24.296       73.397       26.051      590.315     5387.141      678.648        0.422        0.333       24.928       20.064        0.648      349.789       30.475      861.926
07/18/2014  11:27:00       18.815       40.382        9.113       26.274       35.564       29.202      690.320     1264.826      852.756        0.244        0.140       44.550       19.835        0.198      349.425       29.843      861.902
07/18/2014  11:28:00        0.762       -3.252       13.170       28.294       33.164       21.688      800.539     1099.836      470.354        0.128        0.119        3.340       17.784       28.345      350.020       30.876      861.884
07/18/2014  11:29:00        7.409      -16.414       14.470       31.287       45.328       26.027      978.877     2054.606      677.423        0.212        0.186       18.009       25.573        2.017      350.153       31.108      861.864
07/18/2014  11:30:00      -56.478       15.957       13.360       68.468       61.495       26.907     4687.891     3781.648      723.964        0.641        0.460       58.689       34.099        0.338      349.662       30.256      861.848
07/18/2014  11:31:00       -8.541       38.624       20.520       35.976       28.531       26.565     1294.278      814.008      705.718        0.240        0.141       39.557       19.736        0.249      350.148       31.100      861.821
07/18/2014  11:32:00       55.695       44.829       39.330       37.661       38.922       29.636     1418.326     1514.953      878.295        0.523        0.191       71.495       25.944        0.132      350.144       31.091      861.817
07/18/2014  11:33:00       87.488       42.819       26.742       54.227       48.400       37.233     2940.600     2342.529     1386.263        0.843        0.333       97.404       28.831        0.088      350.252       31.279      861.805
07/18/2014  11:34:00       90.157       80.547       40.658       68.196       48.150       47.266     4650.669     2318.427     2234.069        1.273        0.460      120.897       38.906        0.104      350.224       31.230      861.793
07/18/2014  11:35:00      104.354       68.533       40.123       90.710       70.353       36.963     8228.327     4949.614     1366.239        1.587        0.727      124.846       17.711        0.020      349.938       30.734      861.786
07/18/2014  11:36:00      149.411       69.246        9.131       65.023       48.182       44.031     4227.932     2321.551     1938.690        1.784        0.424      164.678       30.897        0.035      349.443       29.875      861.783
07/18/2014  11:37:00      141.721       98.521       43.089       66.554       57.123       58.719     4429.447     3262.992     3447.937        2.139        0.557      172.601       35.522        0.042      349.689       30.300      861.768
07/18/2014  11:38:00      147.098      112.594       19.290       48.425       40.151       39.158     2344.990     1612.122     1533.366        2.009        0.275      185.243       20.000        0.012      349.656       30.243      861.776
07/18/2014  11:39:00      130.757      111.232        6.132       39.363       33.198       27.309     1549.428     1102.095      745.767        1.645        0.170      171.668        8.246        0.002      349.400       29.802      861.767
07/18/2014  11:40:00       98.693       79.982       -0.670       34.020       26.447       20.979     1157.393      699.429      440.137        0.922        0.115      127.033       11.335        0.008      349.363       29.737      861.755
07/18/2014  11:41:00       40.354      120.204        6.927       56.661       75.418       42.488     3210.505     5687.865     1805.196        1.341        0.535      126.797       45.538        0.129      349.933       30.725      861.745
07/18/2014  11:42:00       53.926       62.366       21.108       44.181       38.322       29.976     1951.954     1468.598      898.546        0.578        0.216       82.448       21.505        0.068      350.057       30.941      861.736
07/18/2014  11:43:00       59.615       49.300        4.867       59.907       54.143       34.849     3588.907     2931.418     1214.481        0.687        0.387       77.359       21.713        0.079      350.115       31.042      861.728
07/18/2014  11:44:00       23.218       98.897       -5.022       33.108       55.473       28.275     1096.120     3077.212      799.468        0.766        0.249      101.586       20.044        0.039      349.954       30.762      861.728
07/18/2014  11:45:00       23.197       17.195        7.426       36.215       28.118       23.815     1311.500      790.636      567.178        0.178        0.133       28.875       19.706        0.466      350.205       31.199      861.731
07/18/2014  11:46:00       16.390       33.842       24.186       48.932       33.071       25.636     2394.338     1093.722      657.186        0.307        0.207       37.602       20.519        0.298      350.594       31.874      861.710
07/18/2014  11:47:00       32.587       13.117       26.257       36.739       55.169       29.492     1349.784     3043.603      869.777        0.359        0.263       35.128       21.224        0.365      350.212       31.212      861.700
07/18/2014  11:48:00       33.977      -64.555        8.530       53.043       38.642       47.495     2813.523     1493.233     2255.817        0.598        0.328       72.950       33.610        0.212      349.925       30.711      861.681
07/18/2014  11:49:00       53.372       -0.129       31.103       51.169       85.406       33.988     2618.296     7294.137     1155.207        0.744        0.553       53.372       23.026        0.186      350.341       31.435      861.662
07/18/2014  11:50:00       18.854       44.263       43.078       47.906       43.079       40.912     2294.995     1855.841     1673.766        0.500        0.291       48.111       22.539        0.219      350.502       31.715      861.655
07/18/2014  11:51:00       44.783       15.251       26.249       41.199       54.642       28.570     1697.361     2985.748      816.265        0.421        0.275       47.309       15.177        0.103      350.235       31.250      861.646
07/18/2014  11:52:00       61.044      -36.282       26.241       60.553       63.326       41.241     3666.653     4010.129     1700.781        0.755        0.469       71.012       34.129        0.231      350.111       31.034      861.639
07/18/2014  11:53:00       52.147       47.376       10.940       35.995       61.634       37.038     1295.654     3798.783     1371.785        0.577        0.323       70.454       33.257        0.223      350.160       31.119      861.634
07/18/2014  11:54:00       20.744       41.918       18.848       39.907       58.703       42.601     1592.604     3446.081     1814.825        0.470        0.343       46.770       34.721        0.551      350.626       31.929      861.621
07/18/2014  11:55:00       61.701       31.400       12.081       51.162       42.186       36.142     2617.503     1779.691     1306.259        0.532        0.285       69.232       31.705        0.210      349.854       30.588      861.621
07/18/2014  11:56:00       11.212        1.517       29.722       20.154       17.917       23.664      406.168      321.020      560.008        0.115        0.064       11.314       12.747        1.269      350.410       31.554      861.608
07/18/2014  11:57:00        9.516       10.505       20.514       21.709       18.691       23.158      471.280      349.355      536.315        0.099        0.068       14.174       13.710        0.936      350.697       32.054      861.599
07/18/2014  11:58:00      -58.220       -3.297        0.467       27.806       35.454       17.194      773.200     1256.984      295.645        0.286        0.116       58.313       11.767        0.041      350.125       31.060      861.591
07/18/2014  11:59:00      -38.513      -56.042        7.682       19.923       26.535       23.022      396.935      704.121      530.003        0.316        0.082       68.000       12.797        0.035      349.981       30.809      861.578
07/18/2014  12:00:00      -12.094      -28.605        4.095       14.941       20.734       15.281      223.232      429.914      233.509        0.093        0.044       31.056       13.045        0.176      350.177       31.151      861.565
07/18/2014  12:01:00       57.594        8.529       20.475       70.257       36.691       30.508     4936.105     1346.200      930.734        0.551        0.361       58.222        8.302        0.020      350.620       31.921      861.541
07/18/2014  12:02:00       40.681       31.667       22.256       56.460       30.052       34.578     3187.755      903.094     1195.606        0.422        0.264       51.553       21.931        0.181      350.743       32.135      861.527
07/18/2014  12:03:00       96.620       84.241       10.252       94.316       66.994       54.427     8895.583     4488.137     2962.307        1.644        0.817      128.187       32.168        0.063      350.469       31.655      861.504
07/18/2014  12:04:00       89.422       68.144       12.690       77.870       59.098       34.158     6063.806     3492.590     1166.737        1.176        0.536      112.428       22.839        0.041      350.253       31.280      861.494
07/18/2014  12:05:00      128.031       74.376       15.439       83.423       58.416       44.132     6959.345     3412.475     1947.617        1.724        0.616      148.067       34.222        0.053      350.402       31.537      861.470
07/18/2014  12:06:00       99.835       31.143       34.484       87.879       45.895       46.364     7722.699     2106.375     2149.582        1.205        0.599      104.580       37.168        0.126      351.003       32.585      861.465
07/18/2014  12:07:00      183.994      141.165       33.303       88.849       64.064       55.607     7894.088     4104.199     3092.182        3.499        0.755      231.908       30.843        0.018      350.460       31.637      861.445
07/18/2014  12:08:00      152.197       81.963        9.483       75.722       56.152       41.733     5733.796     3153.080     1741.668        2.030        0.531      172.864       32.114        0.035      349.947       30.749      861.478
07/18/2014  12:09:00       25.872       16.871       -5.788       22.815       16.151       19.371      520.529      260.861      375.238        0.107        0.058       30.887       11.651        0.142      349.993       30.829      861.461
07/18/2014  12:10:00       51.278       54.337       33.229       32.040       22.651       26.562     1026.543      513.080      705.529        0.447        0.112       74.713       12.428        0.028      350.155       31.112      861.457
07/18/2014  12:11:00       91.275      102.668       14.339       68.348       53.334       41.492     4671.448     2844.538     1721.613        1.416        0.462      137.375       27.311        0.040      350.509       31.726      861.464
07/18/2014  12:12:00       13.680       19.684        1.758       32.437       37.872       31.872     1052.127     1434.254     1015.815        0.204        0.175       23.971       24.734        1.065      350.946       32.487      861.462
07/18/2014  12:13:00       -2.787       13.507       47.335       42.608       55.975       33.097     1815.482     3133.191     1095.430        0.424        0.302       13.791       34.233        6.162      351.270       33.053      861.452
07/18/2014  12:14:00       79.811       61.047       29.516       81.308       43.093       57.537     6610.962     1857.005     3310.555        1.137        0.589      100.482       56.261        0.314      350.670       32.007      861.475
07/18/2014  12:15:00       73.454       57.924       14.885       52.155       40.804       30.167     2720.139     1664.983      910.023        0.713        0.265       93.545       21.262        0.052      350.496       31.704      861.466
07/18/2014  12:16:00       55.081       31.249        5.501       37.879       49.555       20.954     1434.804     2455.745      439.061        0.418        0.216       63.328       13.867        0.048      350.155       31.111      861.468
07/18/2014  12:17:00        9.638      -10.413       23.727       20.325       24.575       18.022      413.113      603.922      324.776        0.105        0.067       14.189       15.942        1.262      350.660       31.989      861.458
07/18/2014  12:18:00       12.606       12.119       24.182       32.737       22.810       25.897     1071.731      520.293      670.676        0.158        0.113       17.487       24.575        1.975      350.864       32.344      861.449
07/18/2014  12:19:00       13.111       25.623       40.668       22.941       36.014       37.588      526.279     1296.978     1412.835        0.286        0.162       28.782       19.110        0.441      350.666       32.000      861.436
07/18/2014  12:20:00       -6.945      -51.628        0.447       29.683       41.081       28.215      881.051     1687.640      796.113        0.304        0.168       52.093       15.115        0.084      349.959       30.772      861.432
07/18/2014  12:21:00      -31.160      -24.687       -2.204       48.604       40.029       30.634     2362.336     1602.289      938.415        0.324        0.245       39.754       29.135        0.537      350.580       31.853      861.427
07/18/2014  12:22:00      158.872      -97.132       10.537      125.818       93.623       59.390    15830.205     8765.333     3527.215        3.145        1.406      186.212       59.806        0.103      350.566       31.824      861.405
07/18/2014  12:23:00       74.177      -35.503       63.701      102.671      106.607       73.480    10541.282    11365.098     5399.382        1.906        1.365       82.235       65.293        0.630      350.766       32.173      861.369
07/18/2014  12:24:00       35.711       47.025       66.925       71.325       60.286       44.388     5087.232     3634.444     1970.279        0.933        0.535       59.048       40.750        0.476      350.831       32.287      861.371
07/18/2014  12:25:00      148.885       92.002       75.663      111.882       69.044       67.546    12517.504     4767.049     4562.403        2.910        1.092      175.018       56.993        0.106      350.602       31.884      861.352
07/18/2014  12:26:00      132.098       28.866       82.473      131.470      118.466       70.193    17284.237    14034.300     4927.026        3.066        1.812      135.215       60.380        0.199      350.766       32.172      861.334
07/18/2014  12:27:00       68.659      -20.857       36.533       97.313      120.537       69.944     9469.733    14529.214     4892.136        1.768        1.445       71.757       66.286        0.853      350.435       31.597      861.354
07/18/2014  12:28:00       51.602      -53.742       29.913       62.687       84.638       55.385     3929.696     7163.509     3067.513        1.030        0.708       74.505       50.635        0.462      350.965       32.520      861.336
07/18/2014  12:29:00       37.570      -23.836       20.665       43.174       55.630       31.318     1863.957     3094.651      980.820        0.417        0.297       44.494       35.182        0.625      350.896       32.400      861.338
07/18/2014  12:30:00       24.019      -51.669       10.950       36.085       50.850       33.739     1302.118     2585.687     1138.328        0.420        0.251       56.979       23.438        0.169      350.753       32.152      861.328
07/18/2014  12:31:00       19.844      -76.939        8.483       39.089       59.129       40.270     1527.965     3496.223     1621.695        0.651        0.332       79.457       37.019        0.217      350.794       32.224      861.323
07/18/2014  12:32:00       48.966      -98.122       36.305       62.521      111.768       69.884     3908.934    12492.045     4883.731        1.731        1.064      109.661       53.302        0.236      350.653       31.976      861.296
07/18/2014  12:33:00       88.208       47.726       79.266       92.153       68.325       52.568     8492.210     4668.334     2763.353        1.613        0.796      100.292       42.377        0.179      350.699       32.056      861.302
07/18/2014  12:34:00       58.136      -62.875       41.781       65.581      106.882       61.183     4300.923    11423.796     3743.411        1.427        0.973       85.633       74.004        0.747      350.484       31.682      861.316
07/18/2014  12:35:00      118.058       39.741       82.694       78.120       52.407       65.251     6102.810     2746.493     4257.692        1.773        0.655      124.567       45.067        0.131      350.615       31.909      861.311
07/18/2014  12:36:00      112.403     -101.866       -0.288       68.015       90.517       36.360     4626.085     8193.367     1322.054        1.857        0.707      151.694       32.408        0.046      350.522       31.749      861.311
07/18/2014  12:37:00       93.793       13.705       81.891       87.424      134.944       68.050     7642.957    18209.959     4630.746        2.308        1.524       94.789       63.793        0.453      350.646       31.963      861.270
07/18/2014  12:38:00       83.105       66.480       53.579       64.262       48.638       44.720     4129.658     2365.654     1999.920        1.134        0.425      106.424       32.925        0.096      350.812       32.252      861.268
07/18/2014  12:39:00       56.333       26.225       26.989       56.537       29.032       32.448     3196.382      842.862     1052.896        0.484        0.255       62.138       28.447        0.210      350.885       32.381      861.269
07/18/2014  12:40:00       20.015       33.998       17.882       62.240       41.804       27.898     3873.825     1747.559      778.278        0.414        0.320       39.452       12.816        0.106      351.257       33.029      861.253
07/18/2014  12:41:00       64.260       40.379       47.590       71.792       51.066       37.414     5154.026     2607.718     1399.781        0.859        0.458       75.893       20.127        0.070      351.422       33.317      861.230
07/18/2014  12:42:00      -22.304      -60.520       -4.193       52.253       43.639       34.459     2730.399     1904.329     1187.451        0.500        0.291       64.499       23.201        0.129      350.812       32.254      861.236
07/18/2014  12:43:00      -41.241      -58.300        3.878       55.846       39.226       35.339     3118.754     1538.647     1248.854        0.551        0.295       71.412       16.149        0.051      350.813       32.257      861.230
07/18/2014  12:44:00       -8.285      -87.591        5.158       40.683       21.992       19.969     1655.097      483.637      398.776        0.515        0.127       87.982        6.251        0.005      350.290       31.345      861.207
07/18/2014  12:45:00       45.202       -3.576       37.391       45.365       33.949       28.912     2058.020     1152.544      835.928        0.375        0.202       45.343       23.988        0.280      350.703       32.064      861.188
07/18/2014  12:46:00       42.192      -49.102        6.760       32.353       44.283       28.162     1046.708     1961.004      793.104        0.402        0.190       64.740       25.397        0.154      350.316       31.392      861.186
07/18/2014  12:47:00       56.649       16.844       12.533       46.088       86.406       35.514     2124.130     7465.928     1261.273        0.725        0.543       59.100       25.535        0.187      350.446       31.616      861.181
07/18/2014  12:48:00       39.818       32.818       12.473       31.592       37.549       27.948      998.027     1409.908      781.070        0.300        0.159       51.600       20.696        0.161      351.032       32.636      861.177
07/18/2014  12:49:00        9.426        5.047       31.139       28.585       42.538       24.494      817.104     1809.494      599.947        0.215        0.161       10.693       14.017        1.718      351.310       33.121      861.155
07/18/2014  12:50:00       69.051     -103.698       -4.874       87.463       89.011       70.009     7649.777     7922.920     4901.227        1.801        1.024      124.585       68.025        0.298      350.902       32.408      861.133
07/18/2014  12:51:00       61.445     -149.529      -25.617       62.021       85.059       53.860     3846.649     7235.025     2900.876        2.038        0.699      161.661       29.802        0.034      350.767       32.172      861.126
07/18/2014  12:52:00       83.877      -71.627        4.559       53.107       64.413       44.739     2820.334     4148.980     2001.565        1.058        0.449      110.299       45.841        0.173      350.664       31.997      861.121
07/18/2014  12:53:00       11.420       35.752       55.769       38.139       47.674       30.553     1454.595     2272.832      933.499        0.459        0.233       37.532       26.307        0.491      350.836       32.296      861.116
07/18/2014  12:54:00       66.968       85.337      108.174      121.576       69.676       60.427    14780.794     4854.724     3651.385        2.337        1.164      108.476       69.396        0.409      351.098       32.750      861.093
07/18/2014  12:55:00      229.016      104.393       13.143       85.239       73.378       65.173     7265.756     5384.395     4247.538        4.020        0.845      251.687       26.489        0.011      350.709       32.071      861.081
07/18/2014  12:56:00      192.905      132.735       34.385       68.516       56.915       60.063     4694.421     3239.280     3607.555        3.377        0.577      234.160       36.791        0.025      350.773       32.183      861.067
07/18/2014  12:57:00      176.733      119.588       16.928       81.550       68.210       44.282     6650.348     4652.619     1960.856        2.954        0.663      213.392       31.556        0.022      350.952       32.495      861.059
07/18/2014  12:58:00      203.388      105.809        6.931       90.444       67.760       55.668     8180.202     4591.402     3098.963        3.424        0.794      229.264       21.031        0.008      350.805       32.238      861.049
07/18/2014  12:59:00       91.344       87.742        1.307       54.831       43.072       49.596     3006.469     1855.207     2459.739        1.168        0.366      126.659       25.550        0.041      350.682       32.027      861.052
07/18/2014  13:00:00       68.056       50.189       16.961       47.567       44.651       36.971     2262.641     1993.744     1366.865        0.653        0.281       84.561       34.033        0.162      350.826       32.279      861.036
07/18/2014  13:01:00       27.106       68.065       30.089       32.256       44.542       27.946     1040.459     1984.000      780.976        0.504        0.190       73.263       23.351        0.102      351.065       32.695      861.009
07/18/2014  13:02:00       84.464       79.998       11.721       59.490       53.559       47.941     3539.009     2868.530     2298.362        1.119        0.435      116.335       32.109        0.076      351.122       32.792      860.997
07/18/2014  13:03:00       34.150        7.147       20.360       71.239       68.221       36.350     5074.965     4654.165     1321.357        0.634        0.553       34.889       30.609        0.770      351.302       33.107      860.998
07/18/2014  13:04:00       44.317       68.372      -24.863       57.213       61.310       30.568     3273.377     3758.970      934.380        0.761        0.398       81.478       22.003        0.073      350.758       32.160      861.000
07/18/2014  13:05:00      -48.174       12.598        3.419       46.703       29.239       34.156     2181.168      854.928     1166.664        0.335        0.210       49.794       34.563        0.482      351.012       32.602      860.981
07/18/2014  13:06:00        5.659       45.459       15.130       22.640       42.369       26.473      512.564     1795.116      700.796        0.267        0.150       45.810       20.919        0.209      351.433       33.337      860.973
07/18/2014  13:07:00       45.993       51.648       24.542       83.729       50.235       32.119     7010.468     2523.577     1031.650        0.797        0.528       69.158       27.071        0.153      351.624       33.671      860.959
07/18/2014  13:08:00      113.545       96.535       20.598       69.811       52.301       34.757     4873.604     2735.391     1208.074        1.572        0.441      149.035       25.833        0.030      351.136       32.816      860.939
07/18/2014  13:09:00       54.048       99.133        2.941       74.271       67.245       34.392     5516.143     4521.882     1182.813        1.199        0.561      112.910       32.776        0.084      350.813       32.254      860.939
07/18/2014  13:10:00      -41.116      180.714      -17.277       36.016       31.657       19.702     1297.139     1002.153      388.174        1.867        0.134      185.332       10.477        0.003      350.608       31.897      860.931
07/18/2014  13:11:00      -19.631       98.344        2.750       21.253       43.297       32.142      451.709     1874.614     1033.096        0.671        0.168      100.284       28.652        0.082      351.437       33.344      860.920
07/18/2014  13:12:00       58.733       34.262       26.422       56.217       27.737       30.543     3160.346      769.353      932.847        0.509        0.243       67.996       22.373        0.108      350.983       32.552      860.901
07/18/2014  13:13:00       33.592       11.821       10.099       29.927       24.827       20.529      895.599      616.363      421.452        0.165        0.097       35.612       20.144        0.320      350.996       32.576      860.892
07/18/2014  13:14:00       12.554       20.402       19.972       25.077       22.638       20.563      628.851      512.499      422.841        0.127        0.078       23.956       15.863        0.439      351.334       33.163      860.870
07/18/2014  13:15:00      -23.907       83.787       -2.796       28.649       41.582       31.749      820.761     1729.031     1008.018        0.558        0.178       87.131       28.458        0.107      351.265       33.043      860.860
07/18/2014  13:16:00      -68.476       92.556      -10.866       36.841       42.033       29.513     1357.241     1766.815      871.022        0.868        0.200      115.133       18.471        0.026      351.139       32.823      860.843
07/18/2014  13:17:00      -80.279       97.511      -15.189       31.449       52.020       29.772      989.068     2706.072      886.386        1.038        0.229      126.306       21.647        0.029      351.041       32.652      860.831
07/18/2014  13:18:00      -31.025       98.164      -11.098       19.861       37.341       26.264      394.461     1394.332      689.792        0.660        0.124      102.951       13.480        0.017      351.096       32.749      860.821
07/18/2014  13:19:00      -85.398      131.431      -11.962       52.814       56.699       33.754     2789.342     3214.767     1139.329        1.593        0.357      156.738       35.102        0.050      351.111       32.774      860.794
07/18/2014  13:20:00      -68.023       31.540        9.579       80.080       29.431       35.236     6412.823      866.158     1241.542        0.712        0.426       74.980       45.571        0.369      351.357       33.204      860.779
07/18/2014  13:21:00       -1.166        5.433       41.971       33.141       23.496       16.987     1098.334      552.078      288.559        0.187        0.097        5.556       13.419        5.833      351.977       34.287      860.776
07/18/2014  13:22:00      -33.453       43.715       15.187       59.123       37.895       37.978     3495.488     1436.068     1442.356        0.482        0.319       55.046       38.345        0.485      351.483       33.423      860.747
07/18/2014  13:23:00       12.633       44.939        5.713      108.280       40.671       37.163    11724.513     1654.155     1381.094        0.848        0.738       46.681       32.257        0.477      351.355       33.200      860.735
07/18/2014  13:24:00       76.778       19.266       14.011       46.267       59.310       32.663     2140.608     3517.691     1066.894        0.659        0.336       79.158       18.478        0.054      351.469       33.399      860.715
07/18/2014  13:25:00       58.699       37.869       11.851       65.344       59.885       33.750     4269.888     3586.157     1139.070        0.701        0.450       69.855       22.536        0.104      351.456       33.375      860.695
07/18/2014  13:26:00        9.538       32.726       24.542       47.686       43.698       38.211     2273.961     1909.496     1460.091        0.370        0.282       34.087       16.038        0.221      352.005       34.336      860.689
07/18/2014  13:27:00       36.501      139.210      133.277       68.511       59.284       54.100     4693.779     3514.589     2926.816        2.480        0.557      143.916       43.490        0.091      350.977       32.538      860.673
07/18/2014  13:28:00      105.531       83.575       35.742       83.103       39.168       42.541     6906.081     1534.142     1809.725        1.482        0.512      134.616       42.173        0.098      350.966       32.520      860.676
07/18/2014  13:29:00       33.235        2.877       27.737       44.560       40.662       31.411     1985.620     1653.437      986.676        0.325        0.231       33.360       19.129        0.329      351.092       32.742      860.660
07/18/2014  13:30:00       44.177       36.440      -24.229       44.295       38.799       17.840     1962.012     1505.369      318.281        0.383        0.189       57.267        6.060        0.011      350.790       32.215      860.652
07/18/2014  13:31:00       -3.555        0.368       26.932       16.307       28.397       21.802      265.933      806.371      475.343        0.114        0.077        3.573       11.355       10.097      351.845       34.055      860.623
07/18/2014  13:32:00      -11.100       -9.904       17.272       39.776       43.660       26.490     1582.158     1906.193      701.696        0.235        0.210       14.876       19.465        1.712      351.634       33.687      860.625
07/18/2014  13:33:00       12.192      -37.861        6.978       31.214       36.779       29.953      974.325     1352.723      897.162        0.243        0.161       39.775       22.366        0.316      351.502       33.457      860.608
07/18/2014  13:34:00       -5.777      -42.892        6.491       47.652       40.416       31.576     2270.680     1633.440      997.050        0.341        0.245       43.280       15.507        0.128      351.612       33.648      860.612
07/18/2014  13:35:00       11.234       -8.658        0.040       29.620       23.022       24.213      877.353      530.021      586.272        0.110        0.100       14.183        5.215        0.135      351.548       33.536      860.604
07/18/2014  13:36:00       28.711       52.333       14.130       37.671       35.923       33.825     1419.115     1290.484     1144.146        0.381        0.193       59.691       23.568        0.156      351.399       33.277      860.604
07/18/2014  13:37:00       46.762       21.980       27.931       28.944       33.142       24.270      837.759     1098.412      589.037        0.299        0.126       51.670        8.755        0.029      350.995       32.573      860.594
07/18/2014  13:38:00       38.417      -18.428       12.298       24.874       47.353       27.916      618.735     2242.341      779.316        0.280        0.182       42.609       27.753        0.424      350.679       32.023      860.594
07/18/2014  13:39:00       39.508       41.242       23.769       35.076       30.868       34.907     1230.322      952.810     1218.496        0.361        0.170       57.112       16.744        0.086      351.130       32.808      860.597
07/18/2014  13:40:00      105.960       80.246       15.149       67.632       36.532       29.901     4574.098     1334.587      894.040        1.235        0.340      132.917       16.666        0.016      351.435       33.340      860.582
07/18/2014  13:41:00      144.334       89.550       49.350       67.665       60.921       53.580     4578.618     3711.344     2870.864        2.122        0.558      169.857       38.078        0.050      351.078       32.717      860.583
07/18/2014  13:42:00       54.156       86.616       10.428       64.897       64.793       48.775     4211.612     4198.083     2379.006        1.066        0.539      102.153       37.476        0.135      351.279       33.067      860.561
07/18/2014  13:43:00       81.213       82.546       11.342       40.318       32.574       43.213     1625.577     1061.040     1867.359        0.905        0.228      115.799       24.853        0.046      351.037       32.645      860.565
07/18/2014  13:44:00       83.456       45.403       28.690       29.850       25.787       31.642      891.034      664.969     1001.218        0.620        0.128       95.007        3.621        0.001      350.778       32.194      860.566
07/18/2014  13:45:00       -2.960       18.133       22.789       41.265       23.616       29.435     1702.819      557.727      866.398        0.199        0.156       18.373       19.233        1.096      351.397       33.273      860.561
07/18/2014  13:46:00       29.047       42.351       20.416       37.773       35.837       23.864     1426.826     1284.302      569.496        0.317        0.164       51.355        7.562        0.022      351.099       32.754      860.561
07/18/2014  13:47:00        4.655       36.795       15.769       19.055       53.384       20.090      363.093     2849.830      403.611        0.262        0.181       37.088       26.955        0.528      351.330       33.158      860.564
07/18/2014  13:48:00       29.207       22.204        8.080       24.058       27.726       29.749      578.808      768.714      885.022        0.182        0.112       36.689       10.797        0.087      351.119       32.788      860.541
07/18/2014  13:49:00       29.243       75.713       -5.055       32.544       31.233       34.897     1059.107      975.512     1217.777        0.493        0.163       81.164       24.076        0.088      351.073       32.709      860.527
07/18/2014  13:50:00       43.836       49.261        5.995       29.042       47.626       33.566      843.445     2268.195     1126.653        0.431        0.212       65.941       24.696        0.140      351.135       32.817      860.520
07/18/2014  13:51:00       26.511       11.547       12.869       25.492       13.502       22.006      649.864      182.316      484.276        0.116        0.066       28.916       11.860        0.168      351.079       32.719      860.509
07/18/2014  13:52:00       11.821        3.325        5.859       34.904       31.950       19.797     1218.324     1020.780      391.927        0.141        0.132       12.280       12.456        1.029      351.097       32.751      860.492
07/18/2014  13:53:00       -8.167       11.639        0.450       47.716       53.478       36.521     2276.778     2859.904     1333.768        0.334        0.324       14.219       26.250        3.408      351.546       33.533      860.473
07/18/2014  13:54:00       23.839      -11.114       22.664       32.602       35.859       26.739     1062.896     1285.862      714.994        0.213        0.153       26.303       26.796        1.038      351.350       33.191      860.451
07/18/2014  13:55:00       53.542       -9.631       16.236       45.491       54.505       32.745     2069.426     2970.755     1072.265        0.467        0.306       54.401       32.124        0.349      351.336       33.167      860.427
07/18/2014  13:56:00       27.532       -4.310       43.369       36.376       62.986       40.650     1323.213     3967.248     1652.452        0.480        0.347       27.867       37.017        1.764      351.686       33.778      860.400
07/18/2014  13:57:00       76.272       72.854       60.466       84.332       50.015       36.537     7111.887     2501.479     1334.918        1.286        0.547      105.475       34.552        0.107      351.807       33.990      860.387
07/18/2014  13:58:00       20.797       30.156       44.382       67.701       69.125       34.619     4583.437     4778.321     1198.473        0.693        0.528       36.632       26.276        0.515      352.014       34.350      860.364
07/18/2014  13:59:00       -1.278       -9.508        5.840       21.602       19.954       20.094      466.660      398.171      403.757        0.070        0.063        9.593        8.123        0.717      351.844       34.053      860.343
07/18/2014  14:00:00       11.226       34.363       64.944       38.524       36.709       33.129     1484.076     1347.561     1097.543        0.473        0.196       36.150       26.686        0.545      351.883       34.122      860.323
07/18/2014  14:01:00       12.246       51.249       64.319       41.101       49.065       34.642     1689.316     2407.407     1200.042        0.610        0.265       52.692       14.295        0.074      352.105       34.509      860.298
07/18/2014  14:02:00       21.707       33.993       55.633       59.626       43.065       41.977     3555.255     1854.627     1762.038        0.595        0.359       40.332       41.860        1.077      351.824       34.018      860.285
07/18/2014  14:03:00       60.804       26.066       37.169       37.303       37.135       29.814     1391.506     1378.986      888.882        0.471        0.183       66.155       18.671        0.080      351.306       33.113      860.282
07/18/2014  14:04:00       67.881      -56.294       20.311       93.692       99.456       56.784     8778.148     9891.571     3224.373        1.504        1.095       88.186       63.386        0.517      351.817       34.005      860.265
07/18/2014  14:05:00       26.671       16.025       57.736       54.673       73.955       54.415     2989.104     5469.399     2960.945        0.786        0.571       31.115       50.002        2.582      351.957       34.249      860.235
07/18/2014  14:06:00       95.913     -115.211       -1.316       73.275       86.448       51.723     5369.254     7473.260     2675.309        1.899        0.776      149.909       60.003        0.160      351.419       33.308      860.229
07/18/2014  14:07:00       31.369     -148.180      -13.501       34.383       44.033       26.541     1182.200     1938.889      704.430        1.347        0.191      151.464       18.648        0.015      351.346       33.183      860.224
07/18/2014  14:08:00      -64.434      -32.064        9.603       60.544       56.938       31.866     3665.608     3241.947     1015.444        0.660        0.396       71.971       35.401        0.242      351.992       34.313      860.218
07/18/2014  14:09:00     -119.847      -19.252      -23.225       34.193       55.139       21.403     1169.166     3040.337      458.100        0.997        0.233      121.383       14.909        0.015      351.188       32.907      860.192
07/18/2014  14:10:00      -42.631       22.274        3.239       68.085       27.829       31.988     4635.611      774.471     1023.223        0.438        0.322       48.099       38.651        0.646      351.823       34.017      860.172
07/18/2014  14:11:00        0.902       -6.692       27.516       49.812       58.267       43.524     2481.276     3395.027     1894.325        0.429        0.389        6.753       43.041       40.628      351.720       33.838      860.160
07/18/2014  14:12:00       20.754      -69.913       29.371       44.173       46.425       34.191     1951.247     2155.314     1169.047        0.573        0.264       72.929       31.785        0.190      351.850       34.064      860.145
07/18/2014  14:13:00        7.795      -11.133       28.382       43.401       49.407       30.896     1883.651     2441.066      954.584        0.313        0.264       13.591       32.785        5.819      351.948       34.234      860.130
07/18/2014  14:14:00       14.945      -23.432       15.477       43.813       31.762       37.645     1919.579     1008.853     1417.148        0.268        0.217       27.793       26.135        0.884      352.134       34.562      860.109
07/18/2014  14:15:00        0.985      -15.867       44.851       45.009       42.521       24.820     2025.796     1808.023      616.037        0.336        0.222       15.898       26.377        2.753      352.293       34.838      860.108
07/18/2014  14:16:00      -13.036      -53.426       10.293       32.511       46.635       37.994     1056.940     2174.863     1443.545        0.390        0.234       54.994       25.665        0.218      352.132       34.555      860.086
07/18/2014  14:17:00       84.975     -123.732      -14.007       88.443       70.140       39.134     7822.138     4919.602     1531.500        1.850        0.714      150.101       48.792        0.106      351.574       33.580      860.059
07/18/2014  14:18:00      125.129     -138.091      -20.437       75.294       86.237       55.343     5669.121     7436.883     3062.872        2.565        0.808      186.350       53.599        0.083      351.568       33.569      860.036
07/18/2014  14:19:00       33.773      -87.325        9.786       99.856      124.675       60.912     9971.161    15543.962     3710.232        1.904        1.461       93.628       74.875        0.640      351.791       33.960      860.043
07/18/2014  14:20:00       25.183        5.631       65.863       48.538       75.650       45.274     2355.942     5722.955     2049.725        0.756        0.506       25.805       49.815        3.727      351.879       34.114      860.022
07/18/2014  14:21:00      150.329     -182.111      -41.917      117.724      111.573       57.206    13858.994    12448.623     3272.561        4.354        1.479      236.142       55.916        0.056      351.400       33.276      860.017
07/18/2014  14:22:00      136.622     -128.586       12.693       91.631      126.049       85.303     8396.234    15888.406     7276.594        3.345        1.578      187.617       81.088        0.187      351.724       33.841      860.003
07/18/2014  14:23:00      137.373     -127.422      -23.266       61.731       84.203       36.795     3810.757     7090.192     1353.847        2.395        0.613      187.370       31.580        0.028      351.423       33.316      860.037
07/18/2014  14:24:00      107.457       37.614       74.285       87.847       83.312       59.125     7717.047     6940.832     3495.802        1.831        0.908      113.850       47.837        0.177      351.576       33.584      860.050
07/18/2014  14:25:00       72.742       68.055       28.954      100.045       58.531       42.586    10008.937     3425.849     1813.542        1.300        0.762       99.613       36.889        0.137      351.490       33.434      860.034
07/18/2014  14:26:00      -86.394      -55.932        0.286       73.744       54.327       43.339     5438.196     2951.374     1878.312        1.043        0.513      102.918       44.643        0.188      351.736       33.865      860.028
07/18/2014  14:27:00      -73.946       -7.910       19.833       50.296       56.804       30.289     2529.731     3226.660      917.400        0.630        0.334       74.368       24.222        0.106      351.754       33.897      860.002
07/18/2014  14:28:00       -3.077       -3.339       27.709       43.511       38.380       24.607     1893.179     1473.008      605.505        0.238        0.199        4.540       23.654       27.141      352.012       34.346      859.987
07/18/2014  14:29:00      -15.940       -0.238       16.076       27.523       33.333       24.315      757.509     1111.089      591.228        0.149        0.123       15.942       20.519        1.657      352.330       34.903      859.970
07/18/2014  14:30:00      -10.040     -105.256        0.266       58.878       72.218       53.602     3466.572     5215.377     2873.212        1.137        0.578      105.734       46.106        0.190      351.723       33.842      859.934
07/18/2014  14:31:00      -80.676      -86.685       -8.182       49.550       65.447       38.997     2455.195     4283.316     1520.744        1.117        0.413      118.418       24.482        0.043      352.022       34.364      859.921
07/18/2014  14:32:00      -28.827     -123.766      -16.277       51.746       79.057       32.816     2677.623     6249.931     1076.877        1.321        0.500      127.079       16.245        0.016      351.835       34.036      859.917
07/18/2014  14:33:00        9.152      -10.813       30.368       31.240       47.175       38.848      975.926     2225.492     1509.191        0.292        0.236       14.166       35.114        6.144      352.181       34.643      859.904
07/18/2014  14:34:00     -101.205      -26.701        0.969       76.623       45.778       28.912     5871.018     2095.606      835.931        0.988        0.440      104.668       39.201        0.140      351.517       33.482      859.897
07/18/2014  14:35:00     -196.334       34.821      -18.156       48.421       61.356       24.644     2344.603     3764.607      607.336        2.340        0.336      199.398       18.917        0.009      351.207       32.940      859.866
07/18/2014  14:36:00     -139.922       56.861      -20.547       35.337       24.766       23.755     1248.713      613.374      564.321        1.283        0.121      151.034       15.364        0.010      351.340       33.173      859.862
07/18/2014  14:37:00       29.994      -22.276       20.768       63.992       58.707       37.144     4094.931     3446.456     1379.656        0.537        0.446       37.361       28.052        0.564      351.684       33.774      859.853
07/18/2014  14:38:00       51.953        7.607       31.993       51.798       56.966       36.841     2683.044     3245.173     1357.266        0.553        0.364       52.507       29.227        0.310      351.435       33.340      859.819
07/18/2014  14:39:00       42.656      -40.398       16.437       57.496       67.350       50.098     3305.847     4536.083     2509.822        0.703        0.518       58.750       41.363        0.496      351.578       33.590      859.820
07/18/2014  14:40:00       40.072      -17.481       40.922       66.173      101.982       69.339     4378.878    10400.328     4807.839        1.158        0.979       43.719       73.255        2.808      351.651       33.717      859.808
07/18/2014  14:41:00       74.647     -116.778       -9.623       57.985       61.982       38.392     3362.242     3841.775     1473.973        1.399        0.434      138.597       32.829        0.056      351.580       33.591      859.810
07/18/2014  14:42:00       58.639      -69.792       17.024       37.252       53.860       33.847     1387.716     2900.894     1145.594        0.702        0.272       91.156       29.932        0.108      351.602       33.631      859.816
07/18/2014  14:43:00       13.736     -102.183        6.232       62.110       55.037       49.709     3857.601     3029.066     2470.976        1.001        0.468      103.102       38.456        0.139      351.398       33.276      859.819
07/18/2014  14:44:00      -73.523      -73.821      -11.032       19.722       49.575       27.169      388.971     2457.716      738.162        0.728        0.179      104.188        7.793        0.006      351.253       33.020      859.808
07/18/2014  14:45:00       12.979        2.983       25.000       58.077       49.860       25.328     3372.920     2485.971      641.510        0.365        0.325       13.318       21.591        2.628      351.403       33.283      859.790
07/18/2014  14:46:00       26.176      -30.353        4.866       33.440       40.934       23.527     1118.259     1675.579      553.535        0.249        0.167       40.081       19.213        0.230      351.395       33.269      859.783
07/18/2014  14:47:00       33.560       -4.207      -10.929       27.098       44.212       25.137      734.311     1954.735      631.862        0.229        0.166       33.822       22.143        0.429      351.336       33.167      859.770
07/18/2014  14:48:00      -27.271      -39.588        5.435       28.577       42.655       37.088      816.664     1819.418     1375.529        0.318        0.201       48.072       32.217        0.449      351.402       33.282      859.763
07/18/2014  14:49:00        3.076       19.981       37.992       22.738       22.915       21.053      517.013      525.103      443.248        0.167        0.074       20.217       14.373        0.505      351.387       33.256      859.757
07/18/2014  14:50:00       32.336       36.138       12.883       32.298       40.038       23.763     1043.153     1603.077      564.681        0.286        0.161       48.493       12.410        0.065      351.255       33.026      859.752
07/18/2014  14:51:00       54.771       42.979       19.856       21.515       18.419       32.130      462.881      339.258     1032.331        0.354        0.092       69.621       11.644        0.028      351.185       32.901      859.745
07/18/2014  14:52:00       62.058       48.520        7.368       24.272       24.046       26.833      589.110      578.186      720.010        0.407        0.094       78.774       13.575        0.030      351.330       33.156      859.743
07/18/2014  14:53:00       40.996       15.259       11.257       33.972       25.436       23.852     1154.103      646.975      568.894        0.220        0.118       43.743       18.302        0.175      351.407       33.291      859.741
07/18/2014  14:54:00      -11.585       29.372       12.319       26.064       34.653       24.328      679.334     1200.807      591.870        0.181        0.124       31.574       24.128        0.584      351.399       33.277      859.741
07/18/2014  14:55:00       -8.162       40.177       11.057       23.986       27.244       24.713      575.332      742.211      610.734        0.187        0.096       40.998       25.128        0.376      351.352       33.195      859.739
07/18/2014  14:56:00       11.394       -4.516        2.383       16.542       14.729       16.054      273.623      216.943      257.727        0.045        0.037       12.256        5.607        0.209      351.286       33.081      859.745
07/18/2014  14:57:00       -1.095        0.414       20.309       11.907        9.103        5.796      141.779       82.862       33.593        0.034        0.013        1.171        3.183        7.389      351.859       34.079      859.744
07/18/2014  14:58:00      -10.941       11.789       23.936       20.254       14.726       11.112      410.222      216.845      123.486        0.079        0.038       16.084        5.864        0.133      351.781       33.944      859.740
07/18/2014  14:59:00      -33.157       13.773       -0.622       21.923       22.645       16.727      480.608      512.783      279.783        0.128        0.064       35.904       12.668        0.124      351.573       33.579      859.733
07/18/2014  15:00:00       11.964       17.082       25.081       29.416       18.366       19.846      865.286      337.305      393.869        0.133        0.080       20.855       17.707        0.721      351.169       32.876      859.732
07/18/2014  15:01:00      -14.818       10.402       25.301       30.121       32.195       20.878      907.260     1036.512      435.890        0.167        0.119       18.105       14.946        0.681      351.231       32.984      859.745
07/18/2014  15:02:00     -142.522       25.649        7.893       73.127       59.231       32.878     5347.539     3508.308     1080.938        1.548        0.497      144.811       38.776        0.072      351.525       33.495      859.751
07/18/2014  15:03:00     -145.511      -14.322       12.276      100.517       62.011       35.735    10103.593     3845.326     1276.989        1.837        0.761      146.214       43.748        0.090      351.579       33.589      859.746
07/18/2014  15:04:00     -112.465      -58.227        9.052      106.675      103.087       43.205    11379.616    10626.974     1866.644        1.999        1.194      126.644       53.114        0.176      351.589       33.607      859.740
07/18/2014  15:05:00     -130.647     -106.859        2.320       90.416       68.507       47.350     8175.142     4693.167     2242.016        2.180        0.756      168.783       50.058        0.088      351.510       33.467      859.727
07/18/2014  15:06:00     -109.240      -29.223       14.063      104.801       40.413       32.148    10983.165     1633.198     1033.466        1.331        0.682      113.082       34.924        0.095      351.583       33.596      859.731
07/18/2014  15:07:00      -84.631        6.732       17.482       70.148       51.375       43.592     4920.746     2639.431     1900.292        0.849        0.473       84.898       39.400        0.215      351.672       33.753      859.730
07/18/2014  15:08:00      -61.674        6.731        3.944       52.704       36.045       28.658     2777.725     1299.230      821.306        0.438        0.245       62.040       27.462        0.196      351.684       33.774      859.744
07/18/2014  15:09:00     -145.429      -56.945        0.405       66.884       43.827       28.109     4473.461     1920.828      790.104        1.579        0.359      156.181       32.717        0.044      351.497       33.446      859.742
07/18/2014  15:10:00     -210.641      -17.219       -8.614       97.117       38.104       34.054     9431.632     1451.901     1159.698        2.839        0.602      211.344       37.520        0.032      351.533       33.509      859.734
07/18/2014  15:11:00     -198.430      -62.644      -23.027       54.443       65.828       30.512     2964.031     4333.282      930.955        2.603        0.411      208.084       24.895        0.014      351.520       33.484      859.727
07/18/2014  15:12:00     -148.901      -51.948       -2.705       60.468       46.465       34.429     3656.414     2158.992     1185.387        1.594        0.350      157.703       30.550        0.038      351.547       33.535      859.734
07/18/2014  15:13:00     -118.858       77.237      -14.728       50.922       86.737       27.999     2593.042     7523.284      783.948        1.560        0.545      141.749       31.474        0.049      351.490       33.435      859.743
07/18/2014  15:14:00     -175.657      -44.871        5.275       53.214       54.194       32.577     2831.710     2936.942     1061.231        1.986        0.341      181.297       25.028        0.019      351.479       33.415      859.742
07/18/2014  15:15:00     -149.677      -15.848       -6.529       42.116       39.057       21.962     1773.785     1525.444      482.320        1.324        0.189      150.514       18.368        0.015      351.431       33.334      859.736
07/18/2014  15:16:00      -62.417      -22.135       11.549       65.701       51.267       28.322     4316.580     2628.265      802.115        0.613        0.387       66.226       24.977        0.142      351.547       33.535      859.725
07/18/2014  15:17:00       -1.545       32.242       15.063       30.344       35.936       26.352      920.760     1291.368      694.404        0.209        0.145       32.279       22.478        0.485      351.683       33.773      859.728
07/18/2014  15:18:00      -32.789       19.854        3.329       31.668       29.237       21.018     1002.842      854.790      441.763        0.189        0.115       38.332       17.805        0.216      351.527       33.500      859.707
07/18/2014  15:19:00      -92.943       71.292       -7.181       53.163       43.391       34.214     2826.323     1882.749     1170.591        0.982        0.294      117.136       28.592        0.060      351.518       33.484      859.692
07/18/2014  15:20:00      -88.747       97.289      -19.522       58.534       64.408       37.766     3426.192     4148.382     1426.267        1.336        0.450      131.686       37.469        0.081      351.542       33.526      859.683
07/18/2014  15:21:00     -108.187       82.010       -7.813       45.304       51.574       28.762     2052.475     2659.872      827.243        1.201        0.277      135.757       17.566        0.017      351.543       33.528      859.672
07/18/2014  15:22:00     -110.180      128.238      -19.322       56.345       45.324       29.599     3174.807     2054.263      876.092        1.753        0.305      169.070       31.889        0.036      351.466       33.391      859.661
07/18/2014  15:23:00     -217.944      118.583      -33.670       49.671       56.469       35.540     2467.199     3188.787     1263.091        3.481        0.346      248.116       28.264        0.013      351.434       33.330      859.660
07/18/2014  15:24:00     -115.954      171.680      -23.330       72.647       54.962       41.009     5277.657     3020.789     1681.748        2.672        0.499      207.169       38.857        0.035      351.461       33.380      859.650
07/18/2014  15:25:00      -94.328      254.324      -27.669       59.885       97.475       42.451     3586.208     9501.290     1802.126        4.461        0.744      271.253       46.204        0.029      351.449       33.360      859.635
07/18/2014  15:26:00      -17.286      119.393        6.901       37.867       69.883       30.736     1433.945     4883.703      944.706        1.093        0.363      120.638       35.551        0.087      351.595       33.617      859.643
07/18/2014  15:27:00       41.426       87.437       -3.213       30.289       39.418       27.448      917.427     1553.781      753.388        0.630        0.161       96.754       23.646        0.060      351.482       33.421      859.617
07/18/2014  15:28:00       56.472       -4.595        2.037       40.691       35.895       22.366     1655.762     1288.432      500.231        0.333        0.172       56.659       12.473        0.048      351.432       33.335      859.595
07/18/2014  15:29:00      -12.254      -33.554       -1.075       41.790       36.270       19.406     1746.387     1315.541      376.611        0.236        0.172       35.721       21.386        0.358      351.359       33.206      859.599
07/18/2014  15:30:00      -75.632      -39.188        1.018       42.104       34.275       19.643     1772.729     1174.767      385.851        0.529        0.167       85.181       18.023        0.045      351.539       33.520      859.583
07/18/2014  15:31:00      -84.411       -4.717       -1.995       31.991       47.063       17.764     1023.441     2214.953      315.555        0.535        0.178       84.542       16.712        0.039      351.525       33.496      859.567
07/18/2014  15:32:00     -142.931      -84.688        2.952       82.622       49.277       27.506     6826.437     2428.212      756.579        1.881        0.501      166.136       10.956        0.004      351.525       33.495      859.569
07/18/2014  15:33:00     -136.520      -27.680       -8.545       48.775       40.921       23.572     2378.982     1674.525      555.640        1.204        0.230      139.297        5.764        0.002      351.391       33.258      859.563
07/18/2014  15:34:00     -148.771      -89.485      -11.040       49.603       45.981       36.906     2460.499     2114.281     1362.037        1.810        0.297      173.610       34.796        0.040      351.449       33.361      859.558
07/18/2014  15:35:00     -131.622      -35.907        2.865       51.286       61.853       23.975     2630.246     3825.810      574.789        1.282        0.352      136.432       20.361        0.022      351.444       33.352      859.568
07/18/2014  15:36:00     -142.429      -50.850       -6.512       27.524       30.774       23.278      757.590      947.045      541.866        1.258        0.112      151.234       15.964        0.011      351.450       33.363      859.556
07/18/2014  15:37:00      -56.135      -31.074        5.400       32.654       36.056       15.847     1066.304     1300.068      251.129        0.338        0.131       64.162       15.741        0.060      351.449       33.363      859.556
07/18/2014  15:38:00      -32.548        0.813       12.791       27.494       20.965       17.831      755.937      439.523      317.937        0.137        0.076       32.558       14.224        0.191      351.523       33.493      859.547
07/18/2014  15:39:00       18.147        6.744       19.674       43.959       28.480       23.949     1932.420      811.124      573.555        0.204        0.166       19.359       10.681        0.304      350.990       32.563      859.530
07/18/2014  15:40:00       -6.688      -14.682       13.517       38.086       31.836       18.230     1450.513     1013.505      332.339        0.162        0.140       16.134       23.449        2.113      351.073       32.708      859.514
07/18/2014  15:41:00      -13.634       -7.385       21.887       29.794       25.549       16.726      887.709      652.761      279.764        0.127        0.091       15.506       16.055        1.072      351.152       32.844      859.509
07/18/2014  15:42:00       -4.682       -2.469       22.873       21.223       22.867       20.427      450.396      522.892      417.246        0.097        0.070        5.293       15.811        8.922      351.064       32.693      859.480
07/18/2014  15:43:00      -20.558        9.524       13.008       30.879       13.978       18.604      953.520      195.396      346.105        0.109        0.075       22.657       15.031        0.440      351.191       32.914      859.468
07/18/2014  15:44:00      -76.444      -21.401        9.604       56.621       58.644       25.619     3205.932     3439.173      656.316        0.685        0.365       79.383       28.645        0.130      351.502       33.454      859.458
07/18/2014  15:45:00     -230.922       39.025      -12.611       89.031       65.979       35.014     7926.486     4353.242     1225.997        3.425        0.675      234.196       32.768        0.020      351.520       33.485      859.445
07/18/2014  15:46:00     -235.281       42.637      -21.551       37.880       45.854       26.401     1434.926     2102.612      697.006        3.094        0.212      239.113       24.383        0.010      351.450       33.361      859.446
07/18/2014  15:47:00     -109.930       -5.545       -5.632       67.612       35.864       20.723     4571.334     1286.242      429.443        0.922        0.314      110.070       25.486        0.054      351.536       33.513      859.459
07/18/2014  15:48:00      -30.984        7.301        7.509       31.796       22.663       21.353     1010.988      513.609      455.960        0.152        0.099       31.832       21.505        0.456      351.735       33.861      859.440
07/18/2014  15:49:00       21.840        4.644       14.889       19.554       17.540       17.469      382.346      307.656      305.161        0.086        0.050       22.328        9.296        0.173      351.306       33.114      859.425
07/18/2014  15:50:00       30.478       20.334       10.434       26.974       13.776       21.304      727.587      189.775      453.866        0.141        0.069       36.638       13.882        0.144      350.740       32.128      859.420
07/18/2014  15:51:00       26.767       19.365        9.856       21.483       21.047       26.171      461.514      442.964      684.938        0.139        0.079       33.037       12.440        0.142      350.858       32.335      859.400
07/18/2014  15:52:00      -15.709       38.751       -0.146       15.970       30.070       13.191      255.034      904.199      174.001        0.154        0.067       41.814        9.478        0.051      351.208       32.944      859.371
07/18/2014  15:53:00       -7.183       84.059       -1.517       21.541       24.967       17.155      464.030      623.363      294.305        0.425        0.069       84.365       11.709        0.019      351.295       33.093      859.365
07/18/2014  15:54:00      -22.263       99.144      -13.196       24.772       49.813       19.605      613.656     2481.364      384.336        0.699        0.174      101.613       25.382        0.062      351.402       33.280      859.348
07/18/2014  15:55:00      -27.583       65.081       -1.147       28.359       32.903       23.157      804.231     1082.616      536.258        0.371        0.121       70.685       21.837        0.095      351.460       33.385      859.335
07/18/2014  15:56:00       -7.258      116.746      -12.926       23.214       55.948       18.753      538.886     3130.218      351.671        0.893        0.201      116.972       25.053        0.046      351.475       33.409      859.330
07/18/2014  15:57:00      -33.947       94.108       -0.105       38.750       44.775       27.983     1501.585     2004.791      783.031        0.715        0.214      100.044       29.616        0.088      351.541       33.525      859.331
07/18/2014  15:58:00      -68.262       82.761      -13.927       26.087       31.800       16.233      680.512     1011.265      263.498        0.683        0.098      107.280       14.813        0.019      351.445       33.356      859.319
07/18/2014  15:59:00       -5.350       21.503        9.531        9.619       16.291       13.393       92.528      265.386      179.371        0.056        0.027       22.159        4.143        0.035      351.732       33.858      859.303
07/18/2014  16:00:00        3.869       82.473      -12.299       21.531       18.570       10.487      463.585      344.829      109.973        0.394        0.046       82.564        5.999        0.005      351.505       33.462      859.295
07/18/2014  16:01:00       -9.131       19.423       13.650       22.452       19.337       19.533      504.086      373.913      381.531        0.095        0.063       21.463       15.867        0.547      351.691       33.786      859.301
07/18/2014  16:02:00      -19.149       42.172       14.994       19.398       26.881       20.135      376.288      722.592      405.407        0.194        0.075       46.316       15.018        0.105      351.569       33.575      859.305
07/18/2014  16:03:00     -126.632       33.921      -10.189       42.610       33.759       21.734     1815.646     1139.651      472.351        1.036        0.171      131.097       25.240        0.037      351.457       33.375      859.299
07/18/2014  16:04:00      -67.109       -2.971       -7.685       38.545       33.870       19.717     1485.688     1147.199      388.755        0.380        0.151       67.175       17.437        0.067      351.532       33.509      859.295
07/18/2014  16:05:00       -9.381       31.061       -2.902       14.958       29.434       16.898      223.729      866.373      285.547        0.122        0.069       32.446       13.486        0.173      351.685       33.776      859.292
07/18/2014  16:06:00      -53.061       21.190        4.463       23.409       11.457       18.618      547.972      131.257      346.628        0.215        0.051       57.136       18.022        0.099      351.637       33.690      859.296
07/18/2014  16:07:00     -114.397       49.200      -13.179       42.150       47.116       20.138     1776.657     2219.916      405.523        1.004        0.220      124.529       18.497        0.022      351.492       33.440      859.306
07/18/2014  16:08:00     -146.867       32.719      -14.401       32.917       40.703       25.470     1083.521     1656.722      648.745        1.312        0.169      150.467       15.426        0.011      351.542       33.524      859.306
07/18/2014  16:09:00     -129.824       46.010       -3.443       60.403       28.223       26.275     3648.534      796.566      690.398        1.206        0.257      137.736       28.715        0.043      351.566       33.568      859.307
07/18/2014  16:10:00      -27.453        7.992       21.201       55.693       52.125       40.666     3101.711     2717.065     1653.721        0.437        0.374       28.593       39.208        1.880      351.805       33.985      859.297
07/18/2014  16:11:00       -7.339       -9.557       22.112       26.970       55.747       23.716      727.381     3107.688      562.472        0.251        0.220       12.050       20.749        2.965      351.677       33.761      859.303
07/18/2014  16:12:00      -45.769       14.805        4.631       27.833       40.000       19.907      774.693     1600.002      396.277        0.255        0.139       48.104       13.317        0.077      351.669       33.750      859.304
07/18/2014  16:13:00     -130.958       39.686       -5.355       54.306       33.153       29.413     2949.148     1099.137      865.144        1.183        0.246      136.839       30.297        0.049      351.654       33.724      859.299
07/18/2014  16:14:00     -135.111       51.575      -13.317       50.278       66.880       28.563     2527.840     4472.868      815.871        1.445        0.391      144.620       29.954        0.043      351.655       33.723      859.292
07/18/2014  16:15:00      -74.731       52.006       12.504       47.987       75.177       34.907     2302.742     5651.547     1218.467        0.881        0.459       91.045       24.933        0.075      351.737       33.866      859.287
07/18/2014  16:16:00     -153.571       33.375      -14.692       61.906       54.006       29.299     3832.345     2916.618      858.432        1.626        0.380      157.156       34.069        0.047      351.669       33.746      859.286
07/18/2014  16:17:00     -121.378       27.938       -5.536       47.338       59.413       27.933     2240.880     3529.905      780.266        1.105        0.328      124.552       20.298        0.027      351.655       33.725      859.280
07/18/2014  16:18:00     -123.247      -33.217       -8.581       68.939       47.196       29.550     4752.548     2227.444      873.180        1.211        0.393      127.645       33.836        0.070      351.645       33.706      859.270
07/18/2014  16:19:00        1.289      -21.076       11.947       33.686       25.929       17.212     1134.780      672.314      296.249        0.135        0.105       21.115       12.852        0.370      351.597       33.621      859.273
07/18/2014  16:20:00        1.218        7.796       20.757       11.507       14.562       14.616      132.402      212.041      213.625        0.053        0.028        7.890        6.523        0.683      351.442       33.350      859.274
07/18/2014  16:21:00       16.301       -6.738       10.729       22.101       31.390       21.941      488.448      985.326      481.400        0.119        0.098       17.638       23.848        1.828      350.821       32.271      859.287
07/18/2014  16:22:00      -17.342        7.470       17.891       27.178       16.147       13.586      738.650      260.736      184.572        0.093        0.059       18.882       14.267        0.571      351.399       33.277      859.301
07/18/2014  16:23:00        4.123       -3.166       25.038       49.002       19.385       24.467     2401.187      375.763      598.641        0.201        0.169        5.198       18.867       13.174      351.173       32.882      859.323
07/18/2014  16:24:00      -30.898      -34.986        4.108       66.956       45.798       36.492     4483.089     2097.437     1331.644        0.505        0.396       46.677       25.738        0.304      351.315       33.131      859.345
07/18/2014  16:25:00      -62.174      -24.836        6.483       40.026       32.976       17.526     1602.056     1087.429      307.156        0.376        0.150       66.951       18.478        0.076      351.588       33.606      859.371
07/18/2014  16:26:00      -67.474       -9.399       -3.303       33.586       26.147       13.187     1128.032      683.687      173.896        0.332        0.099       68.125       12.313        0.033      351.582       33.595      859.398
07/18/2014  16:27:00     -108.689      -31.825       -2.088       37.795       52.627       25.619     1428.461     2769.636      656.318        0.884        0.243      113.253       17.614        0.024      351.580       33.592      859.421
07/18/2014  16:28:00     -195.568      -35.349       -8.870       43.709       42.857       25.738     1910.512     1836.719      662.437        2.199        0.220      198.737       20.114        0.010      351.634       33.684      859.440
07/18/2014  16:29:00      -93.695        0.617      -14.249       40.572       50.142       30.519     1646.088     2514.248      931.395        0.704        0.255       93.697       26.506        0.080      351.628       33.677      859.464
07/18/2014  16:30:00      -43.507       73.514        3.328       47.331       62.792       32.835     2240.257     3942.891     1078.107        0.728        0.363       85.423       38.036        0.198      351.628       33.677      859.481
07/18/2014  16:31:00      -62.663       54.789       -3.825       45.823       25.270       22.311     2099.736      638.582      497.759        0.509        0.162       83.238       22.142        0.071      351.530       33.505      859.485
07/18/2014  16:32:00      -75.590       45.906       -4.458       35.614       34.315       24.317     1268.366     1177.518      591.301        0.544        0.152       88.437       21.470        0.059      351.532       33.510      859.494
07/18/2014  16:33:00      -25.407        4.144       11.706       41.845       30.968       21.200     1750.981      959.035      449.451        0.198        0.158       25.743       14.882        0.334      351.550       33.541      859.512
07/18/2014  16:34:00     -230.108      -57.474      -12.121       58.442       40.418       29.472     3415.493     1633.608      868.589        3.116        0.296      237.177       29.678        0.016      351.539       33.515      859.533
07/18/2014  16:35:00     -169.951      -64.772        1.848       66.654       60.379       33.477     4442.766     3645.671     1120.713        2.114        0.460      181.876       29.812        0.027      351.547       33.532      859.540
07/18/2014  16:36:00     -132.471      -78.654       -2.682       80.433       51.103       37.621     6469.471     2611.548     1415.329        1.712        0.525      154.062       41.937        0.074      351.512       33.473      859.542
07/18/2014  16:37:00     -182.347      -17.600      -16.488       35.548       54.033       19.104     1263.693     2919.549      364.976        1.919        0.227      183.195       18.875        0.011      351.515       33.475      859.541
07/18/2014  16:38:00     -111.174      -54.954       -0.446       79.331       77.181       32.734     6293.363     5956.935     1071.483        1.435        0.666      124.015       24.687        0.040      351.479       33.415      859.542
07/18/2014  16:39:00     -162.418      -70.476        2.181       62.765       53.399       29.800     3939.439     2851.478      888.021        1.951        0.384      177.050       24.265        0.019      351.496       33.445      859.555
07/18/2014  16:40:00      -63.695      -24.055       -0.895       43.225       45.300       21.607     1868.367     2052.077      466.870        0.451        0.219       68.086       21.506        0.100      351.496       33.448      859.534
07/18/2014  16:41:00      -37.382        4.870       -6.833       23.542       17.999       20.278      554.206      323.949      411.182        0.138        0.064       37.698       11.678        0.096      351.441       33.346      859.498
07/18/2014  16:42:00     -190.104      -12.781      -13.518      168.218       58.014       42.609    28297.148     3365.581     1815.548        3.498        1.674      190.533       56.798        0.089      351.410       33.297      859.491
07/18/2014  16:43:00     -313.199       93.561      -35.316       94.943      123.195       52.106     9014.129    15177.096     2715.081        6.749        1.345      326.875       43.484        0.018      351.314       33.126      859.448
07/18/2014  16:44:00     -398.367     -131.415       -0.277      154.673      125.015       66.752    23923.618    15628.722     4455.791       10.998        2.200      419.484       73.548        0.031      351.330       33.152      859.456
07/18/2014  16:45:00     -288.885      -36.435      -32.465       68.770       84.612       41.770     4729.315     7159.139     1744.707        4.973        0.682      291.173       34.976        0.014      351.335       33.158      859.463
07/18/2014  16:46:00     -108.140       58.356      -13.234       80.683       50.624       35.378     6509.712     2562.770     1251.578        1.280        0.516      122.881       38.350        0.097      351.325       33.145      859.439
07/18/2014  16:47:00     -183.580       -5.098      -20.087       65.908       40.803       27.515     4343.854     1664.925      757.065        2.045        0.338      183.651       28.848        0.025      351.316       33.131      859.422
07/18/2014  16:48:00      -63.807       94.458       -1.012       61.840       87.202       37.988     3824.215     7604.188     1443.055        1.293        0.644      113.989       50.511        0.196      351.362       33.210      859.434
07/18/2014  16:49:00      -83.114       89.405      -13.169       46.528       62.403       24.198     2164.811     3894.138      585.556        1.086        0.332      122.071       24.709        0.041      351.328       33.154      859.455
07/18/2014  16:50:00      -68.974        1.234       -8.002       37.354       26.612       15.426     1395.336      708.198      237.949        0.358        0.117       68.985       18.291        0.070      351.318       33.136      859.459
07/18/2014  16:51:00      -19.312        2.967        6.560       28.013       19.230       20.580      784.727      369.775      423.526        0.100        0.079       19.538       23.243        1.415      351.260       33.032      859.473
07/18/2014  16:52:00       33.337       -8.042       10.460       32.916       44.281       18.714     1083.439     1960.791      350.232        0.234        0.170       34.294       21.974        0.411      350.861       32.340      859.502
07/18/2014  16:53:00     -125.076      -60.961      -12.370       70.483       38.791       22.760     4967.917     1504.721      517.999        1.325        0.350      139.142       19.206        0.019      351.190       32.912      859.541
07/18/2014  16:54:00     -100.727       37.929       -0.999      108.846       68.661       52.129    11847.449     4714.350     2717.418        1.543        0.964      107.632       50.878        0.223      351.335       33.164      859.598
07/18/2014  16:55:00     -282.156      219.270      -56.320      196.839      224.996      101.082    38745.634    50623.278    10217.500       11.520        4.979      357.340       72.875        0.042      351.253       33.017      859.553
07/18/2014  16:56:00     -311.963      153.914      -34.366      198.142      123.281       80.898    39260.386    15198.197     6544.479        9.159        3.050      347.866       88.547        0.065      351.220       32.960      859.567
07/18/2014  16:57:00     -183.570      177.619      -25.941      141.034      147.176       71.177    19890.497    21660.668     5066.154        5.626        2.331      255.434       77.262        0.091      351.208       32.940      859.570
07/18/2014  16:58:00     -161.977       33.575       -9.299      107.648      146.804       59.248    11588.106    21551.436     3510.289        3.204        1.832      165.420       62.369        0.142      351.206       32.937      859.555
07/18/2014  16:59:00     -164.970      123.952      -13.769      108.704      153.324       70.616    11816.583    23508.213     4986.658        4.153        2.016      206.347       61.497        0.089      351.115       32.778      859.578
07/18/2014  17:00:00     -281.399      184.890      -58.138      162.798      164.741       73.121    26503.333    27139.708     5346.624        8.786        2.949      336.705       74.608        0.049      351.021       32.615      859.569
07/18/2014  17:01:00     -189.167       72.237      -17.856       99.672      138.660       78.583     9934.581    19226.620     6175.248        3.832        1.767      202.490       65.406        0.104      350.988       32.555      859.565
07/18/2014  17:02:00     -215.463       90.656      -20.294      135.846       83.474       69.864    18454.087     6967.836     4880.957        4.267        1.515      233.758       57.574        0.061      350.949       32.488      859.570
07/18/2014  17:03:00     -181.948       67.502      -51.661      103.068      107.367       66.811    10622.913    11527.638     4463.757        3.347        1.331      194.066       28.920        0.022      350.936       32.467      859.552
07/18/2014  17:04:00     -207.502       94.504      -33.044      158.921      135.815       77.180    25255.988    18445.804     5956.679        5.136        2.483      228.009       81.891        0.129      350.906       32.416      859.557
07/18/2014  17:05:00     -384.361      132.089      -54.028      144.671      146.919       87.367    20929.811    21585.086     7633.075       10.911        2.507      406.424       82.871        0.042      350.854       32.323      859.570
07/18/2014  17:06:00     -268.008      118.015      -55.669      164.480      163.138       72.904    27053.632    26614.143     5315.044        7.391        2.949      292.841       96.112        0.108      350.868       32.349      859.546
07/18/2014  17:07:00     -290.110       -8.537       -2.249      171.981      149.684       81.922    29577.605    22405.236     6711.238        7.146        2.935      290.236       92.024        0.101      350.857       32.330      859.547
07/18/2014  17:08:00     -215.570       80.745      -32.406      147.103      167.042       84.542    21639.382    27902.902     7147.293        5.535        2.834      230.196       83.364        0.131      350.855       32.324      859.548
07/18/2014  17:09:00     -159.795       69.104        0.035      154.101      113.880       62.770    23746.992    12968.757     3940.115        3.547        2.033      174.097       54.174        0.097      350.864       32.342      859.550
07/18/2014  17:10:00     -228.725       74.958      -35.361      116.478      131.023       82.956    13567.210    17167.143     6881.666        4.839        1.881      240.694       63.945        0.071      350.852       32.320      859.568
07/18/2014  17:11:00     -214.138      142.587      -34.506      154.212      152.624       77.507    23781.350    23293.991     6007.347        6.022        2.654      257.266       80.922        0.099      350.808       32.244      859.609
07/18/2014  17:12:00     -288.746       40.079      -37.781      150.474      167.474       79.964    22642.563    28047.418     6394.171        7.173        2.854      291.514       72.983        0.063      350.754       32.149      859.611
07/18/2014  17:13:00     -261.944      113.821      -24.588      180.554      101.410       85.219    32599.813    10283.894     7262.274        6.615        2.507      285.604       92.555        0.105      350.737       32.119      859.604
07/18/2014  17:14:00     -210.146       91.490      -20.784      140.561      117.767       65.689    19757.370    13869.137     4315.020        4.545        1.897      229.198       60.783        0.070      350.746       32.135      859.621
07/18/2014  17:15:00     -152.684       67.329      -15.902      117.803      122.695       59.184    13877.485    15054.055     3502.753        3.026        1.622      166.870       60.406        0.131      350.720       32.090      859.620
07/18/2014  17:16:00     -224.268       86.296      -30.578      119.231      127.106       91.170    14216.140    16156.046     8311.969        4.867        1.934      240.298       73.354        0.093      350.706       32.066      859.640
07/18/2014  17:17:00     -146.637       74.793       -8.591      104.210       82.161       65.468    10859.687     6750.380     4286.059        2.453        1.095      164.610       63.028        0.147      350.710       32.076      859.660
07/18/2014  17:18:00     -110.181       79.225      -22.655      125.878      104.989       64.662    15845.286    11022.626     4181.117        2.498        1.552      135.708       70.220        0.268      350.707       32.069      859.676
07/18/2014  17:19:00     -247.113      157.181      -51.776      125.283      112.448       61.668    15695.949    12644.534     3802.891        6.029        1.607      292.867       60.509        0.043      350.702       32.058      859.682
07/18/2014  17:20:00     -143.371        5.632       -1.967       86.481       97.555       57.134     7479.022     9517.035     3264.305        2.042        1.013      143.481       49.597        0.119      350.688       32.036      859.683
07/18/2014  17:21:00     -324.056      201.091      -46.428      213.496      112.893       82.249    45580.359    12744.933     6764.890       10.633        3.255      381.379       91.199        0.057      350.650       31.966      859.711
07/18/2014  17:22:00     -300.234      126.252      -32.325      128.922      153.820       90.168    16620.878    23660.636     8130.311        7.776        2.421      325.699       86.137        0.070      350.631       31.933      859.722
07/18/2014  17:23:00     -238.129      117.842      -24.290      128.284      136.223       91.134    16456.741    18556.633     8305.460        5.724        2.166      265.692       74.845        0.079      350.631       31.933      859.735
07/18/2014  17:24:00     -233.463      130.665      -26.258      156.952      100.230       76.014    24634.074    10046.080     5778.111        5.635        2.023      267.541       65.585        0.060      350.619       31.913      859.743
07/18/2014  17:25:00     -229.093      135.749      -11.098      157.285      108.697       81.055    24738.650    11815.044     6569.993        5.707        2.156      266.292       84.627        0.101      350.563       31.817      859.769
07/18/2014  17:26:00     -110.814      104.334      -31.527       70.186       78.681       45.909     4926.036     6190.640     2107.650        1.869        0.661      152.202       43.739        0.083      350.564       31.821      859.769
07/18/2014  17:27:00     -317.447      128.865      -53.513      149.745      173.038       74.569    22423.449    29942.236     5560.485        8.907        2.896      342.606       82.580        0.058      350.525       31.751      859.791
07/18/2014  17:28:00     -208.934       10.831      -18.893      106.178       96.642       52.255    11273.693     9339.699     2730.632        3.373        1.167      209.215       52.149        0.062      350.510       31.726      859.798
07/18/2014  17:29:00     -252.737        3.638      -11.267      169.602      157.749       76.630    28764.877    24884.843     5872.106        6.176        2.976      252.763       84.749        0.112      350.529       31.756      859.798
07/18/2014  17:30:00     -243.233      -34.335      -11.924      153.429      116.695       69.550    23540.497    13617.628     4837.230        5.123        2.100      245.645       77.067        0.098      350.505       31.716      859.808
07/18/2014  17:31:00     -267.847      121.660      -40.874      183.622      177.510       82.843    33717.143    31509.791     6862.931        8.014        3.604      294.182      100.981        0.118      350.512       31.727      859.819
07/18/2014  17:32:00     -188.767       65.871      -16.215      111.124      110.438       62.532    12348.575    12196.650     3910.211        3.434        1.423      199.930       63.128        0.100      350.453       31.626      859.830
07/18/2014  17:33:00     -342.495       -5.937      -32.817      136.760      127.353       69.783    18703.292    16218.717     4869.730        7.910        1.990      342.546       72.741        0.045      350.526       31.750      859.840
07/18/2014  17:34:00     -314.452      -16.377      -23.482      160.808      154.536       79.056    25859.183    23881.286     6249.822        7.783        2.800      314.878       67.507        0.046      350.527       31.753      859.860
07/18/2014  17:35:00     -328.588      -90.494      -15.315      144.031       99.824       56.270    20744.872     9964.754     3166.288        7.513        1.694      340.822       58.311        0.029      350.515       31.730      859.879
07/18/2014  17:36:00     -386.590      -75.382      -25.047      128.867       97.668       69.015    16606.800     9539.072     4763.034        9.333        1.545      393.871       72.354        0.034      350.522       31.743      859.905
07/18/2014  17:37:00     -214.660       -1.025       -4.487      113.455       91.315       46.649    12872.134     8338.443     2176.110        3.474        1.169      214.663       52.397        0.060      350.521       31.742      859.930
07/18/2014  17:38:00     -202.506      -71.800        9.654      156.266      106.488       70.582    24419.138    11339.663     4981.828        4.349        2.037      214.858       66.993        0.097      350.481       31.673      859.946
07/18/2014  17:39:00     -377.999      -99.480      -27.793      131.399       93.369       54.177    17265.807     8717.699     2935.118        9.123        1.446      390.870       60.077        0.024      350.528       31.753      859.974
07/18/2014  17:40:00     -266.555      -83.665      -11.130      133.342      110.171       55.368    17780.063    12137.677     3065.647        5.557        1.649      279.376       48.792        0.031      350.517       31.735      860.011
07/18/2014  17:41:00     -233.029      -85.870      -12.465      141.997      110.847       54.291    20163.186    12287.029     2947.480        4.861        1.770      248.347       53.762        0.047      350.534       31.764      860.027
07/18/2014  17:42:00     -248.694        3.605       -7.014      111.061      119.386       62.949    12334.607    14252.924     3962.538        4.622        1.528      248.720       58.840        0.056      350.514       31.730      860.065
07/18/2014  17:43:00     -214.481      -70.851       -4.610      172.414       79.793       47.214    29726.747     6366.977     2229.192        4.468        1.916      225.881       60.136        0.071      350.497       31.703      860.087
07/18/2014  17:44:00     -194.053      -33.108       -1.618      180.960      116.924       73.990    32746.479    13671.318     5474.451        4.531        2.595      196.857       85.586        0.189      350.496       31.700      860.082
07/18/2014  17:45:00     -252.796      -41.275       -1.894      169.593      113.999       67.626    28761.849    12995.860     4573.309        5.596        2.317      256.143       83.717        0.107      350.509       31.722      860.086
07/18/2014  17:46:00     -337.949     -112.459       -9.147      146.175      124.528       79.448    21367.204    15507.305     6312.048        8.505        2.159      356.170       77.953        0.048      350.552       31.797      860.104
07/18/2014  17:47:00     -304.521      -99.315       -5.057      132.241       96.530       63.638    17487.773     9318.077     4049.774        6.673        1.543      320.306       72.243        0.051      350.577       31.841      860.097
07/18/2014  17:48:00     -311.619      -75.143      -11.428      166.220      100.529       74.545    27629.213    10106.125     5556.883        7.308        2.165      320.551       65.001        0.041      350.603       31.885      860.081
07/18/2014  17:49:00     -277.693      -78.497      -11.465      141.351      141.034       65.197    19980.185    19890.663     4250.601        6.376        2.206      288.575       61.159        0.045      350.611       31.900      860.092
07/18/2014  17:50:00     -430.898      -16.294      -35.089      128.247      123.264       61.567    16447.383    15193.936     3790.484       11.129        1.772      431.206       62.125        0.021      350.627       31.926      860.096
07/18/2014  17:51:00     -231.836      -73.205      -18.057       83.170       84.546       48.505     6917.325     7148.083     2352.740        3.792        0.821      243.119       44.735        0.034      350.620       31.915      860.108
07/18/2014  17:52:00     -176.234      -67.499       10.369      119.839      109.195       62.705    14361.491    11923.528     3931.876        3.296        1.511      188.719       62.813        0.111      350.630       31.934      860.111
07/18/2014  17:53:00     -366.294      -71.020      -25.838      152.943      107.780       51.832    23391.593    11616.563     2686.567        8.878        1.885      373.115       53.298        0.020      350.653       31.974      860.110
07/18/2014  17:54:00     -344.679      -71.710      -19.785      170.566      152.461       74.058    29092.800    23244.428     5484.591        9.107        2.891      352.060       85.635        0.059      350.647       31.962      860.087
07/18/2014  17:55:00     -435.778      -74.192      -32.938      143.065      146.238       64.936    20467.542    21385.500     4216.677       12.127        2.303      442.049       61.162        0.019      350.672       32.007      860.082
07/18/2014  17:56:00     -411.044        7.789      -28.800      120.409      112.833       58.130    14498.318    12731.395     3379.122       10.022        1.530      411.118       50.882        0.015      350.677       32.014      860.081
07/18/2014  17:57:00     -206.384      -28.824        2.766      110.113       83.577       56.277    12124.781     6985.134     3167.154        3.285        1.114      208.387       61.355        0.087      350.661       31.988      860.063
07/18/2014  17:58:00     -291.353       -6.087      -18.274      171.895       88.761       60.677    29547.777     7878.561     3681.661        6.317        2.055      291.416       71.571        0.060      350.639       31.951      860.054
07/18/2014  17:59:00     -321.655      -43.818       -1.309      167.903      120.862       64.214    28191.400    14607.519     4123.413        7.614        2.346      324.626       69.340        0.046      350.681       32.024      860.035
07/18/2014  18:00:00     -226.299       11.648       -6.635      153.877       80.290       49.358    23678.126     6446.556     2436.185        4.197        1.628      226.598       64.708        0.082      350.647       31.965      860.017
07/18/2014  18:01:00     -161.001      -79.063        7.107      115.042       86.460       60.625    13234.588     7475.304     3675.400        2.830        1.219      179.366       57.252        0.102      350.655       31.979      859.997
07/18/2014  18:02:00     -198.237      -29.306       -7.379      146.825       99.287       56.208    21557.724     9857.946     3159.349        3.739        1.729      200.392       57.941        0.084      350.661       31.989      859.975
07/18/2014  18:03:00     -301.946     -156.138      -29.418      154.917      119.920       66.615    23999.207    14380.763     4437.602        7.961        2.141      339.927       76.735        0.051      350.684       32.028      859.957
07/18/2014  18:04:00     -291.655      -84.190       -9.327       85.621       75.813       51.565     7330.992     5747.611     2658.997        5.398        0.787      303.564       43.224        0.020      350.695       32.045      859.944
07/18/2014  18:05:00     -202.573      -37.625      -10.978      103.423       74.924       42.203    10696.304     5613.590     1781.126        3.033        0.905      206.037       47.346        0.053      350.670       32.005      859.932
07/18/2014  18:06:00     -285.821      -17.810      -16.547      115.265       68.079       46.864    13285.919     4634.712     2196.225        5.120        1.006      286.376       57.606        0.040      350.664       31.994      859.906
07/18/2014  18:07:00     -167.220     -112.491       -2.310      104.305       85.613       54.934    10879.610     7329.637     3017.783        3.092        1.061      201.536       55.339        0.075      350.619       31.915      859.885
07/18/2014  18:08:00     -128.686      -59.822       -0.230       92.040       61.881       36.136     8471.453     3829.304     1305.825        1.687        0.680      141.911       35.442        0.062      350.658       31.983      859.862
07/18/2014  18:09:00     -234.637      -17.478      -14.121       65.307       84.061       46.876     4264.951     7066.252     2197.376        3.454        0.676      235.287       35.669        0.023      350.652       31.971      859.849
07/18/2014  18:10:00     -219.695       -8.065       -3.363       97.228       87.340       46.201     9453.366     7628.260     2134.569        3.378        0.961      219.843       51.330        0.055      350.618       31.913      859.835
07/18/2014  18:11:00     -249.266      -20.121       -1.730       94.265       83.928       51.358     8885.958     7043.935     2637.672        4.055        0.928      250.076       53.514        0.046      350.620       31.915      859.827
07/18/2014  18:12:00     -225.196      -14.133      -12.317       99.078       80.630       39.716     9816.448     6501.119     1577.369        3.448        0.895      225.640       49.625        0.048      350.619       31.916      859.833
07/18/2014  18:13:00     -215.005      -77.460        1.569       96.811       75.645       48.899     9372.390     5722.189     2391.092        3.485        0.874      228.533       46.034        0.041      350.625       31.924      859.838
07/18/2014  18:14:00     -244.357       24.323      -26.435      110.455      103.395       48.707    12200.391    10690.520     2372.386        4.313        1.263      245.565       50.083        0.042      350.606       31.892      859.821
07/18/2014  18:15:00     -318.296      -37.174      -25.980      115.465       91.636       63.371    13332.075     8397.163     4015.821        6.455        1.287      320.460       55.374        0.030      350.585       31.853      859.817
07/18/2014  18:16:00     -231.637      -12.980      -16.887       93.711       79.341       41.087     8781.805     6294.950     1688.150        3.543        0.838      232.000       44.767        0.037      350.570       31.829      859.823
07/18/2014  18:17:00     -205.180      -76.640      -23.636       70.355       67.663       35.091     4949.784     4578.312     1231.378        2.964        0.538      219.026       29.686        0.018      350.602       31.885      859.811
07/18/2014  18:18:00     -191.497      -73.220      -16.584      108.407       62.827       53.152    11752.183     3947.179     2825.146        3.041        0.926      205.018       47.607        0.054      350.540       31.778      859.779
07/18/2014  18:19:00     -174.989      -38.518       -6.448      153.522      112.407       59.602    23568.982    12635.386     3552.453        3.594        1.988      179.178       78.012        0.190      350.490       31.691      859.761
07/18/2014  18:20:00     -231.743      -71.236      -34.522       99.632       93.492       64.176     9926.457     8740.747     4118.517        4.137        1.139      242.445       23.434        0.009      350.449       31.618      859.753
07/18/2014  18:21:00     -301.868      -54.392      -18.214       93.191      104.721       53.171     8684.578    10966.415     2827.134        5.844        1.124      306.729       41.218        0.018      350.421       31.569      859.731
07/18/2014  18:22:00     -354.439      -21.248      -18.532      112.530       69.597       59.669    12663.063     4843.789     3560.448        7.374        1.053      355.075       64.505        0.033      350.419       31.565      859.714
07/18/2014  18:23:00     -271.093      -47.394      -10.784       79.341       70.540       48.071     6294.918     4975.956     2310.813        4.472        0.679      275.204       44.583        0.026      350.424       31.573      859.695
07/18/2014  18:24:00     -261.673       -3.800      -26.663       91.536       84.267       40.851     8378.791     7101.001     1668.831        4.317        0.857      261.700       30.163        0.013      350.431       31.586      859.679
07/18/2014  18:25:00     -183.685      -90.377       -7.920       91.493       81.431       42.380     8370.879     6631.009     1796.040        2.938        0.840      204.715       40.487        0.039      350.424       31.575      859.684
07/18/2014  18:26:00     -210.223      -33.449       -1.605      113.274       76.088       44.380    12830.915     5789.361     1969.623        3.295        1.029      212.867       48.803        0.053      350.451       31.620      859.672
07/18/2014  18:27:00     -394.321        0.169      -16.718      150.797      131.671       65.497    22739.833    17337.373     4289.836       10.006        2.218      394.321       60.302        0.023      350.502       31.708      859.647
07/18/2014  18:28:00     -334.507      -33.326      -18.358      201.617      118.142       68.110    40649.594    13957.528     4638.959        8.628        2.962      336.163       95.173        0.080      350.524       31.748      859.639
07/18/2014  18:29:00     -206.331      -66.695        1.450      137.283      103.011       67.339    18846.574    10611.282     4534.558        4.050        1.700      216.843       66.515        0.094      350.479       31.671      859.641
07/18/2014  18:30:00     -521.613      -79.987      -32.763      140.200      120.641       75.114    19655.909    14554.161     5642.136       15.969        1.993      527.710       71.174        0.018      350.540       31.777      859.641
07/18/2014  18:31:00     -310.410      -41.608      -17.405      127.745      100.559       56.522    16318.823    10112.030     3194.731        6.400        1.481      313.186       63.053        0.041      350.530       31.757      859.651
07/18/2014  18:32:00     -353.530      -64.493      -20.010      161.315      121.155       64.072    26022.682    14678.492     4105.268        8.717        2.240      359.365       64.506        0.032      350.516       31.733      859.640
07/18/2014  18:33:00     -401.251      -98.127      -20.483      129.740      128.662       67.125    16832.391    16553.959     4505.763       10.446        1.895      413.075       52.222        0.016      350.543       31.779      859.642
07/18/2014  18:34:00     -290.270     -154.655        9.767      187.935      124.913       81.669    35319.511    15603.227     6669.883        8.292        2.880      328.899       85.329        0.067      350.524       31.748      859.611
07/18/2014  18:35:00     -252.374      -94.276      -17.548       80.517       99.639       56.258     6482.946     9927.992     3164.992        4.623        0.979      269.408       50.332        0.035      350.504       31.713      859.634
07/18/2014  18:36:00     -346.573      -34.707      -21.148      170.001      140.252       62.590    28900.436    19670.640     3917.463        8.712        2.624      348.307       72.660        0.044      350.488       31.684      859.600
07/18/2014  18:37:00     -416.481       -8.177      -40.719      116.080      103.416       60.983    13474.497    10694.969     3718.936       10.153        1.394      416.561       62.089        0.022      350.520       31.739      859.582
07/18/2014  18:38:00     -336.860       19.254      -20.583      149.555       97.308       47.786    22366.828     9468.823     2283.493        7.419        1.706      337.410       46.451        0.019      350.515       31.731      859.574
07/18/2014  18:39:00     -208.784       52.973      -12.491      101.501       96.624       46.445    10302.391     9336.215     2157.118        3.417        1.090      215.399       45.204        0.044      350.457       31.632      859.579
07/18/2014  18:40:00     -183.178       14.183      -30.735      104.888      125.511       59.380    11001.492    15753.040     3525.952        3.248        1.514      183.727       41.121        0.050      350.426       31.578      859.587
07/18/2014  18:41:00     -116.620      -15.917      -12.085       85.330       68.325       53.087     7281.200     4668.359     2818.237        1.438        0.738      117.701       49.501        0.177      350.401       31.538      859.576
07/18/2014  18:42:00      -38.988       16.530       12.926       84.622       75.649       59.504     7160.962     5722.828     3540.733        0.919        0.821       42.347       43.936        1.076      350.364       31.475      859.565
07/18/2014  18:43:00     -102.535      -10.345      -15.529       58.822       77.942       39.755     3459.995     6074.993     1580.490        1.099        0.556      103.055       20.798        0.041      350.380       31.503      859.565
07/18/2014  18:44:00     -110.678       31.512      -26.646       88.074       65.066       54.243     7757.101     4233.526     2942.304        1.444        0.747      115.077       35.031        0.093      350.396       31.530      859.558
07/18/2014  18:45:00     -245.198      -10.571      -24.838      111.995      113.691       83.043    12542.865    12925.541     6896.119        4.660        1.618      245.426       70.773        0.083      350.442       31.604      859.567
07/18/2014  18:46:00     -230.127      -83.155       -5.957      136.290       92.297       58.402    18574.938     8518.751     3410.837        4.520        1.525      244.690       56.472        0.053      350.451       31.623      859.552
07/18/2014  18:47:00     -211.741      -73.959        3.055      100.921      114.287       59.689    10185.046    13061.612     3562.826        3.856        1.340      224.286       54.930        0.060      350.456       31.630      859.557
07/18/2014  18:48:00     -177.837      -34.555       -5.247       98.844      127.238       54.766     9770.219    16189.625     2999.345        3.090        1.448      181.163       47.751        0.069      350.445       31.611      859.564
07/18/2014  18:49:00     -214.274      -53.511      -10.916      102.651       81.470       56.216    10537.327     6637.301     3160.207        3.461        1.017      220.855       42.850        0.038      350.452       31.620      859.568
07/18/2014  18:50:00     -333.236      -25.881      -31.276       84.224       77.259       53.720     7093.633     5968.938     2885.877        6.432        0.797      334.240       40.668        0.015      350.511       31.724      859.565
07/18/2014  18:51:00     -227.056      -21.589      -17.846       75.943       86.561       48.153     5767.372     7492.883     2318.725        3.396        0.779      228.080       46.350        0.041      350.489       31.686      859.561
07/18/2014  18:52:00     -331.563      -57.351      -16.143      182.423      105.239       64.761    33278.251    11075.275     4193.943        8.101        2.427      336.486       69.510        0.043      350.503       31.711      859.579
07/18/2014  18:53:00     -243.224      -42.112      -18.609      189.260       79.969       57.644    35819.487     6395.102     3322.854        5.340        2.277      246.843       80.464        0.106      350.489       31.687      859.591
07/18/2014  18:54:00     -338.617     -110.688      -32.002      149.581      115.603       54.427    22374.515    13363.951     2962.312        8.331        1.935      356.248       47.711        0.018      350.545       31.785      859.597
07/18/2014  18:55:00     -362.013      -40.412      -19.579      101.418       91.549       58.878    10285.636     8381.220     3466.630        7.760        1.107      364.261       53.072        0.021      350.542       31.777      859.620
07/18/2014  18:56:00     -170.619       -6.938      -11.115      112.665       94.934       51.493    12693.314     9012.526     2651.506        2.682        1.218      170.760       45.175        0.070      350.513       31.731      859.647
07/18/2014  18:57:00     -160.013      -10.171      -17.869       87.054       88.251       51.103     7578.473     7788.246     2611.561        2.200        0.899      160.336       36.836        0.053      350.570       31.830      859.644
07/18/2014  18:58:00     -191.369      -50.434       -0.594      106.963       81.241       42.906    11441.081     6600.178     1840.940        2.952        0.994      197.903       42.127        0.045      350.562       31.816      859.631
07/18/2014  18:59:00     -150.484      -34.840       -7.273       72.810       66.556       34.974     5301.354     4429.637     1223.149        1.743        0.548      154.465       34.967        0.051      350.537       31.772      859.630
07/18/2014  19:00:00     -302.932      -93.131      -18.522       83.967       89.615       46.095     7050.388     8030.815     2124.756        5.899        0.860      316.925       34.990        0.012      350.594       31.869      859.637
07/18/2014  19:01:00     -166.865      -25.083        6.483      116.703       98.745       42.073    13619.658     9750.539     1770.172        2.682        1.257      168.740       43.466        0.066      350.471       31.658      859.645
07/18/2014  19:02:00     -210.966       11.128      -19.513       76.210       47.224       41.945     5807.989     2230.106     1759.401        2.740        0.490      211.260       26.630        0.016      350.555       31.803      859.660
07/18/2014  19:03:00     -133.690      -40.961       11.050      105.820       87.186       44.904    11197.806     7601.382     2016.336        2.024        1.041      139.825       55.447        0.157      350.456       31.633      859.652
07/18/2014  19:04:00     -263.783      -20.429      -31.993      120.635      106.052       54.055    14552.726    11247.070     2921.964        4.987        1.436      264.573       48.620        0.034      350.625       31.924      859.660
07/18/2014  19:05:00     -165.872      -80.627       -5.139      117.774      114.270       51.770    13870.738    13057.727     2680.180        3.182        1.480      184.430       53.215        0.083      350.594       31.872      859.651
07/18/2014  19:06:00     -220.795        0.072      -18.273      113.991       78.608       46.679    12993.849     6179.153     2178.913        3.521        1.068      220.795       51.336        0.054      350.584       31.854      859.655
07/18/2014  19:07:00     -219.909      -19.025       -6.554      122.585       95.133       46.853    15027.114     9050.375     2195.203        3.751        1.314      220.730       46.009        0.043      350.542       31.780      859.675
07/18/2014  19:08:00     -330.378     -100.421       -6.405      112.021       98.173       62.600    12548.730     9637.893     3918.799        7.268        1.305      345.303       60.646        0.031      350.525       31.749      859.695
07/18/2014  19:09:00     -270.698      -31.502      -22.919       86.663       87.687       46.399     7510.509     7688.952     2152.886        4.607        0.868      272.525       36.392        0.018      350.547       31.787      859.696
07/18/2014  19:10:00     -278.507      -48.688      -25.540      103.364      105.887       52.186    10684.219    11212.148     2723.333        5.260        1.231      282.730       53.762        0.036      350.622       31.920      859.689
07/18/2014  19:11:00     -205.320      -68.936       -4.352       97.632       88.386       42.213     9531.970     7812.071     1781.942        3.302        0.956      216.584       39.327        0.033      350.591       31.867      859.673
07/18/2014  19:12:00     -206.854     -112.330      -12.573       98.362       74.092       44.310     9675.074     5489.681     1963.386        3.634        0.856      235.386       48.195        0.042      350.551       31.794      859.670
07/18/2014  19:13:00     -243.560     -116.897       -4.566       90.597       84.012       49.628     8207.733     7058.004     2462.937        4.536        0.886      270.160       44.287        0.027      350.541       31.778      859.673
07/18/2014  19:14:00     -208.244      -66.490        4.148      106.578      103.504       51.599    11358.953    10713.133     2662.411        3.626        1.237      218.601       48.748        0.050      350.575       31.837      859.673
07/18/2014  19:15:00     -166.381      -48.868       -6.622       82.908       75.932       52.025     6873.819     5765.643     2706.644        2.273        0.767      173.409       54.802        0.100      350.551       31.798      859.670
07/18/2014  19:16:00     -126.884       -9.258      -17.082       50.330       64.949       33.066     2533.123     4218.392     1093.379        1.216        0.392      127.221       25.039        0.039      350.508       31.725      859.671
07/18/2014  19:17:00     -133.721        9.799        6.807       72.041       59.965       37.899     5189.905     3595.836     1436.307        1.412        0.511      134.079       41.639        0.096      350.444       31.613      859.666
07/18/2014  19:18:00     -144.005      -58.722       -7.258       74.294       55.834       34.133     5519.597     3117.392     1165.079        1.702        0.490      155.517       35.033        0.051      350.466       31.649      859.669
07/18/2014  19:19:00     -122.047      -41.364       -2.835       75.956       56.288       36.061     5769.278     3168.354     1300.383        1.342        0.512      128.866       32.938        0.065      350.442       31.609      859.679
07/18/2014  19:20:00     -172.915      -91.842        1.236       85.235       78.719       42.804     7265.088     6196.637     1832.195        2.681        0.765      195.792       53.829        0.076      350.567       31.823      859.688
07/18/2014  19:21:00     -169.551     -126.030        6.442      109.226       84.153       51.085    11930.338     7081.687     2609.632        3.314        1.081      211.261       61.661        0.085      350.602       31.885      859.701
07/18/2014  19:22:00     -156.617     -195.010       -2.589       85.859       86.585       48.272     7371.792     7496.970     2330.185        3.988        0.860      250.116       42.389        0.029      350.532       31.762      859.717
07/18/2014  19:23:00     -186.673      -99.507        7.403       90.887       69.014       46.788     8260.403     4762.907     2189.140        3.000        0.761      211.539       38.827        0.034      350.415       31.558      859.726
07/18/2014  19:24:00     -306.282     -201.722       -5.549      167.897      111.849       68.454    28189.479    12510.118     4685.904        8.995        2.269      366.743       71.683        0.038      350.350       31.447      859.729
07/18/2014  19:25:00     -307.794     -172.572       -9.914      102.879       91.172       48.939    10584.056     8312.296     2394.993        7.295        1.065      352.871       48.245        0.019      350.347       31.443      859.734
07/18/2014  19:26:00     -236.435     -122.731        4.855      108.746       88.780       47.318    11825.759     7881.883     2238.975        4.646        1.097      266.391       47.661        0.032      350.315       31.385      859.757
07/18/2014  19:27:00     -280.768     -164.376      -12.070      118.478       94.576       62.306    14036.954     8944.679     3882.046        6.642        1.343      325.346       54.197        0.028      350.319       31.394      859.746
07/18/2014  19:28:00     -272.767     -160.075        2.457      165.340      103.052       70.555    27337.345    10619.708     4978.063        7.148        2.147      316.269       78.246        0.061      350.304       31.368      859.738
07/18/2014  19:29:00     -220.833     -212.669       -4.646      117.670      109.616       62.971    13846.297    12015.738     3965.359        6.192        1.491      306.587       68.597        0.050      350.308       31.372      859.732
07/18/2014  19:30:00     -220.172     -180.454       -4.317      122.345      122.971       63.009    14968.402    15121.857     3970.102        5.755        1.703      284.674       74.176        0.068      350.279       31.323      859.744
07/18/2014  19:31:00     -173.192     -157.406        7.408      113.990       83.452       57.373    12993.664     6964.276     3291.611        3.903        1.162      234.035       60.559        0.067      350.259       31.287      859.740
07/18/2014  19:32:00     -162.349     -202.568        2.924      132.353      111.390       61.150    17517.240    12407.833     3739.312        5.053        1.683      259.598       54.236        0.044      350.273       31.314      859.731
07/18/2014  19:33:00     -294.613     -185.683       -4.544      186.385      127.606       76.673    34739.491    16283.287     5878.751        8.909        2.845      348.246       61.868        0.032      350.280       31.326      859.736
07/18/2014  19:34:00     -259.221     -199.629       -0.282      121.004      109.067       58.382    14642.069    11895.665     3408.462        6.849        1.497      327.181       68.295        0.044      350.294       31.348      859.748
07/18/2014  19:35:00     -255.812     -144.006       -9.310      111.420       81.539       56.964    12414.410     6648.659     3244.925        5.428        1.115      293.560       56.473        0.037      350.284       31.332      859.747
07/18/2014  19:36:00     -331.206     -230.947       -9.500      152.623      136.985       66.940    23293.692    18764.804     4480.960       10.482        2.327      403.775       69.155        0.029      350.286       31.336      859.744
07/18/2014  19:37:00     -366.996     -184.615       -8.550      154.792      136.598       65.624    23960.655    18659.050     4306.554       10.787        2.346      410.815       78.493        0.037      350.281       31.328      859.757
07/18/2014  19:38:00     -262.413     -120.746       -1.201      116.842      115.257       67.360    13651.992    13284.222     4537.320        5.745        1.574      288.861       61.648        0.046      350.276       31.317      859.762
07/18/2014  19:39:00     -185.642     -106.988        7.074      120.828       74.248       54.699    14599.385     5512.694     2992.014        3.453        1.155      214.265       53.358        0.062      350.250       31.273      859.780
07/18/2014  19:40:00     -239.702     -123.322      -18.786       97.000      100.874       61.382     9409.092    10175.567     3767.811        4.818        1.168      269.565       57.586        0.046      350.290       31.342      859.790
07/18/2014  19:41:00     -204.111     -118.344       -0.414       90.896       84.266       45.071     8262.173     7100.758     2031.438        3.653        0.870      235.938       46.021        0.038      350.248       31.269      859.807
07/18/2014  19:42:00     -135.754      -87.894        4.061      108.593       88.457       52.816    11792.500     7824.613     2789.543        2.428        1.120      161.723       60.274        0.139      350.186       31.161      859.814
07/18/2014  19:43:00     -270.377     -129.723       -9.459      105.014       87.554       49.092    11028.040     7665.752     2409.983        5.556        1.055      299.886       36.035        0.014      350.288       31.341      859.821
07/18/2014  19:44:00     -140.727      -49.825       -0.222       91.189       71.614       41.292     8315.511     5128.518     1705.049        1.871        0.757      149.287       40.202        0.073      350.188       31.166      859.826
07/18/2014  19:45:00      -98.402      -71.179        2.493       85.199       55.455       44.209     7258.834     3075.294     1954.473        1.352        0.614      121.447       43.644        0.129      350.146       31.095      859.827
07/18/2014  19:46:00     -154.556      -73.154       -1.788      102.453       78.539       42.826    10496.605     6168.443     1834.070        2.387        0.925      170.994       44.674        0.068      350.149       31.098      859.831
07/18/2014  19:47:00     -224.062      -80.983        2.365      109.105       92.881       59.246    11903.879     8626.859     3510.103        4.040        1.202      238.248       57.560        0.058      350.183       31.157      859.849
07/18/2014  19:48:00     -173.365     -107.342       -8.045       85.318       76.644       35.199     7279.190     5874.330     1239.000        2.801        0.720      203.907       35.721        0.031      350.176       31.143      859.860
07/18/2014  19:49:00     -216.390      -67.096       -4.766       95.724       66.000       39.660     9163.062     4355.948     1572.948        3.322        0.755      226.553       43.327        0.037      350.166       31.128      859.860
07/18/2014  19:50:00     -321.689     -110.369      -27.114      104.742       80.847       48.572    10970.955     6536.165     2359.205        6.813        0.993      340.095       32.687        0.009      350.198       31.182      859.860
07/18/2014  19:51:00     -234.564       28.155      -24.507       73.745       69.002       40.361     5438.290     4761.219     1629.037        3.412        0.591      236.248       38.017        0.026      350.157       31.110      859.861
07/18/2014  19:52:00     -194.844      -19.497       -5.378       82.611       66.825       41.198     6824.586     4465.605     1697.304        2.568        0.649      195.818       35.755        0.033      350.131       31.066      859.861
07/18/2014  19:53:00     -228.145      -67.423      -10.689       65.531       62.856       41.710     4294.327     3950.824     1739.726        3.335        0.499      237.899       32.582        0.019      350.121       31.048      859.866
07/18/2014  19:54:00     -153.227      -11.716       -1.040       91.011       79.471       43.873     8282.994     6315.706     1924.874        2.007        0.826      153.675       46.982        0.093      350.089       30.994      859.871
07/18/2014  19:55:00      -98.797      -37.363        9.860       84.858       46.521       34.088     7200.920     2164.219     1161.960        1.089        0.526      105.626       44.471        0.177      350.081       30.982      859.879
07/18/2014  19:56:00     -153.550      -67.320        4.251       63.428       54.443       32.143     4023.162     2964.066     1033.202        1.807        0.401      167.659       33.614        0.040      350.078       30.974      859.881
07/18/2014  19:57:00     -243.124     -105.319      -17.502       87.760       70.970       46.956     7701.841     5036.788     2204.893        4.272        0.747      264.955       41.659        0.025      350.175       31.141      859.885
07/18/2014  19:58:00     -174.786      -41.036        2.032       71.688       48.235       33.520     5139.206     2326.625     1123.571        2.041        0.429      179.539       32.703        0.033      350.076       30.972      859.886
07/18/2014  19:59:00     -142.512      -47.362        6.978      105.007       58.272       45.673    11026.413     3395.644     2086.021        1.955        0.825      150.176       51.068        0.116      350.015       30.865      859.885
07/18/2014  20:00:00     -148.762      -41.508       -1.096       49.837       53.216       25.131     2483.753     2831.963      631.579        1.490        0.297      154.445       24.613        0.025      350.074       30.970      859.881
07/18/2014  20:01:00     -173.787      -73.539        2.199       68.294       79.730       41.278     4664.025     6356.883     1703.887        2.417        0.636      188.705       40.297        0.046      350.016       30.865      859.892
07/18/2014  20:02:00     -196.606      -60.291       -9.677       75.279       67.141       46.447     5666.966     4507.915     2157.348        2.736        0.617      205.643       45.677        0.049      350.120       31.046      859.899
07/18/2014  20:03:00     -152.463       -6.607       -3.744       71.024       58.722       37.116     5044.397     3448.289     1377.599        1.658        0.494      152.606       35.089        0.053      350.105       31.022      859.917
07/18/2014  20:04:00     -189.293      -76.078       -1.144      109.311       92.373       43.128    11948.921     8532.771     1859.989        3.198        1.117      204.009       40.285        0.039      350.140       31.082      859.932
07/18/2014  20:05:00     -123.577      -23.217        5.680       73.301       69.695       42.779     5373.099     4857.340     1830.060        1.395        0.603      125.739       38.346        0.093      350.108       31.028      859.942
07/18/2014  20:06:00     -146.550      -58.605        6.304       80.156       65.505       39.099     6425.035     4290.946     1528.731        1.860        0.612      157.833       43.500        0.076      350.063       30.949      859.954
07/18/2014  20:07:00     -100.398      -41.524       10.070       74.419       64.791       33.485     5538.142     4197.847     1121.227        1.138        0.543      108.646       40.225        0.137      350.051       30.930      859.951
07/18/2014  20:08:00     -167.511      -17.400        4.687       73.985       85.194       38.639     5473.709     7258.015     1492.936        2.130        0.711      168.412       31.335        0.035      350.084       30.986      859.967
07/18/2014  20:09:00      -93.223       -9.568       14.359      101.754       66.662       45.606    10353.845     4443.817     2079.946        1.293        0.844       93.713       34.520        0.136      350.037       30.905      859.967
07/18/2014  20:10:00     -117.863      -46.712       -8.328       44.091       38.524       25.619     1944.027     1484.131      656.333        1.011        0.204      126.782       18.247        0.021      350.074       30.968      859.970
07/18/2014  20:11:00     -183.443      -40.626       -2.302       97.377       51.675       38.395     9482.186     2670.351     1474.207        2.446        0.681      187.887       44.219        0.055      350.060       30.943      859.995
07/18/2014  20:12:00     -137.730      -36.987        2.323       69.774      102.156       42.969     4868.475    10435.915     1846.335        1.874        0.858      142.609       42.010        0.087      350.109       31.030      860.017
07/18/2014  20:13:00     -219.073      -17.772       -2.378       70.082       81.451       39.945     4911.516     6634.215     1595.565        3.073        0.657      219.793       35.438        0.026      350.127       31.058      860.031
07/18/2014  20:14:00     -152.531      -35.091      -10.426       63.140       48.612       39.125     3986.644     2363.167     1530.801        1.624        0.394      156.515       27.384        0.031      350.086       30.990      860.043
07/18/2014  20:15:00     -143.739      -36.770        1.467       73.695       57.524       34.756     5430.978     3309.057     1207.968        1.598        0.497      148.367       38.675        0.068      350.027       30.886      860.041
07/18/2014  20:16:00     -163.738      -51.262      -12.031       65.103       56.473       24.519     4238.369     3189.171      601.187        1.880        0.401      171.575       18.698        0.012      350.038       30.905      860.048
07/18/2014  20:17:00     -173.765      -13.847       -6.065      100.984       70.180       38.340    10197.704     4925.270     1469.986        2.350        0.830      174.316       32.626        0.035      350.001       30.840      860.058
07/18/2014  20:18:00     -145.025       -7.045       -6.760       76.066       53.437       39.814     5785.970     2855.498     1585.165        1.568        0.511      145.196       32.172        0.049      349.993       30.828      860.065
07/18/2014  20:19:00     -127.107      -29.661        0.068       48.490       43.425       29.596     2351.267     1885.750      875.897        1.107        0.256      130.522       30.078        0.053      349.992       30.827      860.087
07/18/2014  20:20:00     -175.434       22.323      -20.510       68.625       38.542       27.996     4709.420     1485.469      783.764        1.934        0.349      176.849       30.433        0.030      349.965       30.780      860.105
07/18/2014  20:21:00     -171.074      -41.061       -2.304       59.881       69.856       33.992     3585.778     4879.879     1155.444        2.029        0.481      175.933       28.918        0.027      350.021       30.876      860.122
07/18/2014  20:22:00     -180.729      -37.861        6.832       81.554       61.262       48.774     6651.101     3753.006     2378.874        2.346        0.639      184.652       48.370        0.069      349.955       30.761      860.139
07/18/2014  20:23:00     -121.356       31.767       -9.751       43.251       45.806       28.948     1870.636     2098.147      838.012        1.032        0.240      125.445       18.787        0.022      349.988       30.823      860.161
07/18/2014  20:24:00     -111.412       24.849       -1.970       58.335       58.575       33.756     3402.964     3431.016     1139.478        1.050        0.399      114.149       30.195        0.070      349.937       30.733      860.181
07/18/2014  20:25:00      -68.096       11.844       -8.585       38.345       39.785       26.451     1470.349     1582.808      699.631        0.430        0.188       69.119       13.973        0.041      349.870       30.615      860.195
07/18/2014  20:26:00      -92.105       78.943       -6.771       45.414       61.593       33.323     2062.389     3793.653     1110.446        1.086        0.348      121.307       30.470        0.063      349.826       30.536      860.209
07/18/2014  20:27:00     -146.632      -24.014      -23.143       54.033       75.161       37.679     2919.515     5649.216     1419.715        1.630        0.499      148.585       24.553        0.027      349.828       30.543      860.214
07/18/2014  20:28:00      -95.876       18.802        1.101       92.022       80.915       39.687     8467.992     6547.180     1575.064        1.307        0.830       97.702       39.560        0.164      349.731       30.373      860.228
07/18/2014  20:29:00     -140.443       66.641      -16.288       50.529       51.752       29.188     2553.147     2678.278      851.917        1.526        0.304      155.452       17.165        0.012      349.709       30.335      860.245
07/18/2014  20:30:00     -103.196      106.698      -21.742       48.916       60.958       36.452     2392.744     3715.866     1328.743        1.497        0.372      148.438       32.127        0.047      349.694       30.309      860.258
07/18/2014  20:31:00      -84.577      111.737      -10.021       43.897       58.260       33.362     1926.946     3394.240     1113.015        1.309        0.322      140.137       30.239        0.047      349.689       30.301      860.261
07/18/2014  20:32:00      -61.971       97.263       -9.596       52.428       36.527       31.111     2748.677     1334.246      967.866        0.922        0.253      115.328       25.040        0.047      349.689       30.301      860.282
07/18/2014  20:33:00     -108.497      169.575      -22.878       59.086       64.944       39.400     3491.120     4217.682     1552.351        2.515        0.463      201.314       38.064        0.036      349.754       30.411      860.300
07/18/2014  20:34:00      -97.666      136.243      -14.673       39.919       53.139       31.178     1593.539     2823.711      972.093        1.685        0.269      167.633       23.328        0.019      349.717       30.349      860.321
07/18/2014  20:35:00      -96.718      126.461      -14.927       54.893       49.578       31.172     3013.290     2457.943      971.710        1.600        0.322      159.206       23.413        0.022      349.712       30.340      860.334
07/18/2014  20:36:00      -88.416       97.788       -6.878       38.983       52.854       33.641     1519.687     2793.575     1131.715        1.144        0.272      131.833       29.363        0.050      349.694       30.311      860.343
07/18/2014  20:37:00      -81.166      114.334      -11.469       55.822       46.672       31.840     3116.140     2178.270     1013.809        1.305        0.315      140.215       36.254        0.067      349.645       30.226      860.353
07/18/2014  20:38:00     -125.880      130.609      -26.863       37.170       37.074       21.550     1381.579     1374.470      464.423        1.842        0.161      181.396       20.256        0.012      349.715       30.345      860.355
07/18/2014  20:39:00     -102.670       67.451      -17.301       26.995       36.676       17.449      728.722     1345.101      304.472        0.888        0.119      122.844       11.922        0.009      349.657       30.247      860.360
07/18/2014  20:40:00      -57.337       60.677      -14.607       28.366       19.207       16.212      804.651      368.925      262.820        0.431        0.072       83.482        6.122        0.005      349.588       30.127      860.374
07/18/2014  20:41:00      -40.712       67.076        1.803       29.381       39.172       25.107      863.271     1534.424      630.352        0.459        0.151       78.464       21.911        0.078      349.490       29.956      860.380
07/18/2014  20:42:00     -140.291      122.000      -26.224       70.619       61.935       39.056     4986.976     3835.987     1525.379        2.280        0.517      185.918       32.103        0.030      349.476       29.930      860.387
07/18/2014  20:43:00      -84.500      153.682      -17.112       70.381       74.873       40.060     4953.494     5606.029     1604.824        2.161        0.608      175.381       42.226        0.058      349.469       29.919      860.408
07/18/2014  20:44:00      -81.782      227.700      -31.281       56.605       73.538       36.875     3204.101     5407.875     1359.770        3.474        0.499      241.942       34.449        0.020      349.498       29.966      860.429
07/18/2014  20:45:00      -78.624       90.823      -19.914       51.620       64.425       28.675     2664.652     4150.590      822.237        1.123        0.382      120.128       34.854        0.084      349.324       29.667      860.436
07/18/2014  20:46:00     -121.544      189.688      -31.426       94.465       53.932       46.755     8923.665     2908.644     2186.045        3.288        0.701      225.288       46.280        0.042      349.420       29.832      860.446
07/18/2014  20:47:00      -77.459      157.671      -16.666       55.450       53.598       35.877     3074.727     2872.745     1287.142        1.918        0.362      175.670       29.929        0.029      349.284       29.596      860.450
07/18/2014  20:48:00      -37.781      212.514      -28.604       54.367       63.556       32.427     2955.823     4039.385     1051.479        2.773        0.402      215.847       29.225        0.018      349.366       29.739      860.458
07/18/2014  20:49:00     -112.032      163.069      -29.235       67.722       67.476       37.748     4586.243     4552.988     1424.928        2.528        0.528      197.845       43.652        0.049      349.327       29.671      860.466
07/18/2014  20:50:00      -93.482      186.536      -18.386       56.769       77.091       49.829     3222.713     5943.094     2482.887        2.776        0.582      208.649       50.879        0.059      349.319       29.656      860.485
07/18/2014  20:51:00      -89.839      186.469      -15.507       46.812       82.677       36.253     2191.406     6835.564     1314.270        2.671        0.517      206.982       37.426        0.033      349.278       29.585      860.481
07/18/2014  20:52:00     -106.591      106.542      -15.406       43.141       85.498       31.822     1861.174     7309.832     1012.613        1.656        0.509      150.708       39.099        0.067      349.289       29.607      860.477
07/18/2014  20:53:00      -53.276      166.657      -14.427       71.615      109.890       46.129     5128.773    12075.816     2127.879        2.507        0.967      174.965       45.543        0.068      349.239       29.519      860.489
07/18/2014  20:54:00     -129.105      133.091      -24.146       72.513       51.497       41.738     5258.094     2651.901     1742.028        2.231        0.483      185.422       37.453        0.041      349.197       29.447      860.482
07/18/2014  20:55:00     -130.506      156.967      -28.072       66.142       81.337       41.556     4374.753     6615.779     1726.892        2.759        0.636      204.134       37.296        0.033      349.254       29.543      860.493
07/18/2014  20:56:00      -91.408      234.642      -28.053       67.763       99.851       45.657     4591.812     9970.251     2084.580        4.042        0.832      251.818       51.555        0.042      349.252       29.541      860.496
07/18/2014  20:57:00      -90.723      232.356      -37.967       55.328       73.306       37.655     3061.166     5373.828     1417.894        3.676        0.493      249.439       34.910        0.020      349.242       29.522      860.482
07/18/2014  20:58:00     -112.932      167.248      -24.169       61.176       66.810       42.920     3742.562     4463.586     1842.127        2.568        0.502      201.806       32.056        0.025      349.183       29.422      860.506
07/18/2014  20:59:00     -171.503      125.653      -29.825       52.000       60.899       35.706     2703.969     3708.646     1274.926        2.689        0.384      212.607       34.739        0.027      349.210       29.467      860.528
07/18/2014  21:00:00     -153.182      124.152      -26.290       54.922       61.310       37.607     3016.402     3758.949     1414.274        2.388        0.409      197.176       35.719        0.033      349.203       29.455      860.539
07/18/2014  21:01:00     -165.205      180.322      -39.404       70.917       75.920       46.853     5029.254     5763.787     2195.244        3.717        0.649      244.559       41.161        0.028      349.247       29.531      860.560
07/18/2014  21:02:00     -162.127      203.593      -39.787       60.432       59.507       45.737     3652.068     3541.137     2091.892        3.930        0.464      260.260       39.816        0.023      349.209       29.466      860.584
07/18/2014  21:03:00     -140.857      198.751      -30.247       61.246       68.848       29.730     3751.069     4740.059      883.874        3.481        0.469      243.603       34.235        0.020      349.208       29.463      860.610
07/18/2014  21:04:00     -128.979      202.039      -29.149       53.233       76.367       38.939     2833.766     5831.933     1516.267        3.424        0.509      239.698       30.655        0.016      349.174       29.404      860.628
07/18/2014  21:05:00     -151.738      186.975      -35.133       87.375       90.107       41.277     7634.384     8119.220     1703.758        3.833        0.873      240.799       48.432        0.040      349.152       29.367      860.667
07/18/2014  21:06:00     -269.070      363.113      -75.543       89.854       77.622       57.564     8073.664     6025.223     3313.613       11.368        0.871      451.940       54.162        0.014      349.502       29.973      860.682
07/18/2014  21:07:00      -75.270      243.893      -38.921       83.589       83.405       31.513     6987.072     6956.385      993.080        4.080        0.747      255.244       33.095        0.017      349.334       29.683      860.687
07/18/2014  21:08:00      -62.965      146.298      -21.032       62.520       78.607       45.261     3908.693     6179.097     2048.592        1.897        0.607      159.272       33.731        0.045      349.177       29.412      860.688
07/18/2014  21:09:00      -47.024       98.168       16.505       51.808       59.686       34.225     2684.066     3562.368     1171.361        0.977        0.371      108.849       25.456        0.055      349.073       29.233      860.709
07/18/2014  21:10:00     -151.532      -10.721      -30.290       96.871       72.318       42.861     9383.916     5229.909     1837.070        2.022        0.823      151.911       30.352        0.040      349.099       29.277      860.727
07/18/2014  21:11:00     -176.861      -20.257      -10.936       52.189       70.463       48.063     2723.678     4965.068     2310.088        2.090        0.500      178.017       31.742        0.032      349.157       29.377      860.758
07/18/2014  21:12:00     -135.369      -49.452        0.807       70.186       59.277       35.516     4926.143     3513.721     1261.364        1.523        0.485      144.118       40.119        0.077      349.089       29.259      860.769
07/18/2014  21:13:00     -177.423      -88.742       -1.448       79.534       58.424       37.997     6325.652     3413.415     1443.790        2.527        0.559      198.378       27.308        0.019      349.040       29.174      860.775
07/18/2014  21:14:00     -133.827      -48.168      -12.230       55.808       40.807       29.104     3114.566     1665.224      847.035        1.300        0.281      142.231       20.950        0.022      349.010       29.124      860.802
07/18/2014  21:15:00     -139.800      -43.431       -2.460       57.025       48.906       34.595     3251.829     2391.830     1196.827        1.414        0.342      146.391       34.114        0.054      348.977       29.067      860.810
07/18/2014  21:16:00      -62.501      -38.920       13.241       86.574       56.548       40.971     7495.047     3197.622     1678.623        0.898        0.619       73.629       46.602        0.401      348.933       28.989      860.824
07/18/2014  21:17:00      -21.669      -21.106       17.724       62.076       52.007       32.399     3853.472     2704.712     1049.716        0.442        0.380       30.249       37.988        1.577      348.744       28.662      860.827
07/18/2014  21:18:00      -46.986      -51.384       13.162       84.262       44.423       30.893     7100.133     1973.434      954.393        0.752        0.501       69.627       42.580        0.374      348.799       28.757      860.816
07/18/2014  21:19:00       -6.620      -16.011       21.887       71.063       47.436       35.673     5049.946     2250.180     1272.588        0.467        0.429       17.325       35.566        4.214      348.787       28.738      860.782
07/18/2014  21:20:00     -134.516      -57.750       -1.024       56.063       56.643       27.450     3143.066     3208.446      753.478        1.427        0.355      146.389       22.260        0.023      348.941       29.003      860.820
07/18/2014  21:21:00      -66.525       10.052        1.902       52.402       47.453       31.632     2745.924     2251.811     1000.607        0.526        0.300       67.280       32.108        0.228      348.858       28.862      860.835
07/18/2014  21:22:00      -34.491      -31.142       22.140       41.258       37.194       19.710     1702.214     1383.408      388.497        0.306        0.174       46.470       21.805        0.220      348.804       28.768      860.828
07/18/2014  21:23:00      -45.444       -5.309       11.755       43.776       30.112       19.045     1916.355      906.734      362.724        0.271        0.159       45.753       24.332        0.283      348.617       28.444      860.818
07/18/2014  21:24:00      -65.551       -5.956        2.249       28.767       34.991       15.591      827.524     1224.358      243.093        0.332        0.115       65.821       10.117        0.024      348.812       28.781      860.816
07/18/2014  21:25:00      -63.725        2.998       -5.459       33.345       27.390       20.282     1111.922      750.205      411.348        0.319        0.114       63.795       20.013        0.098      348.792       28.746      860.801
07/18/2014  21:26:00      -33.755       97.567      -14.709       45.328       57.112       30.459     2054.600     3261.771      927.776        0.856        0.312      103.241       22.770        0.049      348.801       28.762      860.795
07/18/2014  21:27:00      -86.985      196.539      -25.501       83.398       89.025       40.301     6955.269     7925.480     1624.193        3.167        0.825      214.928       45.912        0.046      349.098       29.274      860.800
07/18/2014  21:28:00      -53.866      133.846      -17.799       66.878       79.535       35.068     4472.724     6325.799     1229.764        1.658        0.601      144.279       38.309        0.071      349.007       29.118      860.806
07/18/2014  21:29:00      -99.678       28.394      -11.291       67.646       49.603       31.984     4575.924     2460.488     1022.950        0.946        0.403      103.643       28.171        0.074      348.957       29.032      860.837
07/18/2014  21:30:00      -82.793       -2.461      -16.843       52.049       71.745       43.559     2709.102     5147.392     1897.367        0.845        0.488       82.830       29.035        0.123      348.975       29.062      860.853
07/18/2014  21:31:00      -52.158       -3.746       10.994       50.724       37.697       29.178     2572.880     1421.099      851.373        0.385        0.242       52.293       25.783        0.243      348.886       28.909      860.845
07/18/2014  21:32:00      -70.336      -12.830       -7.580       92.994       43.966       27.048     8647.973     1932.967      731.578        0.824        0.566       71.496       34.599        0.234      348.858       28.862      860.850
07/18/2014  21:33:00     -202.870      -13.463      -15.025       82.933       62.256       41.455     6877.867     3875.794     1718.527        2.702        0.624      203.316       41.912        0.042      349.136       29.340      860.853
07/18/2014  21:34:00     -171.656      -34.233        0.079       79.928       86.369       45.287     6388.523     7459.547     2050.906        2.327        0.795      175.036       43.923        0.063      349.178       29.413      860.849
07/18/2014  21:35:00     -277.084        1.131      -17.102      114.845       94.384       48.415    13189.259     8908.411     2344.017        5.075        1.222      277.087       58.549        0.045      349.292       29.609      860.849
07/18/2014  21:36:00     -194.200      -33.032      -15.463       82.440       87.759       38.271     6796.391     7701.580     1464.693        2.750        0.798      196.989       38.931        0.039      349.255       29.547      860.854
07/18/2014  21:37:00     -205.330      -41.001       -3.230       89.079       77.156       41.570     7935.051     5953.104     1728.030        2.973        0.781      209.383       43.827        0.044      349.278       29.587      860.853
07/18/2014  21:38:00     -231.178      -26.742      -19.278       84.013       51.421       36.942     7058.154     2644.085     1364.716        3.280        0.553      232.720       37.057        0.025      349.341       29.694      860.851
07/18/2014  21:39:00     -162.974      -44.473       -7.989       59.781       87.131       45.410     3573.732     7591.888     2062.082        2.091        0.661      168.933       36.117        0.046      349.261       29.557      860.856
07/18/2014  21:40:00     -199.567      -64.993      -12.292       69.102       40.913       27.716     4775.062     1673.851      768.164        2.571        0.361      209.884       23.207        0.012      349.257       29.548      860.868
07/18/2014  21:41:00     -201.773      -28.539      -23.600       61.130       39.948       31.782     3736.880     1595.873     1010.069        2.421        0.317      203.781       22.878        0.013      349.245       29.528      860.872
07/18/2014  21:42:00     -159.122      -16.582       -5.402       71.654       70.815       33.650     5134.358     5014.768     1132.347        1.845        0.564      159.983       36.271        0.051      349.206       29.462      860.861
07/18/2014  21:43:00     -147.784       -6.827       -8.777       57.975       43.385       36.074     3361.077     1882.231     1301.367        1.425        0.327      147.942       33.954        0.053      349.187       29.430      860.871
07/18/2014  21:44:00      -87.705      -44.842        8.565       70.495       68.379       31.050     4969.504     4675.663      964.088        1.019        0.530       98.504       23.270        0.056      349.159       29.382      860.876
07/18/2014  21:45:00      -40.316       -3.627       -2.188       52.457       19.668       29.497     2751.772      386.846      870.064        0.283        0.200       40.479       11.307        0.078      349.065       29.219      860.856
07/18/2014  21:46:00      -98.227      -35.861        0.561       52.947       47.622       27.212     2803.338     2267.836      740.474        0.837        0.291      104.568       25.493        0.059      349.168       29.397      860.868
07/18/2014  21:47:00      -71.541      -22.796        3.136       57.822       34.542       29.698     3343.432     1193.141      881.959        0.553        0.271       75.085       28.162        0.141      349.109       29.296      860.866
07/18/2014  21:48:00     -159.807       10.847      -21.014       41.756       44.554       31.661     1743.535     1985.073     1002.425        1.541        0.237      160.175       19.779        0.015      349.185       29.427      860.873
07/18/2014  21:49:00     -106.545      -41.786       -4.877       37.503       50.065       27.332     1406.463     2506.553      747.051        0.889        0.233      114.446       23.690        0.043      349.112       29.300      860.854
07/18/2014  21:50:00      -64.561       -1.446        3.994       34.931       42.787       21.118     1220.146     1830.697      445.952        0.384        0.175       64.577       15.309        0.056      348.972       29.059      860.838
07/18/2014  21:51:00      -65.915      -19.498        0.496       44.661       37.503       12.765     1994.596     1406.490      162.955        0.414        0.178       68.738       18.065        0.069      349.033       29.166      860.837
07/18/2014  21:52:00      -82.839      -22.616       -5.755       27.386       25.111       17.873      749.978      630.577      319.448        0.455        0.085       85.870       17.209        0.040      349.078       29.243      860.841
07/18/2014  21:53:00     -112.287       19.830       -7.554       24.709       22.532       19.728      610.552      507.683      389.204        0.728        0.075      114.025       16.705        0.021      349.203       29.458      860.834
07/18/2014  21:54:00      -43.255       37.949        0.370       31.320       37.045       17.008      980.935     1372.309      289.289        0.298        0.132       57.542       13.314        0.054      348.917       28.964      860.832
07/18/2014  21:55:00      -70.157       48.815       -4.030       27.734       26.309       19.651      769.191      692.162      386.174        0.458        0.092       85.469       16.616        0.038      349.058       29.206      860.845
07/18/2014  21:56:00      -68.471       68.966       -3.118       32.896       31.677       22.293     1082.153     1003.409      496.998        0.602        0.129       97.183       21.472        0.049      348.951       29.022      860.871
07/18/2014  21:57:00      -71.318       95.977      -10.981       32.065       33.769       21.025     1028.185     1140.349      442.047        0.851        0.131      119.573       18.656        0.024      348.960       29.037      860.870
07/18/2014  21:58:00      -69.616       95.124       -8.365       22.514       19.399       15.454      506.892      376.340      238.833        0.754        0.056      117.877       10.176        0.007      348.941       29.005      860.869
07/18/2014  21:59:00      -41.812       80.008      -13.973       18.456       17.048       12.132      340.626      290.649      147.180        0.456        0.039       90.274        8.637        0.009      348.851       28.848      860.872
07/18/2014  22:00:00      -49.061       83.540      -18.530       14.311       19.802       11.561      204.805      392.135      133.652        0.523        0.037       96.881        4.572        0.002      348.752       28.676      860.882
07/18/2014  22:01:00      -39.322       61.426      -11.940       21.935       18.079       14.944      481.143      326.866      223.325        0.325        0.052       72.934       15.549        0.045      348.813       28.784      860.877
07/18/2014  22:02:00      -77.549      101.174      -17.041       41.338       30.098       19.324     1708.825      905.892      373.406        0.976        0.149      127.476       16.960        0.018      349.017       29.137      860.870
07/18/2014  22:03:00      -55.132       93.419       -6.458       29.171       39.411       20.989      850.960     1553.188      440.529        0.733        0.142      108.474       21.014        0.038      349.030       29.157      860.854
07/18/2014  22:04:00      -97.127       54.394      -16.834       25.689       35.296       20.917      659.904     1245.781      437.529        0.751        0.117      111.321       16.034        0.021      348.940       29.003      860.852
07/18/2014  22:05:00      -57.772       92.058      -14.667       22.437       18.303       14.812      503.401      335.008      219.402        0.654        0.053      108.684       10.411        0.009      349.062       29.214      860.856
07/18/2014  22:06:00      -30.434       96.970      -13.428       20.902       20.347       15.078      436.894      414.016      227.333        0.579        0.054      101.634       10.758        0.011      349.026       29.153      860.846
07/18/2014  22:07:00      -28.900       96.873       -7.909       26.726       19.840       17.263      714.290      393.634      297.998        0.584        0.070      101.092       12.259        0.015      348.933       28.991      860.845
07/18/2014  22:08:00      -54.622       53.793      -18.958       26.357       34.786       14.204      694.688     1210.059      201.763        0.417        0.105       76.663       14.323        0.035      348.627       28.460      860.853
07/18/2014  22:09:00      -23.524        7.334        0.289       22.478       11.752        9.978      505.261      138.120       99.558        0.067        0.037       24.641       12.443        0.255      348.545       28.318      860.868
07/18/2014  22:10:00      -44.681       49.832       -2.616       30.639       29.719       16.995      938.719      883.228      288.834        0.330        0.106       66.930       22.179        0.110      348.640       28.482      860.868
07/18/2014  22:11:00      -56.305       66.346      -10.902       15.542       20.503       10.757      241.566      420.393      115.711        0.423        0.039       87.018        9.938        0.013      348.592       28.401      860.875
07/18/2014  22:12:00      -59.068       28.996       -9.405       13.555       11.546        8.129      183.747      133.316       66.086        0.240        0.019       65.801        6.184        0.009      348.709       28.602      860.881
07/18/2014  22:13:00      -68.927       18.562       -9.059       18.716       19.926       13.953      350.296      397.052      194.698        0.306        0.047       71.382       10.377        0.021      348.665       28.528      860.898
07/18/2014  22:14:00      -63.419       52.553      -18.444       23.965       30.606       13.088      574.308      936.754      171.301        0.440        0.084       82.364       10.598        0.017      348.741       28.659      860.914
07/18/2014  22:15:00      -49.636      -10.011        1.733       30.992       20.833       13.593      960.490      433.996      184.780        0.207        0.079       50.636       11.374        0.050      348.464       28.181      860.920
07/18/2014  22:16:00      -78.254      -15.903       -3.627       24.271       16.809       10.373      589.094      282.556      107.607        0.368        0.049       79.854       10.723        0.018      348.472       28.193      860.921
07/18/2014  22:17:00      -71.847      -36.272       -4.430       13.382       14.119        7.263      179.084      199.336       52.749        0.346        0.022       80.484        7.588        0.009      348.554       28.333      860.913
07/18/2014  22:18:00      -12.847      -11.465       10.474       21.467       26.592       15.684      460.853      707.139      245.981        0.091        0.071       17.219       13.283        0.595      348.317       27.926      860.922
07/18/2014  22:19:00      -64.488      -48.429        2.637       35.756       27.055       15.800     1278.462      731.966      249.633        0.439        0.113       80.648       14.408        0.032      348.618       28.444      860.913
07/18/2014  22:20:00      -36.304      -47.018       11.990       35.687       32.724       18.682     1273.595     1070.840      349.023        0.318        0.135       59.403       16.614        0.078      348.585       28.389      860.917
07/18/2014  22:21:00      -43.289      -40.772        6.960       36.032       22.400       15.368     1298.337      501.775      236.163        0.281        0.102       59.466       11.546        0.038      348.559       28.343      860.920
07/18/2014  22:22:00      -53.068      -52.212        0.496       21.204       36.072       14.472      449.599     1301.222      209.428        0.375        0.098       74.446       15.175        0.042      348.590       28.396      860.935
07/18/2014  22:23:00      -50.906      -56.060       -2.048       43.096       29.844       21.701     1857.236      890.672      470.913        0.448        0.161       75.724       20.140        0.071      348.577       28.373      860.934
07/18/2014  22:24:00      -51.103      -42.654        3.569       33.136       35.207       14.180     1098.024     1239.513      201.070        0.349        0.127       66.565       15.182        0.052      348.586       28.390      860.928
07/18/2014  22:25:00      -87.502      -55.960       -1.477       53.761       45.328       20.125     2890.201     2054.653      405.032        0.807        0.267      103.866       20.488        0.039      348.570       28.364      860.933
07/18/2014  22:26:00      -81.376      -63.719       -1.262       46.099       30.700       25.750     2125.108      942.470      663.059        0.721        0.187      103.355       26.866        0.068      348.616       28.442      860.952
07/18/2014  22:27:00      -45.483     -115.210        8.821       65.596       34.461       28.248     4302.808     1187.569      797.937        1.085        0.314      123.863       30.777        0.062      348.697       28.582      860.963
07/18/2014  22:28:00      -27.251      -51.482        7.976       39.093       27.229       29.978     1528.253      741.425      898.672        0.331        0.158       58.250       22.272        0.146      348.685       28.559      860.972
07/18/2014  22:29:00      -22.562       18.747        3.479       54.523       46.653       27.531     2972.720     2176.527      757.967        0.339        0.295       29.334       33.801        1.328      348.472       28.193      860.988
07/18/2014  22:30:00      -47.033      123.586      -23.846       26.991       43.178       23.874      728.508     1864.345      569.970        1.061        0.158      132.233       24.169        0.033      348.256       27.821      861.042
07/18/2014  22:31:00      -19.941      194.287      -26.462       28.724       39.900       24.838      825.087     1592.019      616.920        2.094        0.152      195.308       17.756        0.008      348.453       28.158      861.069
07/18/2014  22:32:00      -34.208      132.998      -19.669       30.387       48.509       20.648      923.341     2353.130      426.333        1.147        0.185      137.327       17.664        0.017      348.408       28.082      861.065
07/18/2014  22:33:00      -25.647      116.297       -1.057       26.554       61.160       21.462      705.117     3740.568      460.611        0.954        0.245      119.091       28.413        0.057      348.494       28.231      861.063
07/18/2014  22:34:00      -33.441       55.157        1.539       17.616       38.798       22.357      310.319     1505.252      499.817        0.324        0.116       64.503       26.884        0.174      348.526       28.286      861.063
07/18/2014  22:35:00      -66.887       49.171       -4.995       38.685       34.144       15.119     1496.549     1165.812      228.599        0.490        0.145       83.017       15.840        0.036      348.426       28.113      861.075
07/18/2014  22:36:00      -16.730      127.024      -10.142       35.719       33.572       20.246     1275.818     1127.063      409.921        0.966        0.141      128.121       12.988        0.010      348.763       28.696      861.073
07/18/2014  22:37:00      -57.028      103.469      -16.501       39.795       66.401       20.454     1583.667     4409.138      418.383        1.032        0.321      118.144       16.855        0.020      348.670       28.535      861.071
07/18/2014  22:38:00      -57.765      122.790      -18.117       75.816       58.225       35.122     5748.109     3390.143     1233.560        1.455        0.519      135.698       28.210        0.043      348.685       28.562      861.073
07/18/2014  22:39:00      -59.381      121.027      -11.432       38.023       54.692       27.432     1445.747     2991.222      752.501        1.175        0.259      134.810       28.520        0.045      348.486       28.216      861.081
07/18/2014  22:40:00      -72.277      117.373      -20.450       37.292       43.937       22.744     1390.688     1930.424      517.280        1.163        0.192      137.842       22.799        0.027      348.472       28.193      861.081
07/18/2014  22:41:00      -70.430      129.870      -15.370       43.203       47.022       25.543     1866.474     2211.113      652.461        1.340        0.237      147.738       21.567        0.021      348.497       28.236      861.065
07/18/2014  22:42:00      -54.680       91.565      -10.655       38.356       41.368       26.169     1471.210     1711.318      684.801        0.768        0.193      106.649       22.753        0.046      348.415       28.094      861.064
07/18/2014  22:43:00      -98.699      144.782      -17.917       68.371       68.477       38.541     4674.599     4689.063     1485.390        2.093        0.542      175.224       44.618        0.065      348.452       28.157      861.063
07/18/2014  22:44:00     -141.985      202.581      -28.080       98.526       85.928       55.034     9707.470     7383.567     3028.787        4.105        1.006      247.384       54.797        0.049      348.642       28.483      861.057
07/18/2014  22:45:00      -79.340      212.448      -19.594       51.548       77.605       33.268     2657.163     6022.554     1106.745        3.080        0.489      226.780       33.989        0.022      348.426       28.110      861.054
07/18/2014  22:46:00     -164.133      145.715      -26.043       54.245       79.639       37.992     2942.546     6342.368     1443.387        2.979        0.536      219.482       33.932        0.024      348.647       28.493      861.053
07/18/2014  22:47:00     -178.765      155.307      -37.041       70.778      108.201       49.604     5009.559    11707.485     2460.517        3.831        0.959      236.806       48.228        0.041      348.472       28.189      861.088
07/18/2014  22:48:00     -151.844      225.645      -42.784       54.663       78.712       40.210     2988.093     6195.545     1616.830        4.330        0.540      271.978       35.700        0.017      348.477       28.198      861.096
07/18/2014  22:49:00     -105.665      145.455      -24.842       67.182       75.614       45.113     4513.482     5717.453     2035.208        2.260        0.613      179.784       26.655        0.022      348.371       28.015      861.109
07/18/2014  22:50:00      -87.407      133.730      -14.577       56.923       79.963       37.100     3240.282     6394.040     1376.403        1.837        0.551      159.761       41.848        0.069      348.304       27.902      861.110
07/18/2014  22:51:00     -117.021      158.934      -10.415       69.865       97.980       53.861     4881.094     9599.998     2901.004        2.822        0.869      197.368       44.939        0.052      348.289       27.873      861.123
07/18/2014  22:52:00     -154.652      188.931      -33.033       95.008       82.781       47.695     9026.528     6852.631     2274.831        3.943        0.908      244.156       34.437        0.020      348.243       27.792      861.142
07/18/2014  22:53:00     -157.333      329.223      -39.769       69.206       91.325       49.751     4789.518     8340.226     2475.171        7.516        0.780      364.886       45.455        0.016      348.336       27.953      861.141
07/18/2014  22:54:00     -136.307       78.439      -21.886       79.696      103.393       34.445     6351.479    10690.068     1186.459        2.172        0.911      157.264       28.115        0.032      348.253       27.812      861.155
07/18/2014  22:55:00     -148.014       98.351      -27.266       70.060       55.717       45.740     4908.380     3104.434     2092.113        2.121        0.505      177.711       39.176        0.049      348.089       27.528      861.170
07/18/2014  22:56:00     -108.080       74.403      -20.235       53.630       70.546       32.159     2876.184     4976.746     1034.222        1.326        0.444      131.214       24.127        0.034      348.119       27.581      861.184
07/18/2014  22:57:00     -132.959      -42.037       -9.723       65.873       40.765       23.396     4339.275     1661.751      547.356        1.304        0.327      139.446       25.962        0.035      348.099       27.548      861.192
07/18/2014  22:58:00     -180.116       64.858      -14.461       81.550       58.479       40.855     6650.329     3419.771     1669.128        2.430        0.587      191.437       27.109        0.020      348.048       27.457      861.186
07/18/2014  22:59:00     -175.024      -32.784      -17.436       68.231       79.962       39.705     4655.516     6393.933     1576.487        2.232        0.631      178.068       28.494        0.026      348.095       27.537      861.187
07/18/2014  23:00:00     -163.489       98.912      -18.520       76.705       54.206       44.030     5883.598     2938.332     1938.631        2.381        0.538      191.082       37.165        0.038      347.997       27.368      861.200
07/18/2014  23:01:00     -147.803      109.553      -32.630       67.094       61.792       30.969     4501.582     3818.309      959.081        2.209        0.464      183.978       25.139        0.019      348.025       27.418      861.211
07/18/2014  23:02:00     -100.293      126.325      -15.255       48.326       77.442       37.890     2335.425     5997.323     1435.652        1.801        0.488      161.297       34.188        0.045      347.952       27.291      861.205
07/18/2014  23:03:00     -143.099      155.945      -28.236       78.750       70.545       41.523     6201.623     4976.538     1724.171        2.925        0.645      211.651       36.971        0.031      347.940       27.268      861.207
07/18/2014  23:04:00     -136.896      172.077      -31.068       69.604       78.329       41.297     4844.700     6135.372     1705.433        3.100        0.634      219.889       37.765        0.029      347.951       27.292      861.214
07/18/2014  23:05:00      -95.247       97.384      -24.949       55.623       55.075       22.076     3093.906     3033.288      487.352        1.290        0.331      136.219       13.955        0.010      348.010       27.395      861.219
07/18/2014  23:06:00      -98.707       82.147      -10.327       49.520       46.739       37.180     2452.186     2184.554     1382.340        1.131        0.301      128.418       33.970        0.070      348.059       27.479      861.224
07/18/2014  23:07:00      -91.818      174.031      -18.860       67.678       55.018       40.843     4580.364     3026.954     1668.133        2.417        0.464      196.767       31.370        0.025      348.048       27.457      861.228
07/18/2014  23:08:00      -97.912      141.967      -23.231       55.344       56.123       31.400     3062.916     3149.743      985.984        1.874        0.360      172.456       26.374        0.023      348.120       27.582      861.236
07/18/2014  23:09:00     -108.504      116.132      -19.961       42.067       49.164       27.113     1769.651     2417.105      735.122        1.529        0.246      158.933       22.444        0.020      348.203       27.727      861.247
07/18/2014  23:10:00      -77.097      115.698      -15.358       34.310       45.238       27.185     1177.150     2046.510      739.012        1.176        0.198      139.032       22.915        0.027      348.194       27.712      861.244
07/18/2014  23:11:00     -105.880      183.254      -32.871       38.483       43.822       25.923     1480.915     1920.355      671.989        2.497        0.204      211.643       19.066        0.008      348.349       27.978      861.235
07/18/2014  23:12:00      -78.848       79.862      -13.899       29.069       30.375       23.976      845.030      922.662      574.844        0.756        0.117      112.228       21.734        0.038      348.242       27.796      861.229
07/18/2014  23:13:00      -99.394       35.073      -13.394       26.738       32.838       19.751      714.919     1078.322      390.091        0.674        0.109      105.401       17.366        0.027      348.281       27.863      861.238
07/18/2014  23:14:00      -93.346       16.733       -6.922       31.289       28.038       15.698      979.027      786.150      246.442        0.553        0.101       94.833       12.548        0.018      348.218       27.753      861.243
07/18/2014  23:15:00      -86.676       -2.630       -3.610       48.133       32.832       23.299     2316.747     1077.933      542.858        0.573        0.197       86.716       24.861        0.082      348.196       27.716      861.248
07/18/2014  23:16:00     -111.703        8.423      -12.997       23.727       27.031       17.920      562.960      730.693      321.115        0.717        0.081      112.020       14.625        0.017      348.097       27.544      861.261
07/18/2014  23:17:00      -75.972       90.696      -10.048       42.192       41.497       28.829     1780.131     1721.979      831.125        0.921        0.217      118.311       31.598        0.071      348.240       27.790      861.273
07/18/2014  23:18:00     -107.734      102.143      -15.829       39.490       38.654       32.023     1559.489     1494.104     1025.451        1.318        0.204      148.458       24.019        0.026      348.194       27.711      861.274
07/18/2014  23:19:00      -97.722       89.893      -17.611       34.359       35.729       23.925     1180.544     1276.540      572.418        1.048        0.151      132.780       22.899        0.030      348.203       27.728      861.275
07/18/2014  23:20:00      -66.818      119.246      -17.772       43.901       52.719       30.619     1927.329     2779.342      937.518        1.232        0.282      136.691       30.624        0.050      348.141       27.621      861.273
07/18/2014  23:21:00     -107.286       69.273      -19.432       21.264       34.754       19.193      452.174     1207.867      368.377        0.936        0.101      127.706       17.256        0.018      348.146       27.630      861.286
07/18/2014  23:22:00      -90.664       48.842      -10.930       31.388       23.692       20.009      985.212      561.312      400.368        0.634        0.097      102.983       16.641        0.026      348.093       27.539      861.291
07/18/2014  23:23:00      -95.104        9.089       -9.883       43.805       36.092       20.629     1918.918     1302.622      425.570        0.644        0.182       95.537       18.701        0.038      348.039       27.443      861.285
07/18/2014  23:24:00      -39.964        5.884        1.306       27.603       20.630       13.781      761.905      425.599      189.925        0.151        0.069       40.394       12.076        0.089      348.019       27.408      861.273
07/18/2014  23:25:00      -53.289       24.283       -3.130       22.268       17.801       13.897      495.880      316.881      193.113        0.222        0.050       58.561       11.982        0.042      348.001       27.378      861.275
07/18/2014  23:26:00      -66.431       46.907       -4.398       20.186       22.894       14.378      407.478      524.124      206.717        0.389        0.057       81.323        9.297        0.013      348.004       27.383      861.273
07/18/2014  23:27:00      -77.980       47.993       -4.963       28.307       29.252       21.099      801.296      855.700      445.187        0.526        0.105       91.565       13.834        0.023      347.986       27.351      861.269
07/18/2014  23:28:00     -105.953       36.002       -8.032       22.913       38.048       18.642      525.001     1447.619      347.537        0.745        0.116      111.902       15.899        0.020      347.972       27.329      861.265
07/18/2014  23:29:00      -87.431      -22.298       -4.109       26.233       25.078       15.546      688.165      628.899      241.667        0.486        0.078       90.230       13.208        0.021      347.912       27.223      861.261
07/18/2014  23:30:00     -107.359      -32.114       -5.430       35.617       31.564       21.084     1268.567      996.261      444.546        0.765        0.135      112.059       18.173        0.026      347.864       27.141      861.256
07/18/2014  23:31:00     -109.585      -24.651      -15.062       36.296       26.047       16.407     1317.398      678.459      269.201        0.755        0.113      112.324       18.715        0.028      347.849       27.117      861.239
07/18/2014  23:32:00     -131.475      -25.452      -12.660       44.523       25.672       21.967     1982.275      659.065      482.563        1.061        0.156      133.916       23.256        0.030      347.784       27.005      861.242
07/18/2014  23:33:00     -126.173      -41.390       -6.878       42.687       44.943       25.092     1822.212     2019.878      629.633        1.107        0.224      132.788       23.508        0.031      347.752       26.949      861.239
07/18/2014  23:34:00     -153.786      -28.828      -12.078       64.666       38.248       30.975     4181.708     1462.873      959.444        1.561        0.330      156.464       32.457        0.043      347.744       26.935      861.246
07/18/2014  23:35:00     -125.687      -27.636       -5.872       43.120       38.687       27.347     1859.340     1496.721      747.835        1.035        0.205      128.690       27.221        0.045      347.700       26.860      861.258
07/18/2014  23:36:00     -140.230      -34.742        1.740       74.767       42.736       28.499     5590.098     1826.395      812.201        1.455        0.411      144.469       31.804        0.048      347.941       27.276      861.256
07/18/2014  23:37:00     -100.609      -54.436       -3.431       68.829       35.103       29.454     4737.413     1232.210      867.565        0.997        0.342      114.391       26.928        0.055      348.004       27.382      861.263
07/18/2014  23:38:00      -97.467      -71.707        1.309       49.996       47.659       28.073     2499.621     2271.368      788.072        1.010        0.278      121.003       28.156        0.054      347.906       27.214      861.266
07/18/2014  23:39:00     -120.608      -13.909       -7.846       39.631       59.835       22.598     1570.636     3580.188      510.662        1.023        0.283      121.408       19.964        0.027      347.821       27.069      861.283
07/18/2014  23:40:00     -113.443       11.607      -11.500       30.660       35.195       25.729      940.016     1238.665      662.005        0.799        0.142      114.035       13.989        0.015      347.724       26.901      861.303
07/18/2014  23:41:00     -119.650      -30.944      -10.006       42.195       33.755       24.328     1780.442     1139.423      591.873        0.944        0.176      123.586       13.592        0.012      347.797       27.028      861.325
07/18/2014  23:42:00     -123.262      -64.037      -19.750       37.696       25.859       22.134     1421.018      668.664      489.935        1.113        0.129      138.904       15.272        0.012      347.797       27.027      861.348
07/18/2014  23:43:00     -107.489      -65.674       -8.811       41.151       37.347       29.484     1693.403     1394.775      869.317        0.995        0.198      125.965       14.672        0.014      347.783       27.001      861.355
07/18/2014  23:44:00     -101.704      -15.252      -12.354       45.991       39.573       22.113     2115.203     1566.007      488.985        0.745        0.209      102.841       18.160        0.031      347.780       26.998      861.353
07/18/2014  23:45:00      -62.756      -47.466        0.843       55.670       29.339       21.520     3099.193      860.792      463.111        0.531        0.221       78.685       27.359        0.121      347.778       26.993      861.348
07/18/2014  23:46:00     -105.829      -27.706       -9.294       32.633       23.297       20.329     1064.924      542.754      413.259        0.704        0.101      109.395       21.207        0.038      347.819       27.064      861.334
07/18/2014  23:47:00      -57.983      -16.960        1.692       41.613       23.588       15.527     1731.630      556.395      241.094        0.309        0.126       60.413       14.974        0.061      347.808       27.046      861.337
07/18/2014  23:48:00      -69.504      -43.200       -0.560       40.835       29.464       15.044     1667.525      868.107      226.316        0.473        0.138       81.836       13.670        0.028      347.809       27.047      861.331
07/18/2014  23:49:00      -80.771      -52.335       -2.142       45.554       25.933       21.594     2075.132      672.520      466.315        0.624        0.161       96.244       17.410        0.033      347.913       27.226      861.307
07/18/2014  23:50:00      -89.154      -77.400        5.869       56.692       45.959       31.695     3213.940     2112.188     1004.563        1.015        0.317      118.064       33.232        0.079      348.059       27.479      861.287
07/18/2014  23:51:00     -212.394     -109.969       -0.416       63.418       61.475       33.824     4021.896     3779.208     1144.063        3.307        0.447      239.174       24.212        0.010      348.159       27.648      861.270
07/18/2014  23:52:00     -146.065      -90.485       -7.668       83.711       70.100       35.379     7007.544     4914.076     1251.639        2.137        0.659      171.821       42.861        0.062      348.144       27.624      861.264
07/18/2014  23:53:00     -155.578      -50.222       -2.225       82.652       40.237       32.691     6831.386     1619.053     1068.707        1.812        0.476      163.483       37.477        0.053      348.115       27.574      861.265
07/18/2014  23:54:00     -126.945      -19.406       -1.543       55.981       39.044       26.204     3133.845     1524.405      686.649        1.092        0.267      128.420       23.817        0.034      347.983       27.348      861.286
07/18/2014  23:55:00     -156.993      -57.085        7.301       59.005       60.669       32.453     3481.633     3680.671     1053.218        1.809        0.411      167.050       32.404        0.038      347.918       27.234      861.283
07/18/2014  23:56:00     -129.895      -61.010       -0.885       66.772       41.432       27.186     4458.499     1716.619      739.084        1.375        0.346      143.509       32.237        0.050      347.999       27.374      861.265
07/18/2014  23:57:00      -93.074      -78.606        1.691       47.041       37.181       23.152     2212.897     1382.454      536.034        0.949        0.207      121.826       21.803        0.032      348.047       27.457      861.251
07/18/2014  23:58:00      -93.605      -77.686        2.821       50.526       52.544       33.070     2552.862     2760.889     1093.639        1.060        0.320      121.643       15.609        0.016      348.134       27.608      861.246
07/18/2014  23:59:00     -131.355        8.640       -1.797       53.623       61.265       22.989     2875.377     3753.417      528.488        1.224        0.358      131.638       18.752        0.020      348.008       27.390      861.280
